| time (UTC) | temp C | wind direction | speed KPH | gust KPH | rain 1hr cm | rain 24hr cm | rain mn cm | humidity % | barometer mb |
| 20260507105853 | 14 | 360 | 9.7 | 22.5 | 0.00 | 0.00 | 0.00 | 85 | 1017.6 |
| 20260507105734 | 14 | 360 | 11.3 | 22.5 | 0.00 | 0.00 | 0.00 | 85 | 1017.6 |
| 20260507105653 | 15 | 360 | 11.3 | 32.2 | 0.00 | 0.00 | 0.00 | 85 | 1017.6 |
| 20260507105532 | 15 | 360 | 11.3 | 32.2 | 0.00 | 0.00 | 0.00 | 85 | 1017.6 |
| 20260507105434 | 14 | 360 | 12.9 | 32.2 | 0.00 | 0.00 | 0.00 | 85 | 1017.5 |
| 20260507105316 | 14 | 360 | 16.1 | 32.2 | 0.00 | 0.00 | 0.00 | 85 | 1017.5 |
| 20260507105219 | 14 | 360 | 16.1 | 32.2 | 0.00 | 0.00 | 0.00 | 85 | 1017.5 |
| 20260507105120 | 15 | 360 | 16.1 | 32.2 | 0.00 | 0.00 | 0.00 | 85 | 1017.5 |
| 20260507105040 | 15 | 360 | 16.1 | 32.2 | 0.00 | 0.00 | 0.00 | 85 | 1017.5 |
| 20260507104920 | 15 | 360 | 16.1 | 32.2 | 0.00 | 0.00 | 0.00 | 85 | 1017.5 |
| 20260507104819 | 15 | 23 | 14.5 | 32.2 | 0.00 | 0.00 | 0.00 | 85 | 1017.5 |
| 20260507104720 | 15 | 360 | 12.9 | 25.7 | 0.00 | 0.00 | 0.00 | 85 | 1017.6 |
| 20260507104641 | 15 | 360 | 12.9 | 25.7 | 0.00 | 0.00 | 0.00 | 85 | 1017.5 |
| 20260507104540 | 15 | 360 | 14.5 | 29.0 | 0.00 | 0.00 | 0.00 | 85 | 1017.6 |
| 20260507104424 | 15 | 360 | 14.5 | 29.0 | 0.00 | 0.00 | 0.00 | 85 | 1017.6 |
| 20260507104325 | 15 | 360 | 14.5 | 29.0 | 0.00 | 0.00 | 0.00 | 85 | 1017.6 |
| 20260507104225 | 15 | 360 | 16.1 | 29.0 | 0.00 | 0.00 | 0.00 | 85 | 1017.6 |
| 20260507104126 | 15 | 360 | 17.7 | 29.0 | 0.00 | 0.00 | 0.00 | 85 | 1017.6 |
| 20260507104026 | 15 | 360 | 17.7 | 29.0 | 0.00 | 0.00 | 0.00 | 85 | 1017.6 |
| 20260507103926 | 15 | 360 | 17.7 | 29.0 | 0.00 | 0.00 | 0.00 | 85 | 1017.6 |
| 20260507103831 | 15 | 360 | 17.7 | 29.0 | 0.00 | 0.00 | 0.00 | 85 | 1017.6 |
| 20260507103731 | 15 | 360 | 17.7 | 29.0 | 0.00 | 0.00 | 0.00 | 85 | 1017.6 |
| 20260507103631 | 15 | 360 | 16.1 | 29.0 | 0.00 | 0.00 | 0.00 | 85 | 1017.7 |
| 20260507103531 | 15 | 360 | 17.7 | 29.0 | 0.00 | 0.00 | 0.00 | 85 | 1017.7 |
| 20260507103432 | 15 | 360 | 17.7 | 29.0 | 0.00 | 0.00 | 0.00 | 85 | 1017.7 |
| 20260507103332 | 15 | 360 | 17.7 | 29.0 | 0.00 | 0.00 | 0.00 | 85 | 1017.7 |
| 20260507103216 | 15 | 360 | 16.1 | 24.1 | 0.00 | 0.00 | 0.00 | 84 | 1017.6 |
| 20260507103118 | 15 | 360 | 14.5 | 24.1 | 0.00 | 0.00 | 0.00 | 84 | 1017.6 |
| 20260507103018 | 15 | 360 | 12.9 | 24.1 | 0.00 | 0.00 | 0.00 | 84 | 1017.5 |
| 20260507102918 | 15 | 360 | 11.3 | 22.5 | 0.00 | 0.00 | 0.00 | 84 | 1017.7 |
| 20260507102819 | 15 | 360 | 11.3 | 22.5 | 0.00 | 0.00 | 0.00 | 84 | 1017.6 |
| 20260507102718 | 15 | 360 | 11.3 | 22.5 | 0.00 | 0.00 | 0.00 | 84 | 1017.6 |
| 20260507102619 | 15 | 360 | 11.3 | 22.5 | 0.00 | 0.00 | 0.00 | 84 | 1017.6 |
| 20260507102523 | 15 | 360 | 12.9 | 22.5 | 0.00 | 0.00 | 0.00 | 84 | 1017.4 |
| 20260507102424 | 15 | 360 | 12.9 | 22.5 | 0.00 | 0.00 | 0.00 | 84 | 1017.4 |
| 20260507102323 | 15 | 360 | 14.5 | 22.5 | 0.00 | 0.00 | 0.00 | 84 | 1017.3 |
| 20260507102245 | 15 | 360 | 12.9 | 22.5 | 0.00 | 0.00 | 0.00 | 84 | 1017.3 |
| 20260507102123 | 15 | 360 | 12.9 | 22.5 | 0.00 | 0.00 | 0.00 | 84 | 1017.2 |
| 20260507102024 | 15 | 360 | 11.3 | 20.9 | 0.00 | 0.00 | 0.00 | 84 | 1017.2 |
| 20260507101925 | 15 | 360 | 9.7 | 20.9 | 0.00 | 0.00 | 0.00 | 84 | 1017.1 |
| 20260507101828 | 15 | 360 | 8.0 | 16.1 | 0.00 | 0.00 | 0.00 | 85 | 1017.1 |
| 20260507101749 | 15 | 360 | 8.0 | 16.1 | 0.00 | 0.00 | 0.00 | 85 | 1017.1 |
| 20260507101629 | 15 | 360 | 8.0 | 16.1 | 0.00 | 0.00 | 0.00 | 84 | 1017.0 |
| 20260507101530 | 15 | 360 | 8.0 | 16.1 | 0.00 | 0.00 | 0.00 | 84 | 1016.9 |
| 20260507101430 | 15 | 360 | 8.0 | 17.7 | 0.00 | 0.00 | 0.00 | 84 | 1017.0 |
| 20260507101350 | 15 | 360 | 8.0 | 17.7 | 0.00 | 0.00 | 0.00 | 84 | 1017.0 |
| 20260507101231 | 15 | 360 | 8.0 | 17.7 | 0.00 | 0.00 | 0.00 | 84 | 1017.1 |
| 20260507101135 | 15 | 360 | 9.7 | 17.7 | 0.00 | 0.00 | 0.00 | 84 | 1017.0 |
| 20260507101036 | 15 | 360 | 9.7 | 17.7 | 0.00 | 0.00 | 0.00 | 84 | 1017.1 |
| 20260507100956 | 15 | 360 | 9.7 | 17.7 | 0.00 | 0.00 | 0.00 | 84 | 1017.2 |
| 20260507100855 | 15 | 360 | 9.7 | 17.7 | 0.00 | 0.00 | 0.00 | 84 | 1017.2 |
| 20260507100735 | 15 | 360 | 8.0 | 20.9 | 0.00 | 0.00 | 0.00 | 84 | 1017.3 |
| 20260507100636 | 15 | 360 | 8.0 | 20.9 | 0.00 | 0.00 | 0.00 | 84 | 1017.3 |
| 20260507100556 | 15 | 360 | 6.4 | 20.9 | 0.00 | 0.00 | 0.00 | 84 | 1017.3 |
| 20260507100435 | 15 | 360 | 6.4 | 20.9 | 0.00 | 0.00 | 0.00 | 84 | 1017.2 |
| 20260507100320 | 15 | 360 | 8.0 | 20.9 | 0.00 | 0.00 | 0.00 | 84 | 1017.0 |
| 20260507100220 | 15 | 360 | 8.0 | 20.9 | 0.00 | 0.00 | 0.00 | 84 | 1017.0 |
| 20260507100122 | 15 | 360 | 9.7 | 24.1 | 0.00 | 0.00 | 0.00 | 84 | 1017.0 |
| 20260507100042 | 15 | 360 | 11.3 | 24.1 | 0.00 | 0.00 | 0.00 | 84 | 1017.0 |
| 20260507095921 | 15 | 360 | 12.9 | 24.1 | 0.00 | 0.00 | 0.00 | 84 | 1017.0 |
| 20260507095824 | 15 | 360 | 11.3 | 24.1 | 0.00 | 0.00 | 0.00 | 84 | 1017.1 |
| 20260507095723 | 15 | 360 | 12.9 | 24.1 | 0.00 | 0.00 | 0.00 | 84 | 1017.1 |
| 20260507095627 | 15 | 360 | 12.9 | 24.1 | 0.00 | 0.00 | 0.00 | 84 | 1017.1 |
| 20260507095528 | 15 | 360 | 12.9 | 24.1 | 0.00 | 0.00 | 0.00 | 84 | 1017.1 |
| 20260507095430 | 15 | 360 | 12.9 | 24.1 | 0.00 | 0.00 | 0.00 | 84 | 1017.1 |
| 20260507095331 | 15 | 360 | 12.9 | 24.1 | 0.00 | 0.00 | 0.00 | 84 | 1017.0 |
| 20260507095231 | 15 | 360 | 12.9 | 24.1 | 0.00 | 0.00 | 0.00 | 84 | 1016.9 |
| 20260507095152 | 15 | 360 | 11.3 | 24.1 | 0.00 | 0.00 | 0.00 | 84 | 1016.9 |
| 20260507095031 | 15 | 360 | 12.9 | 24.1 | 0.00 | 0.00 | 0.00 | 84 | 1016.8 |
| 20260507094916 | 15 | 360 | 14.5 | 24.1 | 0.00 | 0.00 | 0.00 | 84 | 1016.7 |
| 20260507094817 | 15 | 360 | 14.5 | 24.1 | 0.00 | 0.00 | 0.00 | 84 | 1016.8 |
| 20260507094717 | 15 | 360 | 14.5 | 24.1 | 0.00 | 0.00 | 0.00 | 84 | 1017.0 |
| 20260507094617 | 15 | 360 | 12.9 | 24.1 | 0.00 | 0.00 | 0.00 | 84 | 1017.0 |
| 20260507094538 | 15 | 360 | 9.7 | 24.1 | 0.00 | 0.00 | 0.00 | 84 | 1017.1 |
| 20260507094419 | 15 | 360 | 9.7 | 24.1 | 0.00 | 0.00 | 0.00 | 84 | 1017.1 |
| 20260507094318 | 15 | 360 | 8.0 | 19.3 | 0.00 | 0.00 | 0.00 | 84 | 1017.2 |
| 20260507094223 | 15 | 360 | 8.0 | 19.3 | 0.00 | 0.00 | 0.00 | 84 | 1017.2 |
| 20260507094123 | 15 | 360 | 8.0 | 19.3 | 0.00 | 0.00 | 0.00 | 84 | 1017.2 |
| 20260507094024 | 15 | 360 | 8.0 | 19.3 | 0.00 | 0.00 | 0.00 | 84 | 1017.1 |
| 20260507093924 | 15 | 360 | 8.0 | 20.9 | 0.00 | 0.00 | 0.00 | 84 | 1017.0 |
| 20260507093825 | 15 | 360 | 8.0 | 22.5 | 0.00 | 0.00 | 0.00 | 84 | 1016.9 |
| 20260507093725 | 15 | 360 | 9.7 | 22.5 | 0.00 | 0.00 | 0.00 | 84 | 1016.9 |
| 20260507093629 | 15 | 360 | 9.7 | 22.5 | 0.00 | 0.00 | 0.00 | 84 | 1016.9 |
| 20260507093550 | 15 | 360 | 9.7 | 22.5 | 0.00 | 0.00 | 0.00 | 83 | 1016.9 |
| 20260507093450 | 15 | 360 | 12.9 | 22.5 | 0.00 | 0.00 | 0.00 | 83 | 1016.9 |
| 20260507093330 | 15 | 360 | 12.9 | 22.5 | 0.00 | 0.00 | 0.00 | 83 | 1016.9 |
| 20260507093231 | 15 | 360 | 11.3 | 22.5 | 0.00 | 0.00 | 0.00 | 83 | 1017.0 |
| 20260507093131 | 15 | 360 | 12.9 | 22.5 | 0.00 | 0.00 | 0.00 | 83 | 1017.0 |
| 20260507093032 | 15 | 360 | 12.9 | 22.5 | 0.00 | 0.00 | 0.00 | 83 | 1017.1 |
| 20260507092916 | 15 | 360 | 11.3 | 22.5 | 0.00 | 0.00 | 0.00 | 83 | 1017.0 |
| 20260507092818 | 15 | 360 | 12.9 | 20.9 | 0.00 | 0.00 | 0.00 | 83 | 1016.9 |
| 20260507092717 | 15 | 360 | 12.9 | 20.9 | 0.00 | 0.00 | 0.00 | 83 | 1016.9 |
| 20260507092618 | 15 | 360 | 12.9 | 19.3 | 0.00 | 0.00 | 0.00 | 83 | 1016.9 |
| 20260507092539 | 15 | 360 | 11.3 | 17.7 | 0.00 | 0.00 | 0.00 | 83 | 1016.9 |
| 20260507092419 | 15 | 360 | 11.3 | 17.7 | 0.00 | 0.00 | 0.00 | 83 | 1017.0 |
| 20260507092319 | 15 | 360 | 9.7 | 14.5 | 0.00 | 0.00 | 0.00 | 83 | 1017.0 |
| 20260507092225 | 15 | 360 | 9.7 | 14.5 | 0.00 | 0.00 | 0.00 | 83 | 1017.0 |
| 20260507092126 | 15 | 360 | 9.7 | 14.5 | 0.00 | 0.00 | 0.00 | 83 | 1017.0 |
| 20260507092026 | 15 | 360 | 8.0 | 14.5 | 0.00 | 0.00 | 0.00 | 83 | 1016.9 |
| 20260507091926 | 15 | 360 | 8.0 | 14.5 | 0.00 | 0.00 | 0.00 | 83 | 1016.9 |
| 20260507091827 | 15 | 360 | 8.0 | 14.5 | 0.00 | 0.00 | 0.00 | 83 | 1016.9 |
| 20260507091728 | 15 | 360 | 6.4 | 14.5 | 0.00 | 0.00 | 0.00 | 83 | 1017.0 |
| 20260507091629 | 15 | 360 | 6.4 | 14.5 | 0.00 | 0.00 | 0.00 | 83 | 1016.9 |
| 20260507091534 | 15 | 360 | 6.4 | 16.1 | 0.00 | 0.00 | 0.00 | 83 | 1017.1 |
| 20260507091434 | 15 | 360 | 6.4 | 16.1 | 0.00 | 0.00 | 0.00 | 83 | 1017.1 |
| 20260507091335 | 15 | 360 | 6.4 | 16.1 | 0.00 | 0.00 | 0.00 | 83 | 1017.1 |
| 20260507091255 | 15 | 360 | 8.0 | 16.1 | 0.00 | 0.00 | 0.00 | 83 | 1017.1 |
| 20260507091156 | 15 | 360 | 8.0 | 16.1 | 0.00 | 0.00 | 0.00 | 83 | 1017.1 |
| 20260507091035 | 15 | 360 | 8.0 | 16.1 | 0.00 | 0.00 | 0.00 | 83 | 1017.1 |
| 20260507090956 | 15 | 360 | 9.7 | 16.1 | 0.00 | 0.00 | 0.00 | 83 | 1017.1 |
| 20260507090819 | 15 | 360 | 8.0 | 14.5 | 0.00 | 0.00 | 0.00 | 83 | 1017.0 |
| 20260507090720 | 15 | 360 | 8.0 | 14.5 | 0.00 | 0.00 | 0.00 | 83 | 1017.0 |
| 20260507090620 | 15 | 360 | 6.4 | 14.5 | 0.00 | 0.00 | 0.00 | 83 | 1017.0 |
| 20260507090521 | 15 | 360 | 6.4 | 12.9 | 0.00 | 0.00 | 0.00 | 83 | 1016.9 |
| 20260507090422 | 15 | 360 | 6.4 | 12.9 | 0.00 | 0.00 | 0.00 | 83 | 1016.9 |
| 20260507090321 | 15 | 360 | 4.8 | 12.9 | 0.00 | 0.00 | 0.00 | 83 | 1016.9 |
| 20260507090222 | 15 | 360 | 4.8 | 12.9 | 0.00 | 0.00 | 0.00 | 83 | 1016.8 |
| 20260507090127 | 15 | 360 | 4.8 | 12.9 | 0.00 | 0.00 | 0.00 | 83 | 1016.8 |
| 20260507090027 | 15 | 360 | 4.8 | 12.9 | 0.00 | 0.00 | 0.00 | 83 | 1016.8 |
| 20260507085948 | 15 | 360 | 4.8 | 12.9 | 0.00 | 0.00 | 0.00 | 83 | 1016.7 |
| 20260507085827 | 15 | 360 | 4.8 | 12.9 | 0.00 | 0.00 | 0.00 | 83 | 1016.6 |
| 20260507085728 | 15 | 360 | 6.4 | 12.9 | 0.00 | 0.00 | 0.00 | 83 | 1016.6 |
| 20260507085627 | 15 | 360 | 6.4 | 12.9 | 0.00 | 0.00 | 0.00 | 83 | 1016.6 |
| 20260507085527 | 15 | 360 | 6.4 | 12.9 | 0.00 | 0.00 | 0.00 | 83 | 1016.7 |
| 20260507085431 | 15 | 360 | 6.4 | 12.9 | 0.00 | 0.00 | 0.00 | 83 | 1016.7 |
| 20260507085332 | 15 | 360 | 6.4 | 12.9 | 0.00 | 0.00 | 0.00 | 83 | 1016.7 |
| 20260507085251 | 15 | 360 | 6.4 | 12.9 | 0.00 | 0.00 | 0.00 | 83 | 1016.7 |
| 20260507085151 | 15 | 360 | 4.8 | 12.9 | 0.00 | 0.00 | 0.00 | 83 | 1016.7 |
| 20260507085050 | 15 | 360 | 4.8 | 12.9 | 0.00 | 0.00 | 0.00 | 83 | 1016.7 |
| 20260507084931 | 15 | 360 | 4.8 | 8.0 | 0.00 | 0.00 | 0.00 | 83 | 1016.7 |
| 20260507084832 | 15 | 360 | 4.8 | 8.0 | 0.00 | 0.00 | 0.00 | 83 | 1016.6 |
| 20260507084733 | 15 | 360 | 4.8 | 8.0 | 0.00 | 0.00 | 0.00 | 83 | 1016.7 |
| 20260507084618 | 15 | 360 | 3.2 | 6.4 | 0.00 | 0.00 | 0.00 | 83 | 1016.7 |
| 20260507084518 | 15 | 360 | 3.2 | 6.4 | 0.00 | 0.00 | 0.00 | 83 | 1016.8 |
| 20260507084438 | 15 | 360 | 3.2 | 6.4 | 0.00 | 0.00 | 0.00 | 83 | 1016.8 |
| 20260507084318 | 15 | 360 | 3.2 | 6.4 | 0.00 | 0.00 | 0.00 | 83 | 1016.8 |
| 20260507084219 | 15 | 360 | 3.2 | 8.0 | 0.00 | 0.00 | 0.00 | 83 | 1016.8 |
| 20260507084140 | 15 | 57 | 3.2 | 8.0 | 0.00 | 0.00 | 0.00 | 83 | 1016.7 |
| 20260507084019 | 15 | 360 | 3.2 | 14.5 | 0.00 | 0.00 | 0.00 | 83 | 1016.6 |
| 20260507083923 | 15 | 360 | 4.8 | 14.5 | 0.00 | 0.00 | 0.00 | 83 | 1016.5 |
| 20260507083824 | 15 | 360 | 4.8 | 14.5 | 0.00 | 0.00 | 0.00 | 83 | 1016.5 |
| 20260507083725 | 15 | 360 | 4.8 | 14.5 | 0.00 | 0.00 | 0.00 | 83 | 1016.5 |
| 20260507083646 | 15 | 360 | 4.8 | 14.5 | 0.00 | 0.00 | 0.00 | 83 | 1016.5 |
| 20260507083525 | 15 | 360 | 4.8 | 14.5 | 0.00 | 0.00 | 0.00 | 83 | 1016.6 |
| 20260507083446 | 15 | 360 | 4.8 | 14.5 | 0.00 | 0.00 | 0.00 | 83 | 1016.5 |
| 20260507083324 | 15 | 360 | 4.8 | 14.5 | 0.00 | 0.00 | 0.00 | 83 | 1016.6 |
| 20260507083244 | 15 | 360 | 6.4 | 14.5 | 0.00 | 0.00 | 0.00 | 83 | 1016.7 |
| 20260507083128 | 15 | 360 | 6.4 | 12.9 | 0.00 | 0.00 | 0.00 | 83 | 1016.7 |
| 20260507083029 | 15 | 360 | 6.4 | 12.9 | 0.00 | 0.00 | 0.00 | 83 | 1016.6 |
| 20260507082930 | 15 | 360 | 6.4 | 12.9 | 0.00 | 0.00 | 0.00 | 83 | 1016.7 |
| 20260507082830 | 15 | 360 | 4.8 | 12.9 | 0.00 | 0.00 | 0.00 | 83 | 1016.7 |
| 20260507082732 | 15 | 360 | 3.2 | 12.9 | 0.00 | 0.00 | 0.00 | 83 | 1016.7 |
| 20260507082631 | 15 | 360 | 3.2 | 8.0 | 0.00 | 0.00 | 0.00 | 83 | 1016.6 |
| 20260507082516 | 15 | 360 | 3.2 | 8.0 | 0.00 | 0.00 | 0.00 | 82 | 1016.7 |
| 20260507082416 | 15 | 360 | 3.2 | 8.0 | 0.00 | 0.00 | 0.00 | 82 | 1016.7 |
| 20260507082317 | 15 | 360 | 3.2 | 8.0 | 0.00 | 0.00 | 0.00 | 82 | 1016.7 |
| 20260507082217 | 15 | 360 | 3.2 | 20.9 | 0.00 | 0.00 | 0.00 | 82 | 1016.6 |
| 20260507082118 | 15 | 360 | 3.2 | 20.9 | 0.00 | 0.00 | 0.00 | 82 | 1016.6 |
| 20260507082017 | 15 | 360 | 4.8 | 20.9 | 0.00 | 0.00 | 0.00 | 82 | 1016.7 |
| 20260507081918 | 15 | 360 | 4.8 | 20.9 | 0.00 | 0.00 | 0.00 | 82 | 1016.6 |
| 20260507081823 | 15 | 360 | 4.8 | 20.9 | 0.00 | 0.00 | 0.00 | 82 | 1016.7 |
| 20260507081744 | 15 | 360 | 4.8 | 20.9 | 0.00 | 0.00 | 0.00 | 82 | 1016.7 |
| 20260507081643 | 15 | 65 | 6.4 | 20.9 | 0.00 | 0.00 | 0.00 | 82 | 1016.8 |
| 20260507081543 | 15 | 360 | 4.8 | 20.9 | 0.00 | 0.00 | 0.00 | 82 | 1016.8 |
| 20260507081422 | 15 | 360 | 6.4 | 20.9 | 0.00 | 0.00 | 0.00 | 82 | 1016.8 |
| 20260507081322 | 15 | 360 | 8.0 | 20.9 | 0.00 | 0.00 | 0.00 | 82 | 1016.6 |
| 20260507081244 | 15 | 360 | 9.7 | 20.9 | 0.00 | 0.00 | 0.00 | 82 | 1016.3 |
| 20260507081122 | 15 | 360 | 9.7 | 20.9 | 0.00 | 0.00 | 0.00 | 82 | 1016.1 |
| 20260507081043 | 15 | 360 | 11.3 | 20.9 | 0.00 | 0.00 | 0.00 | 82 | 1016.1 |
| 20260507080927 | 15 | 360 | 11.3 | 20.9 | 0.00 | 0.00 | 0.00 | 82 | 1016.1 |
| 20260507080827 | 15 | 360 | 11.3 | 20.9 | 0.00 | 0.00 | 0.00 | 82 | 1016.2 |
| 20260507080729 | 15 | 360 | 11.3 | 17.7 | 0.00 | 0.00 | 0.00 | 82 | 1016.1 |
| 20260507080629 | 15 | 360 | 11.3 | 17.7 | 0.00 | 0.00 | 0.00 | 82 | 1016.2 |
| 20260507080530 | 15 | 360 | 9.7 | 16.1 | 0.00 | 0.00 | 0.00 | 82 | 1016.3 |
| 20260507080432 | 15 | 360 | 8.0 | 16.1 | 0.00 | 0.00 | 0.00 | 82 | 1016.4 |
| 20260507080331 | 15 | 360 | 6.4 | 16.1 | 0.00 | 0.00 | 0.00 | 82 | 1016.3 |
| 20260507080235 | 15 | 360 | 6.4 | 16.1 | 0.00 | 0.00 | 0.00 | 82 | 1016.4 |
| 20260507080135 | 15 | 360 | 4.8 | 16.1 | 0.00 | 0.00 | 0.00 | 82 | 1016.3 |
| 20260507080035 | 15 | 360 | 4.8 | 16.1 | 0.00 | 0.00 | 0.00 | 82 | 1016.2 |
| 20260507075916 | 15 | 61 | 8.0 | 16.1 | 0.00 | 0.00 | 0.00 | 82 | 1016.1 |
| 20260507075817 | 15 | 360 | 8.0 | 16.1 | 0.00 | 0.00 | 0.00 | 82 | 1016.1 |
| 20260507075718 | 15 | 360 | 8.0 | 16.1 | 0.00 | 0.00 | 0.00 | 82 | 1016.1 |
| 20260507075622 | 15 | 360 | 8.0 | 16.1 | 0.00 | 0.00 | 0.00 | 82 | 1016.0 |
| 20260507075522 | 15 | 360 | 8.0 | 16.1 | 0.00 | 0.00 | 0.00 | 82 | 1016.0 |
| 20260507075442 | 15 | 360 | 8.0 | 14.5 | 0.00 | 0.00 | 0.00 | 82 | 1016.1 |
| 20260507075322 | 15 | 360 | 6.4 | 14.5 | 0.00 | 0.00 | 0.00 | 82 | 1016.1 |
| 20260507075223 | 15 | 360 | 8.0 | 14.5 | 0.00 | 0.00 | 0.00 | 82 | 1016.2 |
| 20260507075124 | 15 | 360 | 8.0 | 14.5 | 0.00 | 0.00 | 0.00 | 82 | 1016.3 |
| 20260507075024 | 15 | 360 | 8.0 | 20.9 | 0.00 | 0.00 | 0.00 | 82 | 1016.5 |
| 20260507074930 | 15 | 360 | 8.0 | 20.9 | 0.00 | 0.00 | 0.00 | 82 | 1016.5 |
| 20260507074830 | 15 | 360 | 8.0 | 20.9 | 0.00 | 0.00 | 0.00 | 82 | 1016.6 |
| 20260507074751 | 15 | 360 | 6.4 | 20.9 | 0.00 | 0.00 | 0.00 | 82 | 1016.7 |
| 20260507074631 | 15 | 360 | 6.4 | 20.9 | 0.00 | 0.00 | 0.00 | 82 | 1016.7 |
| 20260507074532 | 15 | 360 | 6.4 | 20.9 | 0.00 | 0.00 | 0.00 | 82 | 1016.6 |
| 20260507074431 | 15 | 360 | 8.0 | 20.9 | 0.00 | 0.00 | 0.00 | 81 | 1016.5 |
| 20260507074332 | 15 | 360 | 8.0 | 20.9 | 0.00 | 0.00 | 0.00 | 81 | 1016.3 |
| 20260507074217 | 15 | 360 | 8.0 | 20.9 | 0.00 | 0.00 | 0.00 | 81 | 1016.1 |
| 20260507074118 | 15 | 360 | 9.7 | 20.9 | 0.00 | 0.00 | 0.00 | 81 | 1016.1 |
| 20260507074018 | 15 | 360 | 9.7 | 20.9 | 0.00 | 0.00 | 0.00 | 81 | 1016.0 |
| 20260507073920 | 15 | 360 | 11.3 | 20.9 | 0.00 | 0.00 | 0.00 | 81 | 1016.1 |
| 20260507073840 | 15 | 360 | 11.3 | 20.9 | 0.00 | 0.00 | 0.00 | 81 | 1015.9 |
| 20260507073721 | 15 | 360 | 11.3 | 20.9 | 0.00 | 0.00 | 0.00 | 81 | 1016.0 |
| 20260507073622 | 15 | 360 | 9.7 | 16.1 | 0.00 | 0.00 | 0.00 | 81 | 1016.0 |
| 20260507073547 | 15 | 360 | 9.7 | 16.1 | 0.00 | 0.00 | 0.00 | 81 | 1016.0 |
| 20260507073426 | 15 | 360 | 8.0 | 16.1 | 0.00 | 0.00 | 0.00 | 81 | 1015.9 |
| 20260507073327 | 15 | 360 | 8.0 | 17.7 | 0.00 | 0.00 | 0.00 | 81 | 1015.9 |
| 20260507073247 | 15 | 360 | 8.0 | 17.7 | 0.00 | 0.00 | 0.00 | 81 | 1015.8 |
| 20260507073125 | 15 | 360 | 8.0 | 17.7 | 0.00 | 0.00 | 0.00 | 81 | 1015.9 |
| 20260507073027 | 15 | 360 | 8.0 | 17.7 | 0.00 | 0.00 | 0.00 | 81 | 1015.9 |
| 20260507072947 | 15 | 360 | 9.7 | 17.7 | 0.00 | 0.00 | 0.00 | 81 | 1016.0 |
| 20260507072827 | 15 | 360 | 9.7 | 17.7 | 0.00 | 0.00 | 0.00 | 81 | 1016.0 |
| 20260507072732 | 15 | 360 | 9.7 | 17.7 | 0.00 | 0.00 | 0.00 | 81 | 1016.1 |
| 20260507072632 | 15 | 360 | 9.7 | 17.7 | 0.00 | 0.00 | 0.00 | 81 | 1016.1 |
| 20260507072553 | 15 | 360 | 8.0 | 17.7 | 0.00 | 0.00 | 0.00 | 81 | 1016.1 |
| 20260507072433 | 15 | 360 | 8.0 | 17.7 | 0.00 | 0.00 | 0.00 | 81 | 1016.1 |
| 20260507072334 | 15 | 360 | 8.0 | 17.7 | 0.00 | 0.00 | 0.00 | 81 | 1016.3 |
| 20260507072216 | 15 | 360 | 8.0 | 17.7 | 0.00 | 0.00 | 0.00 | 81 | 1016.3 |
| 20260507072120 | 16 | 360 | 8.0 | 17.7 | 0.00 | 0.00 | 0.00 | 81 | 1016.4 |
| 20260507072022 | 15 | 360 | 9.7 | 17.7 | 0.00 | 0.00 | 0.00 | 81 | 1016.4 |
| 20260507071923 | 15 | 360 | 9.7 | 17.7 | 0.00 | 0.00 | 0.00 | 81 | 1016.5 |
| 20260507071843 | 15 | 360 | 8.0 | 17.7 | 0.00 | 0.00 | 0.00 | 81 | 1016.4 |
| 20260507071723 | 16 | 360 | 8.0 | 17.7 | 0.00 | 0.00 | 0.00 | 81 | 1016.3 |
| 20260507071623 | 16 | 67 | 8.0 | 17.7 | 0.00 | 0.00 | 0.00 | 81 | 1016.4 |
| 20260507071524 | 15 | 360 | 8.0 | 17.7 | 0.00 | 0.00 | 0.00 | 81 | 1016.3 |
| 20260507071429 | 15 | 360 | 8.0 | 17.7 | 0.00 | 0.00 | 0.00 | 81 | 1016.3 |
| 20260507071330 | 16 | 360 | 6.4 | 17.7 | 0.00 | 0.00 | 0.00 | 81 | 1016.4 |
| 20260507071231 | 16 | 360 | 8.0 | 20.9 | 0.00 | 0.00 | 0.00 | 81 | 1016.3 |
| 20260507071131 | 16 | 360 | 8.0 | 20.9 | 0.00 | 0.00 | 0.00 | 81 | 1016.2 |
| 20260507071032 | 16 | 360 | 9.7 | 20.9 | 0.00 | 0.00 | 0.00 | 81 | 1016.2 |
| 20260507070932 | 16 | 360 | 9.7 | 20.9 | 0.00 | 0.00 | 0.00 | 81 | 1016.2 |
| 20260507070817 | 16 | 360 | 9.7 | 20.9 | 0.00 | 0.00 | 0.00 | 81 | 1016.0 |
| 20260507070717 | 16 | 360 | 9.7 | 20.9 | 0.00 | 0.00 | 0.00 | 81 | 1016.0 |
| 20260507070638 | 16 | 360 | 9.7 | 20.9 | 0.00 | 0.00 | 0.00 | 81 | 1016.0 |
| 20260507070537 | 16 | 360 | 9.7 | 20.9 | 0.00 | 0.00 | 0.00 | 81 | 1016.0 |
| 20260507070435 | 16 | 360 | 9.7 | 20.9 | 0.00 | 0.00 | 0.00 | 81 | 1015.9 |
| 20260507070357 | 16 | 360 | 9.7 | 16.1 | 0.00 | 0.00 | 0.00 | 81 | 1015.9 |
| 20260507070235 | 16 | 360 | 8.0 | 16.1 | 0.00 | 0.00 | 0.00 | 81 | 1016.0 |
| 20260507070153 | 16 | 360 | 9.7 | 16.1 | 0.00 | 0.00 | 0.00 | 81 | 1016.0 |
| 20260507070033 | 16 | 360 | 8.0 | 14.5 | 0.00 | 0.00 | 0.00 | 81 | 1016.0 |
| 20260507065932 | 16 | 360 | 8.0 | 14.5 | 0.00 | 0.00 | 0.00 | 81 | 1016.2 |
| 20260507065856 | 16 | 360 | 6.4 | 14.5 | 0.00 | 0.00 | 0.00 | 81 | 1016.4 |
| 20260507065733 | 16 | 360 | 4.8 | 14.5 | 0.00 | 0.00 | 0.00 | 81 | 1016.5 |
| 20260507065650 | 16 | 60 | 4.8 | 9.7 | 0.00 | 0.00 | 0.00 | 81 | 1016.6 |
| 20260507065528 | 16 | 47 | 3.2 | 9.7 | 0.00 | 0.00 | 0.00 | 81 | 1016.6 |
| 20260507065427 | 16 | 360 | 3.2 | 6.4 | 0.00 | 0.00 | 0.00 | 81 | 1016.7 |
| 20260507065327 | 16 | 360 | 3.2 | 6.4 | 0.00 | 0.00 | 0.00 | 81 | 1016.5 |
| 20260507065245 | 16 | 360 | 3.2 | 6.4 | 0.00 | 0.00 | 0.00 | 81 | 1016.4 |
| 20260507065122 | 16 | 360 | 3.2 | 6.4 | 0.00 | 0.00 | 0.00 | 81 | 1016.4 |
| 20260507065022 | 16 | 360 | 3.2 | 9.7 | 0.00 | 0.00 | 0.00 | 81 | 1016.4 |
| 20260507064927 | 16 | 360 | 3.2 | 12.9 | 0.00 | 0.00 | 0.00 | 81 | 1016.4 |
| 20260507064827 | 16 | 360 | 4.8 | 12.9 | 0.00 | 0.00 | 0.00 | 81 | 1016.3 |
| 20260507064727 | 16 | 360 | 4.8 | 12.9 | 0.00 | 0.00 | 0.00 | 81 | 1016.4 |
| 20260507064648 | 16 | 360 | 3.2 | 12.9 | 0.00 | 0.00 | 0.00 | 81 | 1016.3 |
| 20260507064527 | 16 | 360 | 4.8 | 12.9 | 0.00 | 0.00 | 0.00 | 81 | 1016.3 |
| 20260507064427 | 16 | 360 | 4.8 | 12.9 | 0.00 | 0.00 | 0.00 | 81 | 1016.3 |
| 20260507064327 | 16 | 360 | 4.8 | 14.5 | 0.00 | 0.00 | 0.00 | 81 | 1016.4 |
| 20260507064232 | 16 | 76 | 4.8 | 14.5 | 0.00 | 0.00 | 0.00 | 81 | 1016.4 |
| 20260507064133 | 16 | 360 | 4.8 | 14.5 | 0.00 | 0.00 | 0.00 | 81 | 1016.4 |
| 20260507064033 | 16 | 360 | 6.4 | 14.5 | 0.00 | 0.00 | 0.00 | 81 | 1016.3 |
| 20260507063933 | 16 | 360 | 6.4 | 14.5 | 0.00 | 0.00 | 0.00 | 81 | 1016.4 |
| 20260507063833 | 16 | 360 | 6.4 | 20.9 | 0.00 | 0.00 | 0.00 | 81 | 1016.3 |
| 20260507063734 | 16 | 360 | 6.4 | 20.9 | 0.00 | 0.00 | 0.00 | 81 | 1016.3 |
| 20260507063618 | 16 | 66 | 6.4 | 20.9 | 0.00 | 0.00 | 0.00 | 81 | 1016.2 |
| 20260507063518 | 16 | 360 | 8.0 | 20.9 | 0.00 | 0.00 | 0.00 | 81 | 1016.2 |
| 20260507063419 | 16 | 360 | 8.0 | 20.9 | 0.00 | 0.00 | 0.00 | 81 | 1016.1 |
| 20260507063339 | 16 | 360 | 9.7 | 20.9 | 0.00 | 0.00 | 0.00 | 81 | 1016.2 |
| 20260507063219 | 16 | 360 | 9.7 | 20.9 | 0.00 | 0.00 | 0.00 | 81 | 1016.1 |
| 20260507063119 | 16 | 360 | 9.7 | 20.9 | 0.00 | 0.00 | 0.00 | 81 | 1016.2 |
| 20260507063019 | 16 | 360 | 8.0 | 19.3 | 0.00 | 0.00 | 0.00 | 81 | 1016.1 |
| 20260507062924 | 16 | 360 | 6.4 | 17.7 | 0.00 | 0.00 | 0.00 | 81 | 1016.1 |
| 20260507062845 | 16 | 360 | 8.0 | 17.7 | 0.00 | 0.00 | 0.00 | 81 | 1016.1 |
| 20260507062745 | 16 | 360 | 6.4 | 17.7 | 0.00 | 0.00 | 0.00 | 81 | 1016.0 |
| 20260507062624 | 16 | 360 | 6.4 | 17.7 | 0.00 | 0.00 | 0.00 | 81 | 1016.0 |
| 20260507062525 | 16 | 360 | 8.0 | 17.7 | 0.00 | 0.00 | 0.00 | 81 | 1015.9 |
| 20260507062425 | 16 | 360 | 8.0 | 17.7 | 0.00 | 0.00 | 0.00 | 81 | 1015.9 |
| 20260507062325 | 16 | 360 | 9.7 | 17.7 | 0.00 | 0.00 | 0.00 | 81 | 1016.0 |
| 20260507062226 | 16 | 360 | 9.7 | 17.7 | 0.00 | 0.00 | 0.00 | 81 | 1016.0 |
| 20260507062131 | 16 | 360 | 11.3 | 17.7 | 0.00 | 0.00 | 0.00 | 81 | 1016.0 |
| 20260507062052 | 16 | 360 | 11.3 | 17.7 | 0.00 | 0.00 | 0.00 | 81 | 1015.8 |
| 20260507061932 | 16 | 360 | 9.7 | 17.7 | 0.00 | 0.00 | 0.00 | 81 | 1015.7 |
| 20260507061833 | 16 | 360 | 9.7 | 17.7 | 0.00 | 0.00 | 0.00 | 81 | 1015.6 |
| 20260507061735 | 16 | 360 | 9.7 | 17.7 | 0.00 | 0.00 | 0.00 | 81 | 1015.5 |
| 20260507061655 | 16 | 360 | 8.0 | 16.1 | 0.00 | 0.00 | 0.00 | 81 | 1015.5 |
| 20260507061534 | 16 | 360 | 8.0 | 16.1 | 0.00 | 0.00 | 0.00 | 81 | 1015.6 |
| 20260507061418 | 16 | 360 | 8.0 | 14.5 | 0.00 | 0.00 | 0.00 | 81 | 1015.9 |
| 20260507061319 | 16 | 360 | 6.4 | 14.5 | 0.00 | 0.00 | 0.00 | 81 | 1015.9 |
| 20260507061219 | 16 | 360 | 6.4 | 14.5 | 0.00 | 0.00 | 0.00 | 81 | 1016.0 |
| 20260507061119 | 16 | 360 | 6.4 | 14.5 | 0.00 | 0.00 | 0.00 | 81 | 1016.1 |
| 20260507061019 | 16 | 360 | 4.8 | 12.9 | 0.00 | 0.00 | 0.00 | 81 | 1016.1 |
| 20260507060920 | 16 | 360 | 4.8 | 12.9 | 0.00 | 0.00 | 0.00 | 81 | 1016.2 |
| 20260507060825 | 16 | 360 | 4.8 | 12.9 | 0.00 | 0.00 | 0.00 | 81 | 1016.2 |
| 20260507060745 | 16 | 360 | 4.8 | 12.9 | 0.00 | 0.00 | 0.00 | 81 | 1016.4 |
| 20260507060624 | 16 | 360 | 4.8 | 12.9 | 0.00 | 0.00 | 0.00 | 81 | 1016.3 |
| 20260507060525 | 16 | 360 | 4.8 | 12.9 | 0.00 | 0.00 | 0.00 | 81 | 1016.3 |
| 20260507060425 | 16 | 360 | 6.4 | 12.9 | 0.00 | 0.00 | 0.00 | 81 | 1016.3 |
| 20260507060326 | 16 | 360 | 4.8 | 12.9 | 0.00 | 0.00 | 0.00 | 81 | 1016.3 |
| 20260507060227 | 16 | 13 | 4.8 | 14.5 | 0.00 | 0.00 | 0.00 | 81 | 1016.4 |
| 20260507060130 | 16 | 360 | 4.8 | 14.5 | 0.00 | 0.00 | 0.00 | 81 | 1016.3 |
| 20260507060051 | 16 | 360 | 4.8 | 14.5 | 0.00 | 0.00 | 0.00 | 81 | 1016.3 |
| 20260507055930 | 16 | 360 | 4.8 | 14.5 | 0.00 | 0.00 | 0.00 | 81 | 1016.3 |
| 20260507055830 | 16 | 360 | 6.4 | 14.5 | 0.00 | 0.00 | 0.00 | 81 | 1016.2 |
| 20260507055732 | 16 | 360 | 6.4 | 14.5 | 0.00 | 0.00 | 0.00 | 81 | 1016.1 |
| 20260507055649 | 16 | 360 | 6.4 | 14.5 | 0.00 | 0.00 | 0.00 | 81 | 1016.0 |
| 20260507055529 | 16 | 360 | 6.4 | 14.5 | 0.00 | 0.00 | 0.00 | 80 | 1016.0 |
| 20260507055429 | 16 | 360 | 8.0 | 14.5 | 0.00 | 0.00 | 0.00 | 80 | 1015.9 |
| 20260507055334 | 16 | 360 | 8.0 | 14.5 | 0.00 | 0.00 | 0.00 | 80 | 1015.9 |
| 20260507055234 | 16 | 360 | 8.0 | 14.5 | 0.00 | 0.00 | 0.00 | 80 | 1015.8 |
| 20260507055134 | 16 | 360 | 8.0 | 14.5 | 0.00 | 0.00 | 0.00 | 80 | 1015.8 |
| 20260507055034 | 16 | 360 | 6.4 | 14.5 | 0.00 | 0.00 | 0.00 | 80 | 1015.9 |
| 20260507054935 | 16 | 360 | 6.4 | 14.5 | 0.00 | 0.00 | 0.00 | 80 | 1015.9 |
| 20260507054856 | 16 | 360 | 6.4 | 14.5 | 0.00 | 0.00 | 0.00 | 80 | 1016.0 |
| 20260507054720 | 16 | 360 | 6.4 | 14.5 | 0.00 | 0.00 | 0.00 | 80 | 1016.0 |
| 20260507054620 | 16 | 360 | 6.4 | 14.5 | 0.00 | 0.00 | 0.00 | 80 | 1016.0 |
| 20260507054521 | 16 | 360 | 6.4 | 14.5 | 0.00 | 0.00 | 0.00 | 80 | 1016.0 |
| 20260507054421 | 16 | 360 | 6.4 | 14.5 | 0.00 | 0.00 | 0.00 | 80 | 1016.1 |
| 20260507054322 | 16 | 360 | 6.4 | 12.9 | 0.00 | 0.00 | 0.00 | 80 | 1016.2 |
| 20260507054222 | 16 | 360 | 6.4 | 12.9 | 0.00 | 0.00 | 0.00 | 80 | 1016.2 |
| 20260507054123 | 16 | 360 | 6.4 | 12.9 | 0.00 | 0.00 | 0.00 | 80 | 1016.3 |
| 20260507054028 | 16 | 360 | 6.4 | 12.9 | 0.00 | 0.00 | 0.00 | 80 | 1016.3 |
| 20260507053948 | 16 | 360 | 6.4 | 16.1 | 0.00 | 0.00 | 0.00 | 80 | 1016.4 |
| 20260507053828 | 16 | 360 | 6.4 | 16.1 | 0.00 | 0.00 | 0.00 | 80 | 1016.3 |
| 20260507053749 | 16 | 360 | 6.4 | 16.1 | 0.00 | 0.00 | 0.00 | 80 | 1016.2 |
| 20260507053628 | 16 | 360 | 6.4 | 16.1 | 0.00 | 0.00 | 0.00 | 80 | 1016.2 |
| 20260507053530 | 16 | 360 | 4.8 | 16.1 | 0.00 | 0.00 | 0.00 | 80 | 1016.2 |
| 20260507053431 | 16 | 360 | 6.4 | 16.1 | 0.00 | 0.00 | 0.00 | 80 | 1016.2 |
| 20260507053336 | 16 | 360 | 6.4 | 16.1 | 0.00 | 0.00 | 0.00 | 80 | 1016.2 |
| 20260507053255 | 16 | 360 | 6.4 | 16.1 | 0.00 | 0.00 | 0.00 | 80 | 1016.2 |
| 20260507053155 | 16 | 360 | 6.4 | 16.1 | 0.00 | 0.00 | 0.00 | 80 | 1016.3 |
| 20260507053035 | 16 | 360 | 6.4 | 16.1 | 0.00 | 0.00 | 0.00 | 80 | 1016.4 |
| 20260507052935 | 16 | 55 | 6.4 | 16.1 | 0.00 | 0.00 | 0.00 | 80 | 1016.4 |
| 20260507052856 | 16 | 360 | 6.4 | 16.1 | 0.00 | 0.00 | 0.00 | 80 | 1016.3 |
| 20260507052756 | 16 | 360 | 4.8 | 14.5 | 0.00 | 0.00 | 0.00 | 81 | 1016.3 |
| 20260507052634 | 16 | 360 | 6.4 | 14.5 | 0.00 | 0.00 | 0.00 | 80 | 1016.2 |
| 20260507052519 | 16 | 360 | 6.4 | 14.5 | 0.00 | 0.00 | 0.00 | 81 | 1016.2 |
| 20260507052419 | 16 | 360 | 6.4 | 14.5 | 0.00 | 0.00 | 0.00 | 81 | 1016.2 |
| 20260507052318 | 16 | 360 | 6.4 | 14.5 | 0.00 | 0.00 | 0.00 | 81 | 1016.2 |
| 20260507052219 | 16 | 360 | 6.4 | 19.3 | 0.00 | 0.00 | 0.00 | 80 | 1016.2 |
| 20260507052119 | 16 | 360 | 6.4 | 19.3 | 0.00 | 0.00 | 0.00 | 80 | 1016.1 |
| 20260507052019 | 16 | 360 | 8.0 | 19.3 | 0.00 | 0.00 | 0.00 | 80 | 1016.1 |
| 20260507051920 | 16 | 360 | 8.0 | 19.3 | 0.00 | 0.00 | 0.00 | 80 | 1016.1 |
| 20260507051824 | 16 | 360 | 8.0 | 19.3 | 0.00 | 0.00 | 0.00 | 80 | 1016.1 |
| 20260507051724 | 16 | 360 | 8.0 | 19.3 | 0.00 | 0.00 | 0.00 | 81 | 1016.0 |
| 20260507051625 | 16 | 360 | 8.0 | 19.3 | 0.00 | 0.00 | 0.00 | 81 | 1016.0 |
| 20260507051526 | 16 | 360 | 8.0 | 19.3 | 0.00 | 0.00 | 0.00 | 81 | 1016.0 |
| 20260507051428 | 16 | 360 | 8.0 | 17.7 | 0.00 | 0.00 | 0.00 | 81 | 1016.0 |
| 20260507051348 | 16 | 360 | 8.0 | 16.1 | 0.00 | 0.00 | 0.00 | 81 | 1016.0 |
| 20260507051226 | 16 | 360 | 8.0 | 16.1 | 0.00 | 0.00 | 0.00 | 81 | 1016.0 |
| 20260507051132 | 16 | 360 | 8.0 | 16.1 | 0.00 | 0.00 | 0.00 | 81 | 1016.0 |
| 20260507051033 | 16 | 360 | 8.0 | 16.1 | 0.00 | 0.00 | 0.00 | 81 | 1016.0 |
| 20260507050932 | 16 | 360 | 8.0 | 17.7 | 0.00 | 0.00 | 0.00 | 81 | 1016.0 |
| 20260507050833 | 16 | 360 | 8.0 | 17.7 | 0.00 | 0.00 | 0.00 | 81 | 1015.9 |
| 20260507050754 | 16 | 360 | 6.4 | 17.7 | 0.00 | 0.00 | 0.00 | 81 | 1015.8 |
| 20260507050632 | 16 | 360 | 8.0 | 17.7 | 0.00 | 0.00 | 0.00 | 81 | 1015.8 |
| 20260507050533 | 16 | 360 | 8.0 | 17.7 | 0.00 | 0.00 | 0.00 | 81 | 1016.0 |
| 20260507050418 | 16 | 360 | 8.0 | 17.7 | 0.00 | 0.00 | 0.00 | 81 | 1016.0 |
| 20260507050318 | 16 | 360 | 9.7 | 17.7 | 0.00 | 0.00 | 0.00 | 81 | 1015.9 |
| 20260507050218 | 16 | 38 | 9.7 | 17.7 | 0.00 | 0.00 | 0.00 | 81 | 1016.0 |
| 20260507050120 | 16 | 360 | 8.0 | 17.7 | 0.00 | 0.00 | 0.00 | 81 | 1015.9 |
| 20260507050042 | 16 | 360 | 8.0 | 16.1 | 0.00 | 0.00 | 0.00 | 81 | 1015.9 |
| 20260507045917 | 16 | 360 | 8.0 | 16.1 | 0.00 | 0.00 | 0.00 | 81 | 1015.8 |
| 20260507045823 | 16 | 360 | 6.4 | 16.1 | 0.00 | 0.00 | 0.00 | 81 | 1015.6 |
| 20260507045723 | 16 | 360 | 6.4 | 16.1 | 0.00 | 0.00 | 0.00 | 81 | 1015.8 |
| 20260507045623 | 16 | 360 | 8.0 | 16.1 | 0.00 | 0.00 | 0.00 | 81 | 1015.8 |
| 20260507045544 | 16 | 360 | 8.0 | 16.1 | 0.00 | 0.00 | 0.00 | 81 | 1015.8 |
| 20260507045423 | 16 | 360 | 8.0 | 16.1 | 0.00 | 0.00 | 0.00 | 81 | 1015.8 |
| 20260507045324 | 16 | 360 | 8.0 | 19.3 | 0.00 | 0.00 | 0.00 | 81 | 1015.9 |
| 20260507045225 | 16 | 360 | 9.7 | 19.3 | 0.00 | 0.00 | 0.00 | 81 | 1015.9 |
| 20260507045129 | 16 | 360 | 9.7 | 19.3 | 0.00 | 0.00 | 0.00 | 81 | 1015.9 |
| 20260507045049 | 16 | 360 | 9.7 | 19.3 | 0.00 | 0.00 | 0.00 | 81 | 1016.1 |
| 20260507044928 | 16 | 360 | 9.7 | 19.3 | 0.00 | 0.00 | 0.00 | 81 | 1016.1 |
| 20260507044828 | 16 | 360 | 9.7 | 19.3 | 0.00 | 0.00 | 0.00 | 81 | 1016.1 |
| 20260507044730 | 16 | 360 | 8.0 | 19.3 | 0.00 | 0.00 | 0.00 | 81 | 1016.1 |
| 20260507044630 | 16 | 360 | 8.0 | 19.3 | 0.00 | 0.00 | 0.00 | 81 | 1016.0 |
| 20260507044531 | 16 | 360 | 8.0 | 19.3 | 0.00 | 0.00 | 0.00 | 81 | 1016.1 |
| 20260507044436 | 16 | 360 | 9.7 | 19.3 | 0.00 | 0.00 | 0.00 | 81 | 1016.0 |
| 20260507044316 | 16 | 360 | 11.3 | 19.3 | 0.00 | 0.00 | 0.00 | 81 | 1016.0 |
| 20260507044217 | 16 | 360 | 11.3 | 19.3 | 0.00 | 0.00 | 0.00 | 81 | 1016.0 |
| 20260507044117 | 16 | 360 | 11.3 | 19.3 | 0.00 | 0.00 | 0.00 | 82 | 1016.0 |
| 20260507044018 | 16 | 360 | 9.7 | 19.3 | 0.00 | 0.00 | 0.00 | 82 | 1016.1 |
| 20260507043937 | 16 | 360 | 9.7 | 17.7 | 0.00 | 0.00 | 0.00 | 82 | 1016.0 |
| 20260507043818 | 16 | 360 | 9.7 | 17.7 | 0.00 | 0.00 | 0.00 | 82 | 1016.0 |
| 20260507043722 | 16 | 360 | 9.7 | 17.7 | 0.00 | 0.00 | 0.00 | 82 | 1015.9 |
| 20260507043623 | 16 | 360 | 9.7 | 17.7 | 0.00 | 0.00 | 0.00 | 82 | 1016.0 |
| 20260507043523 | 16 | 360 | 9.7 | 17.7 | 0.00 | 0.00 | 0.00 | 82 | 1016.0 |
| 20260507043423 | 16 | 360 | 9.7 | 17.7 | 0.00 | 0.00 | 0.00 | 82 | 1016.1 |
| 20260507043324 | 16 | 360 | 9.7 | 17.7 | 0.00 | 0.00 | 0.00 | 82 | 1016.0 |
| 20260507043223 | 16 | 360 | 9.7 | 17.7 | 0.00 | 0.00 | 0.00 | 82 | 1016.0 |
| 20260507043124 | 16 | 360 | 9.7 | 17.7 | 0.00 | 0.00 | 0.00 | 82 | 1015.9 |
| 20260507043049 | 16 | 360 | 9.7 | 17.7 | 0.00 | 0.00 | 0.00 | 82 | 1015.9 |
| 20260507042927 | 16 | 360 | 8.0 | 17.7 | 0.00 | 0.00 | 0.00 | 82 | 1016.0 |
| 20260507042828 | 16 | 360 | 8.0 | 17.7 | 0.00 | 0.00 | 0.00 | 82 | 1016.0 |
| 20260507042729 | 16 | 360 | 8.0 | 17.7 | 0.00 | 0.00 | 0.00 | 81 | 1016.1 |
| 20260507042629 | 16 | 360 | 8.0 | 17.7 | 0.00 | 0.00 | 0.00 | 81 | 1016.2 |
| 20260507042529 | 16 | 360 | 8.0 | 17.7 | 0.00 | 0.00 | 0.00 | 81 | 1016.2 |
| 20260507042430 | 16 | 360 | 9.7 | 17.7 | 0.00 | 0.00 | 0.00 | 81 | 1016.2 |
| 20260507042334 | 16 | 360 | 9.7 | 17.7 | 0.00 | 0.00 | 0.00 | 81 | 1016.2 |
| 20260507042235 | 16 | 360 | 8.0 | 17.7 | 0.00 | 0.00 | 0.00 | 82 | 1016.1 |
| 20260507042135 | 16 | 360 | 9.7 | 17.7 | 0.00 | 0.00 | 0.00 | 82 | 1016.1 |
| 20260507042035 | 16 | 360 | 8.0 | 17.7 | 0.00 | 0.00 | 0.00 | 82 | 1016.1 |
| 20260507041916 | 16 | 360 | 8.0 | 17.7 | 0.00 | 0.00 | 0.00 | 81 | 1016.2 |
| 20260507041816 | 16 | 360 | 8.0 | 20.9 | 0.00 | 0.00 | 0.00 | 81 | 1016.2 |
| 20260507041721 | 16 | 360 | 8.0 | 20.9 | 0.00 | 0.00 | 0.00 | 81 | 1016.2 |
| 20260507041621 | 16 | 360 | 8.0 | 20.9 | 0.00 | 0.00 | 0.00 | 81 | 1016.2 |
| 20260507041541 | 16 | 360 | 8.0 | 20.9 | 0.00 | 0.00 | 0.00 | 81 | 1016.1 |
| 20260507041421 | 16 | 360 | 6.4 | 20.9 | 0.00 | 0.00 | 0.00 | 82 | 1016.1 |
| 20260507041322 | 16 | 360 | 6.4 | 20.9 | 0.00 | 0.00 | 0.00 | 82 | 1016.0 |
| 20260507041222 | 16 | 360 | 6.4 | 20.9 | 0.00 | 0.00 | 0.00 | 82 | 1015.9 |
| 20260507041143 | 16 | 360 | 6.4 | 20.9 | 0.00 | 0.00 | 0.00 | 82 | 1015.9 |
| 20260507041027 | 16 | 18 | 6.4 | 20.9 | 0.00 | 0.00 | 0.00 | 82 | 1015.8 |
| 20260507040927 | 16 | 360 | 8.0 | 20.9 | 0.00 | 0.00 | 0.00 | 81 | 1015.8 |
| 20260507040827 | 16 | 360 | 11.3 | 20.9 | 0.00 | 0.00 | 0.00 | 82 | 1015.8 |
| 20260507040728 | 16 | 360 | 11.3 | 20.9 | 0.00 | 0.00 | 0.00 | 82 | 1015.7 |
| 20260507040627 | 16 | 360 | 11.3 | 20.9 | 0.00 | 0.00 | 0.00 | 82 | 1015.6 |
| 20260507040528 | 16 | 360 | 11.3 | 20.9 | 0.00 | 0.00 | 0.00 | 82 | 1015.6 |
| 20260507040429 | 16 | 360 | 9.7 | 20.9 | 0.00 | 0.00 | 0.00 | 82 | 1015.6 |
| 20260507040332 | 16 | 360 | 9.7 | 17.7 | 0.00 | 0.00 | 0.00 | 82 | 1015.7 |
| 20260507040233 | 16 | 360 | 9.7 | 17.7 | 0.00 | 0.00 | 0.00 | 82 | 1015.7 |
| 20260507040133 | 16 | 360 | 9.7 | 17.7 | 0.00 | 0.00 | 0.00 | 82 | 1015.7 |
| 20260507040034 | 16 | 360 | 9.7 | 19.3 | 0.00 | 0.00 | 0.00 | 82 | 1015.7 |
| 20260507035934 | 16 | 360 | 8.0 | 19.3 | 0.00 | 0.00 | 0.00 | 82 | 1015.8 |
| 20260507035836 | 16 | 360 | 8.0 | 19.3 | 0.00 | 0.00 | 0.00 | 82 | 1015.8 |
| 20260507035719 | 16 | 360 | 6.4 | 19.3 | 0.00 | 0.00 | 0.00 | 82 | 1015.9 |
| 20260507035619 | 16 | 360 | 6.4 | 19.3 | 0.00 | 0.00 | 0.00 | 82 | 1015.9 |
| 20260507035519 | 16 | 360 | 6.4 | 19.3 | 0.00 | 0.00 | 0.00 | 81 | 1016.0 |
| 20260507035438 | 16 | 360 | 6.4 | 19.3 | 0.00 | 0.00 | 0.00 | 81 | 1015.8 |
| 20260507035338 | 16 | 360 | 8.0 | 19.3 | 0.00 | 0.00 | 0.00 | 81 | 1015.9 |
| 20260507035218 | 16 | 360 | 9.7 | 19.3 | 0.00 | 0.00 | 0.00 | 81 | 1015.9 |
| 20260507035119 | 16 | 360 | 9.7 | 19.3 | 0.00 | 0.00 | 0.00 | 81 | 1015.8 |
| 20260507035019 | 16 | 360 | 11.3 | 19.3 | 0.00 | 0.00 | 0.00 | 81 | 1015.9 |
| 20260507034920 | 16 | 360 | 11.3 | 19.3 | 0.00 | 0.00 | 0.00 | 81 | 1015.9 |
| 20260507034824 | 16 | 360 | 11.3 | 19.3 | 0.00 | 0.00 | 0.00 | 81 | 1016.0 |
| 20260507034724 | 16 | 360 | 9.7 | 19.3 | 0.00 | 0.00 | 0.00 | 81 | 1016.1 |
| 20260507034625 | 16 | 360 | 9.7 | 17.7 | 0.00 | 0.00 | 0.00 | 81 | 1016.1 |
| 20260507034545 | 16 | 360 | 8.0 | 17.7 | 0.00 | 0.00 | 0.00 | 81 | 1016.0 |
| 20260507034424 | 16 | 17 | 9.7 | 17.7 | 0.00 | 0.00 | 0.00 | 81 | 1016.1 |
| 20260507034324 | 16 | 360 | 9.7 | 17.7 | 0.00 | 0.00 | 0.00 | 81 | 1016.1 |
| 20260507034225 | 16 | 360 | 9.7 | 17.7 | 0.00 | 0.00 | 0.00 | 81 | 1016.2 |
| 20260507034128 | 16 | 360 | 9.7 | 17.7 | 0.00 | 0.00 | 0.00 | 82 | 1016.2 |
| 20260507034029 | 16 | 360 | 9.7 | 17.7 | 0.00 | 0.00 | 0.00 | 82 | 1016.1 |
| 20260507033950 | 16 | 360 | 9.7 | 17.7 | 0.00 | 0.00 | 0.00 | 81 | 1016.0 |
| 20260507033849 | 16 | 360 | 9.7 | 17.7 | 0.00 | 0.00 | 0.00 | 82 | 1015.8 |
| 20260507033728 | 16 | 360 | 9.7 | 16.1 | 0.00 | 0.00 | 0.00 | 81 | 1015.8 |
| 20260507033649 | 16 | 360 | 9.7 | 16.1 | 0.00 | 0.00 | 0.00 | 81 | 1015.8 |
| 20260507033529 | 16 | 360 | 9.7 | 16.1 | 0.00 | 0.00 | 0.00 | 81 | 1015.8 |
| 20260507033429 | 16 | 360 | 9.7 | 16.1 | 0.00 | 0.00 | 0.00 | 81 | 1015.9 |
| 20260507033333 | 16 | 360 | 8.0 | 14.5 | 0.00 | 0.00 | 0.00 | 81 | 1015.9 |
| 20260507033234 | 16 | 360 | 8.0 | 14.5 | 0.00 | 0.00 | 0.00 | 81 | 1015.8 |
| 20260507033135 | 16 | 360 | 8.0 | 19.3 | 0.00 | 0.00 | 0.00 | 81 | 1015.8 |
| 20260507033035 | 16 | 360 | 8.0 | 19.3 | 0.00 | 0.00 | 0.00 | 81 | 1015.8 |
| 20260507032917 | 16 | 360 | 8.0 | 19.3 | 0.00 | 0.00 | 0.00 | 81 | 1015.9 |
| 20260507032819 | 16 | 360 | 8.0 | 19.3 | 0.00 | 0.00 | 0.00 | 81 | 1015.9 |
| 20260507032744 | 16 | 360 | 8.0 | 19.3 | 0.00 | 0.00 | 0.00 | 81 | 1015.9 |
| 20260507032622 | 16 | 360 | 8.0 | 20.9 | 0.00 | 0.00 | 0.00 | 81 | 1016.0 |
| 20260507032523 | 16 | 360 | 8.0 | 20.9 | 0.00 | 0.00 | 0.00 | 81 | 1015.9 |
| 20260507032443 | 16 | 360 | 9.7 | 20.9 | 0.00 | 0.00 | 0.00 | 81 | 1015.9 |
| 20260507032323 | 16 | 360 | 9.7 | 20.9 | 0.00 | 0.00 | 0.00 | 81 | 1015.9 |
| 20260507032224 | 16 | 360 | 11.3 | 20.9 | 0.00 | 0.00 | 0.00 | 81 | 1015.8 |
| 20260507032144 | 16 | 360 | 11.3 | 20.9 | 0.00 | 0.00 | 0.00 | 81 | 1015.7 |
| 20260507032022 | 16 | 360 | 11.3 | 20.9 | 0.00 | 0.00 | 0.00 | 81 | 1015.6 |
| 20260507031928 | 16 | 360 | 11.3 | 20.9 | 0.00 | 0.00 | 0.00 | 82 | 1015.6 |
| 20260507031829 | 16 | 360 | 11.3 | 20.9 | 0.00 | 0.00 | 0.00 | 82 | 1015.6 |
| 20260507031728 | 16 | 360 | 11.3 | 20.9 | 0.00 | 0.00 | 0.00 | 82 | 1015.5 |
| 20260507031649 | 16 | 360 | 11.3 | 20.9 | 0.00 | 0.00 | 0.00 | 82 | 1015.5 |
| 20260507031527 | 16 | 360 | 9.7 | 19.3 | 0.00 | 0.00 | 0.00 | 82 | 1015.5 |
| 20260507031429 | 16 | 360 | 8.0 | 17.7 | 0.00 | 0.00 | 0.00 | 82 | 1015.5 |
| 20260507031329 | 16 | 360 | 8.0 | 17.7 | 0.00 | 0.00 | 0.00 | 82 | 1015.5 |
| 20260507031235 | 16 | 360 | 9.7 | 17.7 | 0.00 | 0.00 | 0.00 | 82 | 1015.5 |
| 20260507031116 | 16 | 360 | 9.7 | 17.7 | 0.00 | 0.00 | 0.00 | 82 | 1015.5 |
| 20260507031036 | 16 | 360 | 9.7 | 17.7 | 0.00 | 0.00 | 0.00 | 82 | 1015.5 |
| 20260507030956 | 16 | 360 | 9.7 | 17.7 | 0.00 | 0.00 | 0.00 | 82 | 1015.6 |
| 20260507030816 | 16 | 360 | 8.0 | 17.7 | 0.00 | 0.00 | 0.00 | 81 | 1015.6 |
| 20260507030736 | 16 | 360 | 9.7 | 17.7 | 0.00 | 0.00 | 0.00 | 82 | 1015.6 |
| 20260507030616 | 16 | 360 | 8.0 | 17.7 | 0.00 | 0.00 | 0.00 | 82 | 1015.8 |
| 20260507030521 | 16 | 360 | 9.7 | 17.7 | 0.00 | 0.00 | 0.00 | 82 | 1015.8 |
| 20260507030422 | 16 | 360 | 9.7 | 17.7 | 0.00 | 0.00 | 0.00 | 82 | 1015.8 |
| 20260507030342 | 16 | 360 | 9.7 | 17.7 | 0.00 | 0.00 | 0.00 | 82 | 1015.8 |
| 20260507030218 | 16 | 360 | 9.7 | 16.1 | 0.00 | 0.00 | 0.00 | 82 | 1015.9 |
| 20260507030119 | 16 | 360 | 9.7 | 16.1 | 0.00 | 0.00 | 0.00 | 82 | 1015.9 |
| 20260507030019 | 16 | 360 | 9.7 | 16.1 | 0.00 | 0.00 | 0.00 | 82 | 1016.0 |
| 20260507025919 | 16 | 360 | 9.7 | 16.1 | 0.00 | 0.00 | 0.00 | 82 | 1015.8 |
| 20260507025844 | 16 | 360 | 9.7 | 16.1 | 0.00 | 0.00 | 0.00 | 82 | 1015.9 |
| 20260507025723 | 16 | 360 | 9.7 | 16.1 | 0.00 | 0.00 | 0.00 | 82 | 1015.9 |
| 20260507025623 | 16 | 360 | 8.0 | 16.1 | 0.00 | 0.00 | 0.00 | 82 | 1015.8 |
| 20260507025543 | 16 | 360 | 8.0 | 16.1 | 0.00 | 0.00 | 0.00 | 82 | 1015.7 |
| 20260507025423 | 16 | 360 | 8.0 | 17.7 | 0.00 | 0.00 | 0.00 | 82 | 1015.6 |
| 20260507025324 | 16 | 360 | 6.4 | 17.7 | 0.00 | 0.00 | 0.00 | 82 | 1015.6 |
| 20260507025223 | 16 | 360 | 6.4 | 17.7 | 0.00 | 0.00 | 0.00 | 82 | 1015.5 |
| 20260507025145 | 16 | 360 | 6.4 | 20.9 | 0.00 | 0.00 | 0.00 | 82 | 1015.6 |
| 20260507025028 | 16 | 360 | 8.0 | 20.9 | 0.00 | 0.00 | 0.00 | 82 | 1015.6 |
| 20260507024929 | 16 | 360 | 9.7 | 20.9 | 0.00 | 0.00 | 0.00 | 82 | 1015.6 |
| 20260507024829 | 16 | 360 | 9.7 | 20.9 | 0.00 | 0.00 | 0.00 | 82 | 1015.6 |
| 20260507024730 | 16 | 360 | 11.3 | 20.9 | 0.00 | 0.00 | 0.00 | 82 | 1015.4 |
| 20260507024630 | 16 | 360 | 11.3 | 20.9 | 0.00 | 0.00 | 0.00 | 81 | 1015.4 |
| 20260507024530 | 16 | 360 | 9.7 | 20.9 | 0.00 | 0.00 | 0.00 | 81 | 1015.3 |
| 20260507024431 | 16 | 360 | 9.7 | 20.9 | 0.00 | 0.00 | 0.00 | 81 | 1015.3 |
| 20260507024316 | 16 | 360 | 9.7 | 19.3 | 0.00 | 0.00 | 0.00 | 81 | 1015.2 |
| 20260507024237 | 16 | 360 | 9.7 | 17.7 | 0.00 | 0.00 | 0.00 | 81 | 1015.2 |
| 20260507024135 | 16 | 360 | 9.7 | 17.7 | 0.00 | 0.00 | 0.00 | 82 | 1015.2 |
| 20260507024016 | 16 | 360 | 8.0 | 17.7 | 0.00 | 0.00 | 0.00 | 81 | 1015.1 |
| 20260507023937 | 16 | 360 | 8.0 | 17.7 | 0.00 | 0.00 | 0.00 | 81 | 1015.2 |
| 20260507023816 | 16 | 360 | 8.0 | 17.7 | 0.00 | 0.00 | 0.00 | 81 | 1015.3 |
| 20260507023717 | 16 | 360 | 8.0 | 17.7 | 0.00 | 0.00 | 0.00 | 81 | 1015.3 |
| 20260507023621 | 16 | 360 | 8.0 | 19.3 | 0.00 | 0.00 | 0.00 | 81 | 1015.3 |
| 20260507023522 | 16 | 360 | 8.0 | 19.3 | 0.00 | 0.00 | 0.00 | 81 | 1015.5 |
| 20260507023442 | 17 | 360 | 9.7 | 19.3 | 0.00 | 0.00 | 0.00 | 81 | 1015.4 |
| 20260507023342 | 17 | 360 | 9.7 | 19.3 | 0.00 | 0.00 | 0.00 | 81 | 1015.4 |
| 20260507023221 | 17 | 360 | 9.7 | 19.3 | 0.00 | 0.00 | 0.00 | 81 | 1015.3 |
| 20260507023122 | 17 | 360 | 9.7 | 19.3 | 0.00 | 0.00 | 0.00 | 81 | 1015.3 |
| 20260507023023 | 16 | 360 | 9.7 | 19.3 | 0.00 | 0.00 | 0.00 | 81 | 1015.2 |
| 20260507022943 | 17 | 360 | 9.7 | 19.3 | 0.00 | 0.00 | 0.00 | 81 | 1015.1 |
| 20260507022827 | 17 | 360 | 9.7 | 19.3 | 0.00 | 0.00 | 0.00 | 81 | 1015.1 |
| 20260507022729 | 17 | 360 | 9.7 | 22.5 | 0.00 | 0.00 | 0.00 | 81 | 1015.1 |
| 20260507022627 | 17 | 360 | 11.3 | 22.5 | 0.00 | 0.00 | 0.00 | 81 | 1015.1 |
| 20260507022548 | 17 | 360 | 11.3 | 22.5 | 0.00 | 0.00 | 0.00 | 81 | 1015.1 |
| 20260507022427 | 17 | 360 | 11.3 | 22.5 | 0.00 | 0.00 | 0.00 | 81 | 1015.1 |
| 20260507022328 | 17 | 360 | 12.9 | 22.5 | 0.00 | 0.00 | 0.00 | 81 | 1015.0 |
| 20260507022228 | 17 | 360 | 12.9 | 22.5 | 0.00 | 0.00 | 0.00 | 81 | 1015.0 |
| 20260507022153 | 17 | 360 | 12.9 | 22.5 | 0.00 | 0.00 | 0.00 | 81 | 1015.0 |
| 20260507022033 | 17 | 360 | 12.9 | 22.5 | 0.00 | 0.00 | 0.00 | 81 | 1015.1 |
| 20260507021933 | 17 | 360 | 11.3 | 20.9 | 0.00 | 0.00 | 0.00 | 81 | 1015.1 |
| 20260507021854 | 17 | 360 | 11.3 | 19.3 | 0.00 | 0.00 | 0.00 | 81 | 1015.1 |
| 20260507021732 | 17 | 360 | 11.3 | 19.3 | 0.00 | 0.00 | 0.00 | 81 | 1015.1 |
| 20260507021653 | 17 | 360 | 11.3 | 17.7 | 0.00 | 0.00 | 0.00 | 81 | 1015.0 |
| 20260507021533 | 17 | 360 | 11.3 | 17.7 | 0.00 | 0.00 | 0.00 | 81 | 1015.0 |
| 20260507021417 | 17 | 360 | 11.3 | 17.7 | 0.00 | 0.00 | 0.00 | 81 | 1014.9 |
| 20260507021317 | 17 | 360 | 9.7 | 17.7 | 0.00 | 0.00 | 0.00 | 81 | 1014.9 |
| 20260507021239 | 17 | 360 | 9.7 | 17.7 | 0.00 | 0.00 | 0.00 | 81 | 1014.7 |
| 20260507021138 | 17 | 360 | 9.7 | 17.7 | 0.00 | 0.00 | 0.00 | 81 | 1014.8 |
| 20260507021017 | 17 | 360 | 9.7 | 17.7 | 0.00 | 0.00 | 0.00 | 81 | 1014.8 |
| 20260507020918 | 17 | 360 | 9.7 | 17.7 | 0.00 | 0.00 | 0.00 | 81 | 1014.8 |
| 20260507020818 | 17 | 360 | 11.3 | 17.7 | 0.00 | 0.00 | 0.00 | 81 | 1014.8 |
| 20260507020740 | 17 | 360 | 11.3 | 17.7 | 0.00 | 0.00 | 0.00 | 81 | 1014.9 |
| 20260507020638 | 17 | 360 | 9.7 | 17.7 | 0.00 | 0.00 | 0.00 | 81 | 1014.8 |
| 20260507020522 | 17 | 360 | 8.0 | 17.7 | 0.00 | 0.00 | 0.00 | 81 | 1014.8 |
| 20260507020442 | 17 | 360 | 8.0 | 17.7 | 0.00 | 0.00 | 0.00 | 81 | 1014.8 |
| 20260507020322 | 17 | 360 | 8.0 | 17.7 | 0.00 | 0.00 | 0.00 | 81 | 1014.8 |
| 20260507020222 | 17 | 360 | 8.0 | 17.7 | 0.00 | 0.00 | 0.00 | 81 | 1014.9 |
| 20260507020142 | 17 | 360 | 9.7 | 17.7 | 0.00 | 0.00 | 0.00 | 81 | 1014.8 |
| 20260507020022 | 17 | 360 | 9.7 | 17.7 | 0.00 | 0.00 | 0.00 | 81 | 1014.7 |
| 20260507015922 | 17 | 360 | 11.3 | 17.7 | 0.00 | 0.00 | 0.00 | 81 | 1014.7 |
| 20260507015827 | 17 | 360 | 11.3 | 17.7 | 0.00 | 0.00 | 0.00 | 80 | 1014.7 |
| 20260507015729 | 17 | 360 | 9.7 | 17.7 | 0.00 | 0.00 | 0.00 | 80 | 1014.7 |
| 20260507015649 | 17 | 360 | 9.7 | 17.7 | 0.00 | 0.00 | 0.00 | 80 | 1014.7 |
| 20260507015548 | 17 | 360 | 8.0 | 17.7 | 0.00 | 0.00 | 0.00 | 80 | 1014.7 |
| 20260507015427 | 17 | 360 | 6.4 | 17.7 | 0.00 | 0.00 | 0.00 | 80 | 1014.8 |
| 20260507015326 | 17 | 360 | 6.4 | 14.5 | 0.00 | 0.00 | 0.00 | 80 | 1014.8 |
| 20260507015228 | 17 | 360 | 6.4 | 16.1 | 0.00 | 0.00 | 0.00 | 80 | 1014.7 |
| 20260507015127 | 17 | 360 | 4.8 | 16.1 | 0.00 | 0.00 | 0.00 | 80 | 1014.6 |
| 20260507015032 | 17 | 360 | 4.8 | 16.1 | 0.00 | 0.00 | 0.00 | 80 | 1014.6 |
| 20260507014933 | 17 | 360 | 6.4 | 16.1 | 0.00 | 0.00 | 0.00 | 80 | 1014.6 |
| 20260507014832 | 17 | 360 | 6.4 | 16.1 | 0.00 | 0.00 | 0.00 | 80 | 1014.6 |
| 20260507014753 | 17 | 360 | 6.4 | 16.1 | 0.00 | 0.00 | 0.00 | 80 | 1014.6 |
| 20260507014653 | 17 | 360 | 8.0 | 16.1 | 0.00 | 0.00 | 0.00 | 80 | 1014.7 |
| 20260507014531 | 17 | 360 | 8.0 | 16.1 | 0.00 | 0.00 | 0.00 | 80 | 1014.6 |
| 20260507014453 | 17 | 360 | 8.0 | 16.1 | 0.00 | 0.00 | 0.00 | 80 | 1014.6 |
| 20260507014331 | 17 | 360 | 8.0 | 16.1 | 0.00 | 0.00 | 0.00 | 80 | 1014.6 |
| 20260507014252 | 17 | 360 | 8.0 | 16.1 | 0.00 | 0.00 | 0.00 | 80 | 1014.6 |
| 20260507014136 | 17 | 360 | 8.0 | 16.1 | 0.00 | 0.00 | 0.00 | 80 | 1014.6 |
| 20260507014056 | 17 | 360 | 8.0 | 16.1 | 0.00 | 0.00 | 0.00 | 80 | 1014.5 |
| 20260507013915 | 17 | 360 | 9.7 | 16.1 | 0.00 | 0.00 | 0.00 | 80 | 1014.5 |
| 20260507013835 | 17 | 360 | 9.7 | 16.1 | 0.00 | 0.00 | 0.00 | 80 | 1014.5 |
| 20260507013716 | 17 | 360 | 9.7 | 16.1 | 0.00 | 0.00 | 0.00 | 80 | 1014.4 |
| 20260507013616 | 17 | 360 | 11.3 | 16.1 | 0.00 | 0.00 | 0.00 | 80 | 1014.3 |
| 20260507013516 | 17 | 360 | 9.7 | 17.7 | 0.00 | 0.00 | 0.00 | 80 | 1014.2 |
| 20260507013421 | 17 | 360 | 9.7 | 19.3 | 0.00 | 0.00 | 0.00 | 80 | 1014.2 |
| 20260507013322 | 17 | 360 | 8.0 | 19.3 | 0.00 | 0.00 | 0.00 | 80 | 1014.2 |
| 20260507013223 | 17 | 360 | 8.0 | 19.3 | 0.00 | 0.00 | 0.00 | 80 | 1014.1 |
| 20260507013123 | 17 | 360 | 8.0 | 19.3 | 0.00 | 0.00 | 0.00 | 80 | 1014.2 |
| 20260507013024 | 17 | 360 | 8.0 | 19.3 | 0.00 | 0.00 | 0.00 | 80 | 1014.2 |
| 20260507012924 | 17 | 360 | 9.7 | 19.3 | 0.00 | 0.00 | 0.00 | 80 | 1014.2 |
| 20260507012844 | 17 | 360 | 9.7 | 19.3 | 0.00 | 0.00 | 0.00 | 80 | 1014.3 |
| 20260507012730 | 17 | 360 | 11.3 | 19.3 | 0.00 | 0.00 | 0.00 | 80 | 1014.3 |
| 20260507012650 | 17 | 360 | 11.3 | 19.3 | 0.00 | 0.00 | 0.00 | 80 | 1014.3 |
| 20260507012530 | 17 | 360 | 11.3 | 19.3 | 0.00 | 0.00 | 0.00 | 80 | 1014.3 |
| 20260507012450 | 17 | 360 | 11.3 | 19.3 | 0.00 | 0.00 | 0.00 | 80 | 1014.3 |
| 20260507012328 | 17 | 360 | 9.7 | 19.3 | 0.00 | 0.00 | 0.00 | 80 | 1014.3 |
| 20260507012226 | 17 | 360 | 9.7 | 17.7 | 0.00 | 0.00 | 0.00 | 80 | 1014.2 |
| 20260507012147 | 17 | 360 | 9.7 | 22.5 | 0.00 | 0.00 | 0.00 | 80 | 1014.2 |
| 20260507012026 | 17 | 360 | 9.7 | 22.5 | 0.00 | 0.00 | 0.00 | 80 | 1014.0 |
| 20260507011927 | 17 | 360 | 9.7 | 22.5 | 0.00 | 0.00 | 0.00 | 80 | 1014.0 |
| 20260507011832 | 17 | 360 | 9.7 | 22.5 | 0.00 | 0.00 | 0.00 | 80 | 1014.1 |
| 20260507011753 | 17 | 360 | 9.7 | 22.5 | 0.00 | 0.00 | 0.00 | 80 | 1014.1 |
| 20260507011634 | 17 | 360 | 9.7 | 22.5 | 0.00 | 0.00 | 0.00 | 80 | 1014.1 |
| 20260507011535 | 17 | 360 | 9.7 | 22.5 | 0.00 | 0.00 | 0.00 | 80 | 1014.1 |
| 20260507011415 | 17 | 360 | 11.3 | 22.5 | 0.00 | 0.00 | 0.00 | 80 | 1014.1 |
| 20260507011336 | 17 | 360 | 11.3 | 22.5 | 0.00 | 0.00 | 0.00 | 80 | 1014.1 |
| 20260507011119 | 17 | 360 | 12.9 | 20.9 | 0.00 | 0.00 | 0.00 | 80 | 1014.1 |
| 20260507011020 | 17 | 360 | 11.3 | 20.9 | 0.00 | 0.00 | 0.00 | 80 | 1014.2 |
| 20260507010920 | 17 | 360 | 11.3 | 22.5 | 0.00 | 0.00 | 0.00 | 80 | 1014.2 |
| 20260507010820 | 17 | 360 | 11.3 | 22.5 | 0.00 | 0.00 | 0.00 | 80 | 1014.2 |
| 20260507010721 | 17 | 360 | 12.9 | 22.5 | 0.00 | 0.00 | 0.00 | 80 | 1014.3 |
| 20260507010620 | 17 | 360 | 12.9 | 24.1 | 0.00 | 0.00 | 0.00 | 80 | 1014.0 |
| 20260507010521 | 17 | 360 | 12.9 | 24.1 | 0.00 | 0.00 | 0.00 | 80 | 1013.9 |
| 20260507010424 | 17 | 360 | 12.9 | 24.1 | 0.00 | 0.00 | 0.00 | 80 | 1013.8 |
| 20260507010325 | 17 | 360 | 12.9 | 24.1 | 0.00 | 0.00 | 0.00 | 80 | 1013.7 |
| 20260507010246 | 17 | 360 | 12.9 | 24.1 | 0.00 | 0.00 | 0.00 | 80 | 1013.8 |
| 20260507010125 | 17 | 360 | 12.9 | 24.1 | 0.00 | 0.00 | 0.00 | 80 | 1013.9 |
| 20260507010026 | 17 | 31 | 12.9 | 24.1 | 0.00 | 0.00 | 0.00 | 80 | 1013.9 |
| 20260507005925 | 17 | 360 | 11.3 | 24.1 | 0.00 | 0.00 | 0.00 | 80 | 1013.9 |
| 20260507005826 | 17 | 360 | 12.9 | 24.1 | 0.00 | 0.00 | 0.00 | 80 | 1014.0 |
| 20260507005731 | 17 | 360 | 12.9 | 24.1 | 0.00 | 0.00 | 0.00 | 80 | 1014.0 |
| 20260507005631 | 17 | 360 | 11.3 | 19.3 | 0.00 | 0.00 | 0.00 | 80 | 1014.0 |
| 20260507005531 | 17 | 360 | 11.3 | 19.3 | 0.00 | 0.00 | 0.00 | 80 | 1014.0 |
| 20260507005431 | 17 | 360 | 11.3 | 19.3 | 0.00 | 0.00 | 0.00 | 80 | 1014.1 |
| 20260507005332 | 17 | 360 | 9.7 | 19.3 | 0.00 | 0.00 | 0.00 | 80 | 1014.1 |
| 20260507005233 | 17 | 360 | 9.7 | 19.3 | 0.00 | 0.00 | 0.00 | 80 | 1014.1 |
| 20260507005117 | 17 | 360 | 9.7 | 19.3 | 0.00 | 0.00 | 0.00 | 80 | 1013.9 |
| 20260507005037 | 17 | 360 | 9.7 | 17.7 | 0.00 | 0.00 | 0.00 | 80 | 1013.8 |
| 20260507004936 | 17 | 360 | 9.7 | 17.7 | 0.00 | 0.00 | 0.00 | 80 | 1013.8 |
| 20260507004856 | 17 | 360 | 11.3 | 19.3 | 0.00 | 0.00 | 0.00 | 80 | 1013.9 |
| 20260507004735 | 17 | 360 | 11.3 | 19.3 | 0.00 | 0.00 | 0.00 | 80 | 1013.9 |
| 20260507004616 | 17 | 360 | 9.7 | 22.5 | 0.00 | 0.00 | 0.00 | 80 | 1013.8 |
| 20260507004516 | 17 | 360 | 9.7 | 22.5 | 0.00 | 0.00 | 0.00 | 80 | 1013.9 |
| 20260507004421 | 17 | 360 | 9.7 | 22.5 | 0.00 | 0.00 | 0.00 | 80 | 1013.8 |
| 20260507004322 | 17 | 360 | 11.3 | 22.5 | 0.00 | 0.00 | 0.00 | 80 | 1013.8 |
| 20260507004221 | 17 | 360 | 11.3 | 22.5 | 0.00 | 0.00 | 0.00 | 80 | 1013.8 |
| 20260507004122 | 17 | 360 | 11.3 | 22.5 | 0.00 | 0.00 | 0.00 | 80 | 1013.9 |
| 20260507004025 | 17 | 360 | 11.3 | 22.5 | 0.00 | 0.00 | 0.00 | 80 | 1013.9 |
| 20260507003945 | 17 | 360 | 11.3 | 22.5 | 0.00 | 0.00 | 0.00 | 80 | 1013.8 |
| 20260507003824 | 17 | 360 | 11.3 | 22.5 | 0.00 | 0.00 | 0.00 | 80 | 1013.7 |
| 20260507003745 | 17 | 360 | 9.7 | 22.5 | 0.00 | 0.00 | 0.00 | 80 | 1013.7 |
| 20260507003629 | 17 | 360 | 11.3 | 22.5 | 0.00 | 0.00 | 0.00 | 80 | 1013.7 |
| 20260507003528 | 17 | 360 | 11.3 | 22.5 | 0.00 | 0.00 | 0.00 | 79 | 1013.4 |
| 20260507003449 | 17 | 360 | 11.3 | 27.4 | 0.00 | 0.00 | 0.00 | 79 | 1013.3 |
| 20260507003328 | 17 | 360 | 12.9 | 27.4 | 0.00 | 0.00 | 0.00 | 79 | 1013.3 |
| 20260507003249 | 17 | 360 | 12.9 | 27.4 | 0.00 | 0.00 | 0.00 | 79 | 1013.3 |
| 20260507003126 | 17 | 360 | 12.9 | 27.4 | 0.00 | 0.00 | 0.00 | 79 | 1013.5 |
| 20260507003028 | 17 | 360 | 12.9 | 27.4 | 0.00 | 0.00 | 0.00 | 79 | 1013.5 |
| 20260507002928 | 17 | 360 | 14.5 | 27.4 | 0.00 | 0.00 | 0.00 | 79 | 1013.7 |
| 20260507002828 | 17 | 360 | 14.5 | 27.4 | 0.00 | 0.00 | 0.00 | 79 | 1013.7 |
| 20260507002733 | 17 | 360 | 12.9 | 27.4 | 0.00 | 0.00 | 0.00 | 79 | 1013.8 |
| 20260507002633 | 17 | 360 | 11.3 | 27.4 | 0.00 | 0.00 | 0.00 | 79 | 1013.8 |
| 20260507002532 | 17 | 360 | 11.3 | 25.7 | 0.00 | 0.00 | 0.00 | 79 | 1013.8 |
| 20260507002433 | 17 | 360 | 11.3 | 25.7 | 0.00 | 0.00 | 0.00 | 79 | 1013.6 |
| 20260507002333 | 17 | 360 | 11.3 | 25.7 | 0.00 | 0.00 | 0.00 | 79 | 1013.7 |
| 20260507002234 | 17 | 360 | 11.3 | 25.7 | 0.00 | 0.00 | 0.00 | 79 | 1013.6 |
| 20260507002118 | 17 | 360 | 12.9 | 25.7 | 0.00 | 0.00 | 0.00 | 79 | 1013.5 |
| 20260507002018 | 17 | 360 | 12.9 | 25.7 | 0.00 | 0.00 | 0.00 | 79 | 1013.4 |
| 20260507001919 | 17 | 360 | 11.3 | 25.7 | 0.00 | 0.00 | 0.00 | 79 | 1013.4 |
| 20260507001819 | 17 | 360 | 11.3 | 25.7 | 0.00 | 0.00 | 0.00 | 79 | 1013.5 |
| 20260507001719 | 17 | 360 | 12.9 | 25.7 | 0.00 | 0.00 | 0.00 | 79 | 1013.5 |
| 20260507001620 | 17 | 360 | 14.5 | 25.7 | 0.00 | 0.00 | 0.00 | 79 | 1013.7 |
| 20260507001541 | 17 | 360 | 14.5 | 25.7 | 0.00 | 0.00 | 0.00 | 79 | 1013.7 |
| 20260507001424 | 17 | 360 | 16.1 | 25.7 | 0.00 | 0.00 | 0.00 | 79 | 1013.7 |
| 20260507001324 | 17 | 360 | 16.1 | 25.7 | 0.00 | 0.00 | 0.00 | 79 | 1013.7 |
| 20260507001224 | 17 | 360 | 16.1 | 25.7 | 0.00 | 0.00 | 0.00 | 79 | 1013.6 |
| 20260507001124 | 17 | 360 | 16.1 | 25.7 | 0.00 | 0.00 | 0.00 | 79 | 1013.5 |
| 20260507001044 | 17 | 360 | 12.9 | 25.7 | 0.00 | 0.00 | 0.00 | 79 | 1013.5 |
| 20260507000923 | 17 | 360 | 12.9 | 24.1 | 0.00 | 0.00 | 0.00 | 80 | 1013.5 |
| 20260507000825 | 17 | 360 | 12.9 | 24.1 | 0.00 | 0.00 | 0.00 | 80 | 1013.5 |
| 20260507000728 | 17 | 360 | 12.9 | 24.1 | 0.00 | 0.00 | 0.00 | 80 | 1013.5 |
| 20260507000629 | 17 | 360 | 12.9 | 25.7 | 0.00 | 0.00 | 0.00 | 80 | 1013.4 |
| 20260507000549 | 17 | 360 | 14.5 | 27.4 | 0.00 | 0.00 | 0.00 | 80 | 1013.4 |
| 20260507000429 | 17 | 360 | 14.5 | 27.4 | 0.00 | 0.00 | 0.00 | 79 | 1013.3 |
| 20260507000330 | 17 | 360 | 14.5 | 27.4 | 0.00 | 0.00 | 0.00 | 79 | 1013.3 |
| 20260507000230 | 17 | 360 | 16.1 | 27.4 | 0.00 | 0.00 | 0.00 | 79 | 1013.4 |
| 20260507000129 | 17 | 360 | 17.7 | 27.4 | 0.00 | 0.00 | 0.00 | 79 | 1013.4 |
| 20260507000050 | 17 | 360 | 16.1 | 27.4 | 0.00 | 0.00 | 0.00 | 79 | 1013.5 |
| 20260506235934 | 17 | 360 | 16.1 | 27.4 | 0.00 | 0.00 | 0.00 | 79 | 1013.7 |
| 20260506235834 | 17 | 360 | 16.1 | 27.4 | 0.00 | 0.00 | 0.00 | 79 | 1013.7 |
| 20260506235736 | 17 | 360 | 16.1 | 27.4 | 0.00 | 0.00 | 0.00 | 79 | 1013.5 |
| 20260506235616 | 17 | 360 | 14.5 | 27.4 | 0.00 | 0.00 | 0.00 | 79 | 1013.7 |
| 20260506235516 | 17 | 360 | 14.5 | 27.4 | 0.00 | 0.00 | 0.00 | 79 | 1013.6 |
| 20260506235437 | 17 | 360 | 12.9 | 27.4 | 0.00 | 0.00 | 0.00 | 79 | 1013.5 |
| 20260506235336 | 17 | 360 | 12.9 | 27.4 | 0.00 | 0.00 | 0.00 | 79 | 1013.5 |
| 20260506235220 | 17 | 360 | 12.9 | 27.4 | 0.00 | 0.00 | 0.00 | 79 | 1013.4 |
| 20260506235120 | 17 | 360 | 12.9 | 27.4 | 0.00 | 0.00 | 0.00 | 79 | 1013.4 |
| 20260506235021 | 17 | 360 | 12.9 | 27.4 | 0.00 | 0.00 | 0.00 | 79 | 1013.5 |
| 20260506234921 | 17 | 360 | 14.5 | 27.4 | 0.00 | 0.00 | 0.00 | 79 | 1013.5 |
| 20260506234822 | 17 | 360 | 14.5 | 27.4 | 0.00 | 0.00 | 0.00 | 79 | 1013.4 |
| 20260506234723 | 17 | 360 | 16.1 | 27.4 | 0.00 | 0.00 | 0.00 | 79 | 1013.5 |
| 20260506234643 | 17 | 360 | 16.1 | 27.4 | 0.00 | 0.00 | 0.00 | 79 | 1013.4 |
| 20260506234542 | 17 | 360 | 14.5 | 25.7 | 0.00 | 0.00 | 0.00 | 79 | 1013.3 |
| 20260506234426 | 17 | 360 | 14.5 | 25.7 | 0.00 | 0.00 | 0.00 | 79 | 1013.4 |
| 20260506234326 | 17 | 360 | 14.5 | 25.7 | 0.00 | 0.00 | 0.00 | 79 | 1013.5 |
| 20260506234227 | 17 | 360 | 14.5 | 25.7 | 0.00 | 0.00 | 0.00 | 79 | 1013.5 |
| 20260506234128 | 17 | 360 | 14.5 | 25.7 | 0.00 | 0.00 | 0.00 | 79 | 1013.5 |
| 20260506234048 | 17 | 360 | 14.5 | 25.7 | 0.00 | 0.00 | 0.00 | 79 | 1013.5 |
| 20260506233927 | 17 | 360 | 14.5 | 25.7 | 0.00 | 0.00 | 0.00 | 79 | 1013.5 |
| 20260506233827 | 17 | 315 | 12.9 | 25.7 | 0.00 | 0.00 | 0.00 | 79 | 1013.5 |
| 20260506233731 | 17 | 360 | 11.3 | 25.7 | 0.00 | 0.00 | 0.00 | 79 | 1013.5 |
| 20260506233632 | 17 | 360 | 11.3 | 25.7 | 0.00 | 0.00 | 0.00 | 79 | 1013.4 |
| 20260506233533 | 17 | 360 | 12.9 | 25.7 | 0.00 | 0.00 | 0.00 | 79 | 1013.5 |
| 20260506233454 | 17 | 360 | 11.3 | 25.7 | 0.00 | 0.00 | 0.00 | 80 | 1013.4 |
| 20260506233334 | 17 | 360 | 11.3 | 25.7 | 0.00 | 0.00 | 0.00 | 79 | 1013.3 |
| 20260506233235 | 17 | 360 | 12.9 | 25.7 | 0.00 | 0.00 | 0.00 | 79 | 1013.3 |
| 20260506233135 | 17 | 360 | 12.9 | 25.7 | 0.00 | 0.00 | 0.00 | 80 | 1013.3 |
| 20260506233020 | 17 | 360 | 11.3 | 25.7 | 0.00 | 0.00 | 0.00 | 79 | 1013.2 |
| 20260506232920 | 17 | 360 | 12.9 | 25.7 | 0.00 | 0.00 | 0.00 | 79 | 1013.1 |
| 20260506232822 | 17 | 360 | 14.5 | 25.7 | 0.00 | 0.00 | 0.00 | 79 | 1013.1 |
| 20260506232721 | 17 | 360 | 14.5 | 27.4 | 0.00 | 0.00 | 0.00 | 79 | 1013.2 |
| 20260506232642 | 17 | 360 | 14.5 | 27.4 | 0.00 | 0.00 | 0.00 | 79 | 1013.2 |
| 20260506232521 | 17 | 360 | 14.5 | 27.4 | 0.00 | 0.00 | 0.00 | 79 | 1013.2 |
| 20260506232443 | 17 | 360 | 16.1 | 27.4 | 0.00 | 0.00 | 0.00 | 79 | 1013.2 |
| 20260506232320 | 17 | 360 | 14.5 | 27.4 | 0.00 | 0.00 | 0.00 | 79 | 1013.2 |
| 20260506232225 | 17 | 360 | 14.5 | 27.4 | 0.00 | 0.00 | 0.00 | 79 | 1013.2 |
| 20260506232126 | 17 | 360 | 14.5 | 27.4 | 0.00 | 0.00 | 0.00 | 79 | 1013.3 |
| 20260506232047 | 17 | 360 | 16.1 | 27.4 | 0.00 | 0.00 | 0.00 | 79 | 1013.2 |
| 20260506231947 | 17 | 360 | 16.1 | 24.1 | 0.00 | 0.00 | 0.00 | 79 | 1013.2 |
| 20260506231826 | 17 | 360 | 14.5 | 24.1 | 0.00 | 0.00 | 0.00 | 79 | 1013.3 |
| 20260506231726 | 17 | 360 | 16.1 | 24.1 | 0.00 | 0.00 | 0.00 | 79 | 1013.2 |
| 20260506231646 | 17 | 360 | 16.1 | 24.1 | 0.00 | 0.00 | 0.00 | 79 | 1013.2 |
| 20260506231526 | 17 | 360 | 16.1 | 24.1 | 0.00 | 0.00 | 0.00 | 79 | 1013.2 |
| 20260506231450 | 17 | 360 | 14.5 | 24.1 | 0.00 | 0.00 | 0.00 | 79 | 1013.2 |
| 20260506231330 | 17 | 360 | 14.5 | 24.1 | 0.00 | 0.00 | 0.00 | 79 | 1013.2 |
| 20260506231229 | 17 | 360 | 12.9 | 24.1 | 0.00 | 0.00 | 0.00 | 79 | 1013.2 |
| 20260506231130 | 17 | 360 | 12.9 | 27.4 | 0.00 | 0.00 | 0.00 | 79 | 1013.3 |
| 20260506231030 | 17 | 360 | 11.3 | 27.4 | 0.00 | 0.00 | 0.00 | 79 | 1013.2 |
| 20260506230931 | 17 | 360 | 12.9 | 27.4 | 0.00 | 0.00 | 0.00 | 79 | 1013.2 |
| 20260506230832 | 17 | 360 | 14.5 | 27.4 | 0.00 | 0.00 | 0.00 | 79 | 1013.2 |
| 20260506230756 | 17 | 360 | 14.5 | 27.4 | 0.00 | 0.00 | 0.00 | 78 | 1013.2 |
| 20260506230635 | 17 | 360 | 14.5 | 27.4 | 0.00 | 0.00 | 0.00 | 78 | 1013.2 |
| 20260506230516 | 17 | 360 | 14.5 | 27.4 | 0.00 | 0.00 | 0.00 | 78 | 1013.3 |
| 20260506230417 | 17 | 360 | 14.5 | 27.4 | 0.00 | 0.00 | 0.00 | 78 | 1013.3 |
| 20260506230337 | 17 | 360 | 12.9 | 27.4 | 0.00 | 0.00 | 0.00 | 78 | 1013.3 |
| 20260506230237 | 17 | 360 | 12.9 | 27.4 | 0.00 | 0.00 | 0.00 | 79 | 1013.3 |
| 20260506230138 | 17 | 360 | 12.9 | 27.4 | 0.00 | 0.00 | 0.00 | 79 | 1013.3 |
| 20260506230017 | 17 | 360 | 12.9 | 27.4 | 0.00 | 0.00 | 0.00 | 79 | 1013.3 |
| 20260506225921 | 17 | 360 | 12.9 | 27.4 | 0.00 | 0.00 | 0.00 | 79 | 1013.2 |
| 20260506225822 | 17 | 360 | 14.5 | 27.4 | 0.00 | 0.00 | 0.00 | 79 | 1013.3 |
| 20260506225721 | 17 | 360 | 14.5 | 27.4 | 0.00 | 0.00 | 0.00 | 79 | 1013.3 |
| 20260506225643 | 17 | 360 | 16.1 | 27.4 | 0.00 | 0.00 | 0.00 | 79 | 1013.3 |
| 20260506225522 | 17 | 360 | 17.7 | 27.4 | 0.00 | 0.00 | 0.00 | 78 | 1013.3 |
| 20260506225423 | 17 | 360 | 17.7 | 25.7 | 0.00 | 0.00 | 0.00 | 78 | 1013.4 |
| 20260506225323 | 17 | 360 | 16.1 | 25.7 | 0.00 | 0.00 | 0.00 | 78 | 1013.4 |
| 20260506225244 | 17 | 360 | 16.1 | 25.7 | 0.00 | 0.00 | 0.00 | 78 | 1013.3 |
| 20260506225127 | 17 | 360 | 14.5 | 25.7 | 0.00 | 0.00 | 0.00 | 78 | 1013.3 |
| 20260506225028 | 17 | 360 | 14.5 | 25.7 | 0.00 | 0.00 | 0.00 | 78 | 1013.4 |
| 20260506224928 | 17 | 360 | 14.5 | 25.7 | 0.00 | 0.00 | 0.00 | 78 | 1013.3 |
| 20260506224847 | 17 | 360 | 16.1 | 25.7 | 0.00 | 0.00 | 0.00 | 78 | 1013.2 |
| 20260506224748 | 17 | 360 | 16.1 | 27.4 | 0.00 | 0.00 | 0.00 | 78 | 1013.2 |
| 20260506224627 | 17 | 360 | 16.1 | 27.4 | 0.00 | 0.00 | 0.00 | 78 | 1013.2 |
| 20260506224547 | 17 | 360 | 14.5 | 27.4 | 0.00 | 0.00 | 0.00 | 78 | 1013.2 |
| 20260506224427 | 17 | 360 | 12.9 | 27.4 | 0.00 | 0.00 | 0.00 | 78 | 1013.2 |
| 20260506224332 | 17 | 360 | 14.5 | 27.4 | 0.00 | 0.00 | 0.00 | 78 | 1013.1 |
| 20260506224252 | 17 | 360 | 16.1 | 27.4 | 0.00 | 0.00 | 0.00 | 78 | 1013.2 |
| 20260506224131 | 17 | 360 | 17.7 | 27.4 | 0.00 | 0.00 | 0.00 | 78 | 1013.2 |
| 20260506224052 | 17 | 360 | 17.7 | 27.4 | 0.00 | 0.00 | 0.00 | 78 | 1013.2 |
| 20260506223952 | 17 | 360 | 17.7 | 30.6 | 0.00 | 0.00 | 0.00 | 78 | 1013.2 |
| 20260506223831 | 17 | 360 | 17.7 | 30.6 | 0.00 | 0.00 | 0.00 | 78 | 1013.1 |
| 20260506223731 | 17 | 360 | 17.7 | 30.6 | 0.00 | 0.00 | 0.00 | 78 | 1013.1 |
| 20260506223616 | 17 | 360 | 17.7 | 30.6 | 0.00 | 0.00 | 0.00 | 78 | 1013.2 |
| 20260506223517 | 17 | 360 | 17.7 | 30.6 | 0.00 | 0.00 | 0.00 | 78 | 1013.2 |
| 20260506223417 | 17 | 360 | 17.7 | 30.6 | 0.00 | 0.00 | 0.00 | 78 | 1013.1 |
| 20260506223318 | 17 | 360 | 17.7 | 30.6 | 0.00 | 0.00 | 0.00 | 78 | 1013.1 |
| 20260506223217 | 17 | 360 | 17.7 | 30.6 | 0.00 | 0.00 | 0.00 | 77 | 1013.2 |
| 20260506223118 | 17 | 360 | 16.1 | 30.6 | 0.00 | 0.00 | 0.00 | 77 | 1013.1 |
| 20260506223019 | 17 | 360 | 17.7 | 30.6 | 0.00 | 0.00 | 0.00 | 77 | 1013.1 |
| 20260506222923 | 17 | 360 | 17.7 | 30.6 | 0.00 | 0.00 | 0.00 | 77 | 1013.2 |
| 20260506222823 | 17 | 360 | 19.3 | 30.6 | 0.00 | 0.00 | 0.00 | 77 | 1013.1 |
| 20260506222723 | 17 | 360 | 20.9 | 30.6 | 0.00 | 0.00 | 0.00 | 77 | 1013.0 |
| 20260506222623 | 17 | 360 | 17.7 | 30.6 | 0.00 | 0.00 | 0.00 | 77 | 1013.0 |
| 20260506222524 | 17 | 360 | 17.7 | 30.6 | 0.00 | 0.00 | 0.00 | 77 | 1013.0 |
| 20260506222424 | 17 | 360 | 17.7 | 27.4 | 0.00 | 0.00 | 0.00 | 78 | 1013.0 |
| 20260506222328 | 17 | 360 | 19.3 | 27.4 | 0.00 | 0.00 | 0.00 | 77 | 1013.0 |
| 20260506222229 | 17 | 360 | 20.9 | 27.4 | 0.00 | 0.00 | 0.00 | 77 | 1013.0 |
| 20260506222129 | 17 | 360 | 19.3 | 27.4 | 0.00 | 0.00 | 0.00 | 77 | 1013.0 |
| 20260506222030 | 17 | 360 | 19.3 | 27.4 | 0.00 | 0.00 | 0.00 | 77 | 1012.9 |
| 20260506221931 | 17 | 360 | 19.3 | 25.7 | 0.00 | 0.00 | 0.00 | 77 | 1012.9 |
| 20260506221832 | 17 | 360 | 17.7 | 25.7 | 0.00 | 0.00 | 0.00 | 77 | 1012.8 |
| 20260506221732 | 17 | 360 | 17.7 | 25.7 | 0.00 | 0.00 | 0.00 | 77 | 1012.9 |
| 20260506221616 | 17 | 360 | 17.7 | 25.7 | 0.00 | 0.00 | 0.00 | 77 | 1012.9 |
| 20260506221517 | 17 | 360 | 16.1 | 25.7 | 0.00 | 0.00 | 0.00 | 77 | 1013.0 |
| 20260506221418 | 17 | 360 | 16.1 | 25.7 | 0.00 | 0.00 | 0.00 | 77 | 1013.1 |
| 20260506221317 | 17 | 360 | 14.5 | 24.1 | 0.00 | 0.00 | 0.00 | 77 | 1013.0 |
| 20260506221217 | 18 | 360 | 14.5 | 25.7 | 0.00 | 0.00 | 0.00 | 76 | 1013.1 |
| 20260506221118 | 18 | 360 | 14.5 | 25.7 | 0.00 | 0.00 | 0.00 | 76 | 1013.1 |
| 20260506221022 | 18 | 360 | 14.5 | 25.7 | 0.00 | 0.00 | 0.00 | 76 | 1013.1 |
| 20260506220922 | 18 | 360 | 16.1 | 25.7 | 0.00 | 0.00 | 0.00 | 76 | 1013.2 |
| 20260506220822 | 18 | 360 | 16.1 | 25.7 | 0.00 | 0.00 | 0.00 | 76 | 1013.2 |
| 20260506220724 | 18 | 360 | 16.1 | 25.7 | 0.00 | 0.00 | 0.00 | 77 | 1013.1 |
| 20260506220624 | 18 | 360 | 16.1 | 25.7 | 0.00 | 0.00 | 0.00 | 77 | 1013.0 |
| 20260506220544 | 18 | 360 | 17.7 | 29.0 | 0.00 | 0.00 | 0.00 | 76 | 1013.1 |
| 20260506220423 | 18 | 360 | 16.1 | 29.0 | 0.00 | 0.00 | 0.00 | 76 | 1013.1 |
| 20260506220328 | 18 | 360 | 16.1 | 29.0 | 0.00 | 0.00 | 0.00 | 76 | 1013.1 |
| 20260506220228 | 18 | 360 | 14.5 | 29.0 | 0.00 | 0.00 | 0.00 | 77 | 1013.1 |
| 20260506220128 | 18 | 360 | 14.5 | 29.0 | 0.00 | 0.00 | 0.00 | 77 | 1013.1 |
| 20260506220029 | 18 | 360 | 16.1 | 29.0 | 0.00 | 0.00 | 0.00 | 77 | 1013.1 |
| 20260506215930 | 18 | 360 | 17.7 | 29.0 | 0.00 | 0.00 | 0.00 | 77 | 1013.1 |
| 20260506215849 | 18 | 360 | 19.3 | 29.0 | 0.00 | 0.00 | 0.00 | 76 | 1013.1 |
| 20260506215730 | 18 | 360 | 19.3 | 29.0 | 0.00 | 0.00 | 0.00 | 76 | 1013.2 |
| 20260506215649 | 18 | 360 | 17.7 | 29.0 | 0.00 | 0.00 | 0.00 | 76 | 1013.2 |
| 20260506215533 | 18 | 360 | 19.3 | 29.0 | 0.00 | 0.00 | 0.00 | 76 | 1013.2 |
| 20260506215433 | 18 | 360 | 17.7 | 29.0 | 0.00 | 0.00 | 0.00 | 76 | 1013.3 |
| 20260506215333 | 18 | 360 | 16.1 | 27.4 | 0.00 | 0.00 | 0.00 | 76 | 1013.2 |
| 20260506215254 | 18 | 360 | 14.5 | 27.4 | 0.00 | 0.00 | 0.00 | 76 | 1013.2 |
| 20260506215133 | 18 | 360 | 14.5 | 27.4 | 0.00 | 0.00 | 0.00 | 76 | 1013.1 |
| 20260506215054 | 18 | 360 | 12.9 | 27.4 | 0.00 | 0.00 | 0.00 | 76 | 1013.1 |
| 20260506214934 | 18 | 360 | 14.5 | 27.4 | 0.00 | 0.00 | 0.00 | 76 | 1013.0 |
| 20260506214818 | 18 | 360 | 16.1 | 27.4 | 0.00 | 0.00 | 0.00 | 76 | 1013.0 |
| 20260506214718 | 18 | 360 | 16.1 | 27.4 | 0.00 | 0.00 | 0.00 | 76 | 1013.0 |
| 20260506214619 | 18 | 360 | 16.1 | 29.0 | 0.00 | 0.00 | 0.00 | 76 | 1013.0 |
| 20260506214519 | 18 | 360 | 16.1 | 29.0 | 0.00 | 0.00 | 0.00 | 76 | 1013.0 |
| 20260506214420 | 18 | 360 | 14.5 | 29.0 | 0.00 | 0.00 | 0.00 | 76 | 1012.9 |
| 20260506214321 | 18 | 360 | 16.1 | 29.0 | 0.00 | 0.00 | 0.00 | 75 | 1013.0 |
| 20260506214242 | 18 | 360 | 14.5 | 35.4 | 0.00 | 0.00 | 0.00 | 75 | 1012.9 |
| 20260506214147 | 18 | 360 | 16.1 | 35.4 | 0.00 | 0.00 | 0.00 | 76 | 1012.9 |
| 20260506214026 | 18 | 360 | 17.7 | 35.4 | 0.00 | 0.00 | 0.00 | 76 | 1013.0 |
| 20260506213926 | 18 | 360 | 17.7 | 35.4 | 0.00 | 0.00 | 0.00 | 75 | 1013.0 |
| 20260506213827 | 18 | 360 | 19.3 | 35.4 | 0.00 | 0.00 | 0.00 | 75 | 1013.0 |
| 20260506213728 | 18 | 360 | 19.3 | 35.4 | 0.00 | 0.00 | 0.00 | 76 | 1013.0 |
| 20260506213649 | 18 | 360 | 20.9 | 35.4 | 0.00 | 0.00 | 0.00 | 76 | 1013.0 |
| 20260506213528 | 18 | 360 | 20.9 | 35.4 | 0.00 | 0.00 | 0.00 | 76 | 1012.9 |
| 20260506213433 | 18 | 360 | 20.9 | 35.4 | 0.00 | 0.00 | 0.00 | 75 | 1013.0 |
| 20260506213332 | 18 | 360 | 20.9 | 30.6 | 0.00 | 0.00 | 0.00 | 75 | 1013.0 |
| 20260506213232 | 18 | 360 | 19.3 | 29.0 | 0.00 | 0.00 | 0.00 | 75 | 1013.0 |
| 20260506213134 | 18 | 360 | 19.3 | 29.0 | 0.00 | 0.00 | 0.00 | 75 | 1012.9 |
| 20260506213035 | 18 | 360 | 17.7 | 33.8 | 0.00 | 0.00 | 0.00 | 75 | 1012.9 |
| 20260506212935 | 18 | 360 | 17.7 | 33.8 | 0.00 | 0.00 | 0.00 | 74 | 1012.9 |
| 20260506212817 | 19 | 360 | 17.7 | 33.8 | 0.00 | 0.00 | 0.00 | 74 | 1012.8 |
| 20260506212720 | 19 | 360 | 17.7 | 33.8 | 0.00 | 0.00 | 0.00 | 74 | 1012.8 |
| 20260506212621 | 19 | 360 | 19.3 | 33.8 | 0.00 | 0.00 | 0.00 | 75 | 1012.7 |
| 20260506212541 | 19 | 360 | 20.9 | 33.8 | 0.00 | 0.00 | 0.00 | 74 | 1012.7 |
| 20260506212422 | 19 | 360 | 22.5 | 33.8 | 0.00 | 0.00 | 0.00 | 74 | 1012.8 |
| 20260506212341 | 19 | 360 | 22.5 | 33.8 | 0.00 | 0.00 | 0.00 | 74 | 1012.8 |
| 20260506212221 | 19 | 360 | 20.9 | 33.8 | 0.00 | 0.00 | 0.00 | 74 | 1012.7 |
| 20260506212143 | 19 | 360 | 17.7 | 33.8 | 0.00 | 0.00 | 0.00 | 74 | 1012.8 |
| 20260506212042 | 19 | 360 | 16.1 | 33.8 | 0.00 | 0.00 | 0.00 | 73 | 1012.8 |
| 20260506211926 | 19 | 360 | 16.1 | 30.6 | 0.00 | 0.00 | 0.00 | 73 | 1012.8 |
| 20260506211827 | 20 | 360 | 16.1 | 30.6 | 0.00 | 0.00 | 0.00 | 73 | 1012.9 |
| 20260506211728 | 20 | 360 | 16.1 | 30.6 | 0.00 | 0.00 | 0.00 | 72 | 1012.8 |
| 20260506211628 | 20 | 360 | 16.1 | 30.6 | 0.00 | 0.00 | 0.00 | 72 | 1012.9 |
| 20260506211549 | 20 | 360 | 16.1 | 30.6 | 0.00 | 0.00 | 0.00 | 73 | 1012.8 |
| 20260506211429 | 20 | 360 | 16.1 | 32.2 | 0.00 | 0.00 | 0.00 | 73 | 1012.8 |
| 20260506211329 | 20 | 360 | 17.7 | 32.2 | 0.00 | 0.00 | 0.00 | 73 | 1012.8 |
| 20260506211234 | 20 | 360 | 19.3 | 32.2 | 0.00 | 0.00 | 0.00 | 72 | 1012.7 |
| 20260506211133 | 20 | 360 | 17.7 | 32.2 | 0.00 | 0.00 | 0.00 | 73 | 1012.8 |
| 20260506211034 | 20 | 360 | 17.7 | 32.2 | 0.00 | 0.00 | 0.00 | 73 | 1012.8 |
| 20260506210935 | 20 | 360 | 17.7 | 33.8 | 0.00 | 0.00 | 0.00 | 73 | 1012.8 |
| 20260506210816 | 20 | 360 | 17.7 | 33.8 | 0.00 | 0.00 | 0.00 | 73 | 1012.7 |
| 20260506210717 | 20 | 360 | 20.9 | 33.8 | 0.00 | 0.00 | 0.00 | 72 | 1012.6 |
| 20260506210622 | 20 | 360 | 19.3 | 33.8 | 0.00 | 0.00 | 0.00 | 72 | 1012.7 |
| 20260506210523 | 20 | 360 | 17.7 | 33.8 | 0.00 | 0.00 | 0.00 | 72 | 1012.7 |
| 20260506210443 | 20 | 360 | 16.1 | 33.8 | 0.00 | 0.00 | 0.00 | 72 | 1012.7 |
| 20260506210404 | 21 | 360 | 14.5 | 33.8 | 0.00 | 0.00 | 0.00 | 73 | 1012.7 |
| 20260506210216 | 20 | 360 | 17.7 | 33.8 | 0.00 | 0.00 | 0.00 | 72 | 1012.8 |
| 20260506210117 | 20 | 360 | 19.3 | 33.8 | 0.00 | 0.00 | 0.00 | 72 | 1012.8 |
| 20260506210017 | 20 | 360 | 19.3 | 33.8 | 0.00 | 0.00 | 0.00 | 72 | 1012.9 |
| 20260506205918 | 21 | 360 | 20.9 | 33.8 | 0.00 | 0.00 | 0.00 | 71 | 1012.9 |
| 20260506205824 | 21 | 360 | 19.3 | 33.8 | 0.00 | 0.00 | 0.00 | 72 | 1012.8 |
| 20260506205744 | 21 | 360 | 19.3 | 30.6 | 0.00 | 0.00 | 0.00 | 72 | 1012.8 |
| 20260506205624 | 21 | 360 | 19.3 | 30.6 | 0.00 | 0.00 | 0.00 | 71 | 1012.9 |
| 20260506205524 | 21 | 360 | 17.7 | 30.6 | 0.00 | 0.00 | 0.00 | 72 | 1012.8 |
| 20260506205425 | 21 | 360 | 19.3 | 35.4 | 0.00 | 0.00 | 0.00 | 72 | 1012.9 |
| 20260506205326 | 21 | 360 | 19.3 | 35.4 | 0.00 | 0.00 | 0.00 | 72 | 1012.9 |
| 20260506205224 | 21 | 360 | 17.7 | 35.4 | 0.00 | 0.00 | 0.00 | 72 | 1012.9 |
| 20260506205128 | 21 | 360 | 17.7 | 35.4 | 0.00 | 0.00 | 0.00 | 73 | 1012.9 |
| 20260506205028 | 21 | 360 | 17.7 | 35.4 | 0.00 | 0.00 | 0.00 | 73 | 1012.8 |
| 20260506204929 | 21 | 360 | 19.3 | 35.4 | 0.00 | 0.00 | 0.00 | 72 | 1012.8 |
| 20260506204830 | 21 | 360 | 17.7 | 35.4 | 0.00 | 0.00 | 0.00 | 72 | 1012.8 |
| 20260506204750 | 21 | 360 | 17.7 | 33.8 | 0.00 | 0.00 | 0.00 | 72 | 1012.8 |
| 20260506204650 | 21 | 360 | 17.7 | 33.8 | 0.00 | 0.00 | 0.00 | 72 | 1012.8 |
| 20260506204528 | 21 | 360 | 17.7 | 32.2 | 0.00 | 0.00 | 0.00 | 72 | 1012.8 |
| 20260506204449 | 21 | 360 | 16.1 | 32.2 | 0.00 | 0.00 | 0.00 | 72 | 1012.8 |
| 20260506204332 | 21 | 360 | 17.7 | 32.2 | 0.00 | 0.00 | 0.00 | 71 | 1012.9 |
| 20260506204233 | 22 | 360 | 17.7 | 32.2 | 0.00 | 0.00 | 0.00 | 71 | 1013.0 |
| 20260506204135 | 22 | 360 | 16.1 | 32.2 | 0.00 | 0.00 | 0.00 | 72 | 1012.9 |
| 20260506204034 | 22 | 360 | 14.5 | 32.2 | 0.00 | 0.00 | 0.00 | 71 | 1013.0 |
| 20260506203933 | 22 | 360 | 16.1 | 32.2 | 0.00 | 0.00 | 0.00 | 72 | 1013.1 |
| 20260506203835 | 22 | 360 | 16.1 | 32.2 | 0.00 | 0.00 | 0.00 | 72 | 1013.1 |
| 20260506203735 | 22 | 360 | 14.5 | 32.2 | 0.00 | 0.00 | 0.00 | 73 | 1013.0 |
| 20260506203619 | 21 | 360 | 16.1 | 32.2 | 0.00 | 0.00 | 0.00 | 72 | 1013.0 |
| 20260506203519 | 22 | 360 | 16.1 | 27.4 | 0.00 | 0.00 | 0.00 | 72 | 1013.1 |
| 20260506203420 | 22 | 360 | 17.7 | 27.4 | 0.00 | 0.00 | 0.00 | 72 | 1013.1 |
| 20260506203340 | 22 | 360 | 17.7 | 27.4 | 0.00 | 0.00 | 0.00 | 72 | 1013.1 |
| 20260506203221 | 22 | 360 | 16.1 | 27.4 | 0.00 | 0.00 | 0.00 | 72 | 1013.1 |
| 20260506203122 | 22 | 360 | 14.5 | 27.4 | 0.00 | 0.00 | 0.00 | 72 | 1013.1 |
| 20260506203024 | 22 | 360 | 14.5 | 30.6 | 0.00 | 0.00 | 0.00 | 73 | 1013.1 |
| 20260506202928 | 22 | 360 | 14.5 | 30.6 | 0.00 | 0.00 | 0.00 | 73 | 1013.1 |
| 20260506202829 | 22 | 360 | 16.1 | 30.6 | 0.00 | 0.00 | 0.00 | 72 | 1013.1 |
| 20260506202750 | 22 | 49 | 16.1 | 30.6 | 0.00 | 0.00 | 0.00 | 72 | 1013.1 |
| 20260506202628 | 22 | 360 | 16.1 | 30.6 | 0.00 | 0.00 | 0.00 | 72 | 1013.1 |
| 20260506202529 | 22 | 360 | 16.1 | 30.6 | 0.00 | 0.00 | 0.00 | 74 | 1013.2 |
| 20260506202430 | 22 | 360 | 16.1 | 30.6 | 0.00 | 0.00 | 0.00 | 74 | 1013.1 |
| 20260506202350 | 22 | 360 | 16.1 | 30.6 | 0.00 | 0.00 | 0.00 | 73 | 1013.2 |
| 20260506202250 | 22 | 360 | 16.1 | 29.0 | 0.00 | 0.00 | 0.00 | 73 | 1013.1 |
| 20260506202132 | 22 | 360 | 17.7 | 29.0 | 0.00 | 0.00 | 0.00 | 72 | 1013.1 |
| 20260506202033 | 22 | 360 | 16.1 | 27.4 | 0.00 | 0.00 | 0.00 | 72 | 1013.0 |
| 20260506201934 | 22 | 360 | 16.1 | 27.4 | 0.00 | 0.00 | 0.00 | 73 | 1013.0 |
| 20260506201835 | 22 | 360 | 16.1 | 27.4 | 0.00 | 0.00 | 0.00 | 74 | 1013.0 |
| 20260506201735 | 22 | 360 | 16.1 | 27.4 | 0.00 | 0.00 | 0.00 | 74 | 1013.0 |
| 20260506201635 | 22 | 360 | 16.1 | 27.4 | 0.00 | 0.00 | 0.00 | 74 | 1013.0 |
| 20260506201540 | 22 | 360 | 16.1 | 27.4 | 0.00 | 0.00 | 0.00 | 74 | 1012.9 |
| 20260506201418 | 21 | 360 | 16.1 | 27.4 | 0.00 | 0.00 | 0.00 | 74 | 1012.9 |
| 20260506201318 | 22 | 360 | 17.7 | 33.8 | 0.00 | 0.00 | 0.00 | 74 | 1013.0 |
| 20260506201218 | 22 | 360 | 19.3 | 33.8 | 0.00 | 0.00 | 0.00 | 74 | 1013.0 |
| 20260506201118 | 22 | 360 | 19.3 | 33.8 | 0.00 | 0.00 | 0.00 | 73 | 1013.0 |
| 20260506201019 | 22 | 360 | 17.7 | 33.8 | 0.00 | 0.00 | 0.00 | 73 | 1012.9 |
| 20260506200940 | 22 | 360 | 16.1 | 33.8 | 0.00 | 0.00 | 0.00 | 73 | 1012.9 |
| 20260506200819 | 22 | 360 | 16.1 | 33.8 | 0.00 | 0.00 | 0.00 | 73 | 1012.9 |
| 20260506200724 | 22 | 360 | 16.1 | 33.8 | 0.00 | 0.00 | 0.00 | 74 | 1012.8 |
| 20260506200625 | 22 | 360 | 16.1 | 33.8 | 0.00 | 0.00 | 0.00 | 73 | 1012.8 |
| 20260506200546 | 22 | 360 | 17.7 | 35.4 | 0.00 | 0.00 | 0.00 | 73 | 1012.8 |
| 20260506200424 | 22 | 360 | 16.1 | 35.4 | 0.00 | 0.00 | 0.00 | 73 | 1012.7 |
| 20260506200345 | 22 | 360 | 17.7 | 35.4 | 0.00 | 0.00 | 0.00 | 73 | 1012.7 |
| 20260506200224 | 22 | 360 | 16.1 | 35.4 | 0.00 | 0.00 | 0.00 | 73 | 1012.6 |
| 20260506200144 | 22 | 360 | 17.7 | 35.4 | 0.00 | 0.00 | 0.00 | 73 | 1012.7 |
| 20260506200024 | 22 | 360 | 20.9 | 35.4 | 0.00 | 0.00 | 0.00 | 73 | 1012.8 |
| 20260506195925 | 22 | 360 | 20.9 | 35.4 | 0.00 | 0.00 | 0.00 | 73 | 1012.7 |
| 20260506195828 | 22 | 360 | 22.5 | 35.4 | 0.00 | 0.00 | 0.00 | 72 | 1012.7 |
| 20260506195731 | 22 | 360 | 22.5 | 35.4 | 0.00 | 0.00 | 0.00 | 72 | 1012.7 |
| 20260506195630 | 22 | 360 | 20.9 | 35.4 | 0.00 | 0.00 | 0.00 | 72 | 1012.6 |
| 20260506195551 | 22 | 360 | 19.3 | 33.8 | 0.00 | 0.00 | 0.00 | 73 | 1012.6 |
| 20260506195431 | 22 | 360 | 17.7 | 33.8 | 0.00 | 0.00 | 0.00 | 73 | 1012.7 |
| 20260506195331 | 22 | 360 | 19.3 | 35.4 | 0.00 | 0.00 | 0.00 | 73 | 1012.6 |
| 20260506195231 | 22 | 360 | 19.3 | 35.4 | 0.00 | 0.00 | 0.00 | 73 | 1012.6 |
| 20260506195135 | 22 | 360 | 19.3 | 35.4 | 0.00 | 0.00 | 0.00 | 73 | 1012.5 |
| 20260506195036 | 22 | 360 | 19.3 | 35.4 | 0.00 | 0.00 | 0.00 | 72 | 1012.5 |
| 20260506194930 | 23 | 360 | 17.7 | 35.4 | 0.00 | 0.00 | 0.00 | 73 | 1012.5 |
| 20260506194830 | 23 | 360 | 17.7 | 35.4 | 0.00 | 0.00 | 0.00 | 74 | 1012.4 |
| 20260506194731 | 23 | 360 | 19.3 | 35.4 | 0.00 | 0.00 | 0.00 | 74 | 1012.4 |
| 20260506194630 | 22 | 360 | 20.9 | 35.4 | 0.00 | 0.00 | 0.00 | 74 | 1012.4 |
| 20260506194551 | 22 | 360 | 20.9 | 35.4 | 0.00 | 0.00 | 0.00 | 74 | 1012.4 |
| 20260506194434 | 22 | 360 | 22.5 | 35.4 | 0.00 | 0.00 | 0.00 | 74 | 1012.4 |
| 20260506194334 | 22 | 360 | 20.9 | 33.8 | 0.00 | 0.00 | 0.00 | 74 | 1012.4 |
| 20260506194217 | 22 | 360 | 20.9 | 33.8 | 0.00 | 0.00 | 0.00 | 74 | 1012.4 |
| 20260506194117 | 22 | 360 | 19.3 | 33.8 | 0.00 | 0.00 | 0.00 | 74 | 1012.3 |
| 20260506194018 | 22 | 360 | 19.3 | 33.8 | 0.00 | 0.00 | 0.00 | 74 | 1012.3 |
| 20260506193918 | 22 | 360 | 19.3 | 33.8 | 0.00 | 0.00 | 0.00 | 74 | 1012.4 |
| 20260506193823 | 22 | 360 | 19.3 | 33.8 | 0.00 | 0.00 | 0.00 | 74 | 1012.5 |
| 20260506193722 | 22 | 360 | 20.9 | 33.8 | 0.00 | 0.00 | 0.00 | 74 | 1012.5 |
| 20260506193645 | 22 | 360 | 20.9 | 33.8 | 0.00 | 0.00 | 0.00 | 74 | 1012.4 |
| 20260506193524 | 22 | 360 | 20.9 | 33.8 | 0.00 | 0.00 | 0.00 | 74 | 1012.4 |
| 20260506193423 | 23 | 360 | 19.3 | 33.8 | 0.00 | 0.00 | 0.00 | 74 | 1012.4 |
| 20260506193324 | 23 | 360 | 17.7 | 35.4 | 0.00 | 0.00 | 0.00 | 74 | 1012.3 |
| 20260506193224 | 23 | 360 | 17.7 | 35.4 | 0.00 | 0.00 | 0.00 | 74 | 1012.4 |
| 20260506193125 | 23 | 360 | 19.3 | 35.4 | 0.00 | 0.00 | 0.00 | 74 | 1012.4 |
| 20260506193049 | 23 | 360 | 19.3 | 35.4 | 0.00 | 0.00 | 0.00 | 74 | 1012.4 |
| 20260506192928 | 23 | 360 | 19.3 | 35.4 | 0.00 | 0.00 | 0.00 | 74 | 1012.3 |
| 20260506192828 | 23 | 360 | 20.9 | 35.4 | 0.00 | 0.00 | 0.00 | 74 | 1012.4 |
| 20260506192750 | 23 | 360 | 19.3 | 35.4 | 0.00 | 0.00 | 0.00 | 74 | 1012.5 |
| 20260506192628 | 23 | 360 | 19.3 | 35.4 | 0.00 | 0.00 | 0.00 | 72 | 1012.4 |
| 20260506192529 | 24 | 360 | 19.3 | 35.4 | 0.00 | 0.00 | 0.00 | 72 | 1012.3 |
| 20260506192430 | 24 | 360 | 17.7 | 30.6 | 0.00 | 0.00 | 0.00 | 73 | 1012.3 |
| 20260506192333 | 25 | 360 | 17.7 | 27.4 | 0.00 | 0.00 | 0.00 | 71 | 1012.3 |
| 20260506192234 | 25 | 360 | 17.7 | 27.4 | 0.00 | 0.00 | 0.00 | 71 | 1012.3 |
| 20260506192135 | 25 | 360 | 16.1 | 27.4 | 0.00 | 0.00 | 0.00 | 71 | 1012.3 |
| 20260506192035 | 25 | 360 | 14.5 | 25.7 | 0.00 | 0.00 | 0.00 | 70 | 1012.3 |
| 20260506191917 | 25 | 360 | 12.9 | 22.5 | 0.00 | 0.00 | 0.00 | 70 | 1012.3 |
| 20260506191817 | 25 | 360 | 12.9 | 22.5 | 0.00 | 0.00 | 0.00 | 70 | 1012.3 |
| 20260506191721 | 25 | 360 | 12.9 | 22.5 | 0.00 | 0.00 | 0.00 | 70 | 1012.3 |
| 20260506191622 | 25 | 360 | 12.9 | 22.5 | 0.00 | 0.00 | 0.00 | 70 | 1012.3 |
| 20260506191542 | 25 | 360 | 14.5 | 22.5 | 0.00 | 0.00 | 0.00 | 70 | 1012.3 |
| 20260506191416 | 25 | 360 | 14.5 | 22.5 | 0.00 | 0.00 | 0.00 | 70 | 1012.4 |
| 20260506191317 | 26 | 360 | 14.5 | 22.5 | 0.00 | 0.00 | 0.00 | 70 | 1012.3 |
| 20260506191217 | 26 | 11 | 14.5 | 22.5 | 0.00 | 0.00 | 0.00 | 70 | 1012.3 |
| 20260506191117 | 26 | 360 | 12.9 | 22.5 | 0.00 | 0.00 | 0.00 | 70 | 1012.3 |
| 20260506191021 | 26 | 360 | 14.5 | 22.5 | 0.00 | 0.00 | 0.00 | 69 | 1012.3 |
| 20260506190922 | 26 | 360 | 12.9 | 22.5 | 0.00 | 0.00 | 0.00 | 69 | 1012.3 |
| 20260506190843 | 26 | 360 | 12.9 | 22.5 | 0.00 | 0.00 | 0.00 | 69 | 1012.3 |
| 20260506190803 | 26 | 360 | 12.9 | 19.3 | 0.00 | 0.00 | 0.00 | 69 | 1012.3 |
| 20260506190616 | 26 | 360 | 12.9 | 19.3 | 0.00 | 0.00 | 0.00 | 69 | 1012.4 |
| 20260506190517 | 26 | 360 | 14.5 | 19.3 | 0.00 | 0.00 | 0.00 | 69 | 1012.4 |
| 20260506190416 | 26 | 360 | 12.9 | 19.3 | 0.00 | 0.00 | 0.00 | 69 | 1012.5 |
| 20260506190320 | 26 | 360 | 11.3 | 19.3 | 0.00 | 0.00 | 0.00 | 69 | 1012.5 |
| 20260506190221 | 26 | 360 | 8.0 | 16.1 | 0.00 | 0.00 | 0.00 | 70 | 1012.6 |
| 20260506190121 | 26 | 360 | 6.4 | 16.1 | 0.00 | 0.00 | 0.00 | 70 | 1012.6 |
| 20260506190022 | 26 | 360 | 6.4 | 16.1 | 0.00 | 0.00 | 0.00 | 70 | 1012.7 |
| 20260506185923 | 26 | 360 | 6.4 | 16.1 | 0.00 | 0.00 | 0.00 | 70 | 1012.6 |
| 20260506185825 | 26 | 360 | 8.0 | 16.1 | 0.00 | 0.00 | 0.00 | 70 | 1012.6 |
| 20260506185725 | 26 | 360 | 8.0 | 16.1 | 0.00 | 0.00 | 0.00 | 70 | 1012.6 |
| 20260506185629 | 26 | 360 | 8.0 | 16.1 | 0.00 | 0.00 | 0.00 | 71 | 1012.6 |
| 20260506185550 | 26 | 360 | 8.0 | 16.1 | 0.00 | 0.00 | 0.00 | 71 | 1012.6 |
| 20260506185429 | 26 | 360 | 6.4 | 16.1 | 0.00 | 0.00 | 0.00 | 72 | 1012.6 |
| 20260506185331 | 26 | 360 | 4.8 | 16.1 | 0.00 | 0.00 | 0.00 | 72 | 1012.5 |
| 20260506185252 | 25 | 360 | 4.8 | 16.1 | 0.00 | 0.00 | 0.00 | 72 | 1012.5 |
| 20260506185132 | 25 | 360 | 6.4 | 16.1 | 0.00 | 0.00 | 0.00 | 71 | 1012.5 |
| 20260506185031 | 26 | 360 | 6.4 | 16.1 | 0.00 | 0.00 | 0.00 | 71 | 1012.5 |
| 20260506184932 | 26 | 360 | 8.0 | 16.1 | 0.00 | 0.00 | 0.00 | 70 | 1012.6 |
| 20260506184816 | 26 | 360 | 8.0 | 16.1 | 0.00 | 0.00 | 0.00 | 69 | 1012.6 |
| 20260506184716 | 26 | 32 | 8.0 | 16.1 | 0.00 | 0.00 | 0.00 | 70 | 1012.5 |
| 20260506184617 | 26 | 360 | 8.0 | 16.1 | 0.00 | 0.00 | 0.00 | 69 | 1012.5 |
| 20260506184517 | 26 | 360 | 8.0 | 16.1 | 0.00 | 0.00 | 0.00 | 70 | 1012.4 |
| 20260506184418 | 26 | 360 | 8.0 | 14.5 | 0.00 | 0.00 | 0.00 | 70 | 1012.4 |
| 20260506184319 | 26 | 360 | 8.0 | 14.5 | 0.00 | 0.00 | 0.00 | 69 | 1012.4 |
| 20260506184223 | 26 | 360 | 8.0 | 14.5 | 0.00 | 0.00 | 0.00 | 69 | 1012.4 |
| 20260506184123 | 26 | 360 | 6.4 | 14.5 | 0.00 | 0.00 | 0.00 | 70 | 1012.3 |
| 20260506184024 | 26 | 360 | 4.8 | 14.5 | 0.00 | 0.00 | 0.00 | 72 | 1012.3 |
| 20260506183924 | 26 | 360 | 4.8 | 12.9 | 0.00 | 0.00 | 0.00 | 72 | 1012.3 |
| 20260506183825 | 26 | 360 | 6.4 | 12.9 | 0.00 | 0.00 | 0.00 | 71 | 1012.3 |
| 20260506183745 | 26 | 360 | 6.4 | 12.9 | 0.00 | 0.00 | 0.00 | 71 | 1012.4 |
| 20260506183625 | 26 | 15 | 6.4 | 12.9 | 0.00 | 0.00 | 0.00 | 71 | 1012.3 |
| 20260506183529 | 26 | 360 | 6.4 | 12.9 | 0.00 | 0.00 | 0.00 | 72 | 1012.3 |
| 20260506183430 | 26 | 360 | 6.4 | 12.9 | 0.00 | 0.00 | 0.00 | 72 | 1012.3 |
| 20260506183351 | 26 | 360 | 6.4 | 12.9 | 0.00 | 0.00 | 0.00 | 72 | 1012.3 |
| 20260506183230 | 25 | 360 | 6.4 | 12.9 | 0.00 | 0.00 | 0.00 | 71 | 1012.2 |
| 20260506183130 | 26 | 360 | 6.4 | 12.9 | 0.00 | 0.00 | 0.00 | 71 | 1012.2 |
| 20260506183052 | 26 | 27 | 6.4 | 12.9 | 0.00 | 0.00 | 0.00 | 72 | 1012.2 |
| 20260506182951 | 26 | 360 | 4.8 | 12.9 | 0.00 | 0.00 | 0.00 | 72 | 1012.2 |
| 20260506182831 | 26 | 360 | 3.2 | 8.0 | 0.00 | 0.00 | 0.00 | 72 | 1012.2 |
| 20260506182755 | 26 | 360 | 3.2 | 8.0 | 0.00 | 0.00 | 0.00 | 72 | 1012.2 |
| 20260506182632 | 25 | 360 | 3.2 | 8.0 | 0.00 | 0.00 | 0.00 | 74 | 1012.3 |
| 20260506182553 | 25 | 360 | 3.2 | 9.7 | 0.00 | 0.00 | 0.00 | 74 | 1012.3 |
| 20260506182432 | 25 | 360 | 4.8 | 9.7 | 0.00 | 0.00 | 0.00 | 74 | 1012.3 |
| 20260506182332 | 25 | 360 | 4.8 | 9.7 | 0.00 | 0.00 | 0.00 | 74 | 1012.3 |
| 20260506182232 | 25 | 360 | 6.4 | 9.7 | 0.00 | 0.00 | 0.00 | 74 | 1012.3 |
| 20260506182132 | 24 | 360 | 6.4 | 9.7 | 0.00 | 0.00 | 0.00 | 74 | 1012.3 |
| 20260506182017 | 25 | 360 | 6.4 | 9.7 | 0.00 | 0.00 | 0.00 | 74 | 1012.4 |
| 20260506181918 | 25 | 360 | 6.4 | 9.7 | 0.00 | 0.00 | 0.00 | 74 | 1012.4 |
| 20260506181818 | 25 | 360 | 6.4 | 9.7 | 0.00 | 0.00 | 0.00 | 74 | 1012.4 |
| 20260506181718 | 25 | 360 | 6.4 | 9.7 | 0.00 | 0.00 | 0.00 | 74 | 1012.5 |
| 20260506181619 | 24 | 360 | 6.4 | 9.7 | 0.00 | 0.00 | 0.00 | 74 | 1012.5 |
| 20260506181519 | 25 | 360 | 4.8 | 12.9 | 0.00 | 0.00 | 0.00 | 74 | 1012.5 |
| 20260506181424 | 25 | 360 | 4.8 | 12.9 | 0.00 | 0.00 | 0.00 | 74 | 1012.5 |
| 20260506181325 | 25 | 360 | 4.8 | 12.9 | 0.00 | 0.00 | 0.00 | 75 | 1012.5 |
| 20260506181225 | 25 | 360 | 4.8 | 12.9 | 0.00 | 0.00 | 0.00 | 74 | 1012.5 |
| 20260506181146 | 24 | 360 | 4.8 | 9.7 | 0.00 | 0.00 | 0.00 | 74 | 1012.5 |
| 20260506181045 | 24 | 360 | 6.4 | 9.7 | 0.00 | 0.00 | 0.00 | 74 | 1012.5 |
| 20260506180925 | 24 | 360 | 6.4 | 9.7 | 0.00 | 0.00 | 0.00 | 75 | 1012.5 |
| 20260506180825 | 24 | 360 | 6.4 | 9.7 | 0.00 | 0.00 | 0.00 | 75 | 1012.4 |
| 20260506180725 | 24 | 360 | 6.4 | 9.7 | 0.00 | 0.00 | 0.00 | 75 | 1012.5 |
| 20260506180650 | 24 | 360 | 4.8 | 9.7 | 0.00 | 0.00 | 0.00 | 75 | 1012.5 |
| 20260506180530 | 24 | 360 | 4.8 | 9.7 | 0.00 | 0.00 | 0.00 | 75 | 1012.5 |
| 20260506180430 | 24 | 360 | 4.8 | 9.7 | 0.00 | 0.00 | 0.00 | 75 | 1012.5 |
| 20260506180331 | 24 | 360 | 4.8 | 9.7 | 0.00 | 0.00 | 0.00 | 75 | 1012.5 |
| 20260506180251 | 24 | 360 | 4.8 | 9.7 | 0.00 | 0.00 | 0.00 | 75 | 1012.4 |
| 20260506180131 | 23 | 360 | 4.8 | 12.9 | 0.00 | 0.00 | 0.00 | 75 | 1012.5 |
| 20260506180032 | 23 | 360 | 4.8 | 12.9 | 0.00 | 0.00 | 0.00 | 75 | 1012.5 |
| 20260506175952 | 23 | 46 | 6.4 | 12.9 | 0.00 | 0.00 | 0.00 | 75 | 1012.4 |
| 20260506175818 | 23 | 67 | 6.4 | 12.9 | 0.00 | 0.00 | 0.00 | 75 | 1012.4 |
| 20260506175717 | 23 | 360 | 6.4 | 12.9 | 0.00 | 0.00 | 0.00 | 75 | 1012.4 |
| 20260506175616 | 23 | 360 | 6.4 | 12.9 | 0.00 | 0.00 | 0.00 | 75 | 1012.4 |
| 20260506175517 | 23 | 360 | 6.4 | 12.9 | 0.00 | 0.00 | 0.00 | 74 | 1012.3 |
| 20260506175417 | 23 | 360 | 6.4 | 12.9 | 0.00 | 0.00 | 0.00 | 75 | 1012.4 |
| 20260506175318 | 23 | 360 | 6.4 | 12.9 | 0.00 | 0.00 | 0.00 | 74 | 1012.4 |
| 20260506175222 | 23 | 360 | 4.8 | 12.9 | 0.00 | 0.00 | 0.00 | 74 | 1012.4 |
| 20260506175124 | 24 | 360 | 4.8 | 12.9 | 0.00 | 0.00 | 0.00 | 74 | 1012.3 |
| 20260506175025 | 24 | 360 | 4.8 | 12.9 | 0.00 | 0.00 | 0.00 | 74 | 1012.4 |
| 20260506174924 | 24 | 360 | 3.2 | 9.7 | 0.00 | 0.00 | 0.00 | 75 | 1012.3 |
| 20260506174825 | 23 | 360 | 3.2 | 9.7 | 0.00 | 0.00 | 0.00 | 76 | 1012.4 |
| 20260506174726 | 23 | 360 | 1.6 | 9.7 | 0.00 | 0.00 | 0.00 | 77 | 1012.4 |
| 20260506174647 | 23 | 360 | 1.6 | 9.7 | 0.00 | 0.00 | 0.00 | 77 | 1012.4 |
| 20260506174529 | 23 | 360 | 3.2 | 9.7 | 0.00 | 0.00 | 0.00 | 79 | 1012.3 |
| 20260506174430 | 22 | 360 | 3.2 | 9.7 | 0.00 | 0.00 | 0.00 | 79 | 1012.4 |
| 20260506174332 | 22 | 360 | 4.8 | 9.7 | 0.00 | 0.00 | 0.00 | 79 | 1012.4 |
| 20260506174253 | 22 | 360 | 4.8 | 9.7 | 0.00 | 0.00 | 0.00 | 79 | 1012.4 |
| 20260506174132 | 22 | 360 | 6.4 | 9.7 | 0.00 | 0.00 | 0.00 | 79 | 1012.4 |
| 20260506174033 | 22 | 360 | 6.4 | 9.7 | 0.00 | 0.00 | 0.00 | 79 | 1012.4 |
| 20260506173934 | 22 | 80 | 6.4 | 9.7 | 0.00 | 0.00 | 0.00 | 79 | 1012.4 |
| 20260506173819 | 22 | 59 | 6.4 | 19.3 | 0.00 | 0.00 | 0.00 | 79 | 1012.4 |
| 20260506173739 | 22 | 360 | 6.4 | 19.3 | 0.00 | 0.00 | 0.00 | 80 | 1012.5 |
| 20260506173618 | 21 | 360 | 6.4 | 19.3 | 0.00 | 0.00 | 0.00 | 80 | 1012.5 |
| 20260506173517 | 21 | 360 | 4.8 | 19.3 | 0.00 | 0.00 | 0.00 | 80 | 1012.6 |
| 20260506173437 | 21 | 360 | 4.8 | 19.3 | 0.00 | 0.00 | 0.00 | 80 | 1012.6 |
| 20260506173317 | 21 | 360 | 6.4 | 19.3 | 0.00 | 0.00 | 0.00 | 79 | 1012.7 |
| 20260506173218 | 21 | 360 | 8.0 | 19.3 | 0.00 | 0.00 | 0.00 | 79 | 1012.7 |
| 20260506173118 | 21 | 360 | 8.0 | 19.3 | 0.00 | 0.00 | 0.00 | 78 | 1012.7 |
| 20260506173023 | 21 | 360 | 8.0 | 16.1 | 0.00 | 0.00 | 0.00 | 78 | 1012.7 |
| 20260506172922 | 22 | 360 | 8.0 | 12.9 | 0.00 | 0.00 | 0.00 | 78 | 1012.7 |
| 20260506172824 | 22 | 360 | 6.4 | 12.9 | 0.00 | 0.00 | 0.00 | 78 | 1012.6 |
| 20260506172723 | 22 | 360 | 4.8 | 12.9 | 0.00 | 0.00 | 0.00 | 78 | 1012.6 |
| 20260506172624 | 22 | 360 | 4.8 | 12.9 | 0.00 | 0.00 | 0.00 | 78 | 1012.6 |
| 20260506172525 | 22 | 360 | 4.8 | 12.9 | 0.00 | 0.00 | 0.00 | 79 | 1012.7 |
| 20260506172425 | 22 | 360 | 4.8 | 12.9 | 0.00 | 0.00 | 0.00 | 79 | 1012.6 |
| 20260506172330 | 22 | 360 | 3.2 | 12.9 | 0.00 | 0.00 | 0.00 | 79 | 1012.6 |
| 20260506172229 | 22 | 360 | 3.2 | 14.5 | 0.00 | 0.00 | 0.00 | 80 | 1012.6 |
| 20260506172131 | 21 | 360 | 1.6 | 14.5 | 0.00 | 0.00 | 0.00 | 81 | 1012.6 |
| 20260506172031 | 21 | 360 | 1.6 | 14.5 | 0.00 | 0.00 | 0.00 | 81 | 1012.6 |
| 20260506171932 | 21 | 360 | 3.2 | 14.5 | 0.00 | 0.00 | 0.00 | 82 | 1012.6 |
| 20260506171832 | 21 | 360 | 6.4 | 14.5 | 0.00 | 0.00 | 0.00 | 82 | 1012.7 |
| 20260506171716 | 20 | 360 | 6.4 | 14.5 | 0.00 | 0.00 | 0.00 | 81 | 1012.7 |
| 20260506171617 | 20 | 360 | 8.0 | 14.5 | 0.00 | 0.00 | 0.00 | 80 | 1012.7 |
| 20260506171518 | 20 | 360 | 6.4 | 14.5 | 0.00 | 0.00 | 0.00 | 80 | 1012.8 |
| 20260506171439 | 21 | 360 | 6.4 | 14.5 | 0.00 | 0.00 | 0.00 | 80 | 1012.8 |
| 20260506171318 | 20 | 360 | 6.4 | 14.5 | 0.00 | 0.00 | 0.00 | 81 | 1012.7 |
| 20260506171238 | 20 | 360 | 8.0 | 14.5 | 0.00 | 0.00 | 0.00 | 81 | 1012.8 |
| 20260506171137 | 20 | 360 | 8.0 | 14.5 | 0.00 | 0.00 | 0.00 | 81 | 1012.7 |
| 20260506171018 | 20 | 360 | 8.0 | 14.5 | 0.00 | 0.00 | 0.00 | 81 | 1012.7 |
| 20260506170943 | 20 | 360 | 8.0 | 14.5 | 0.00 | 0.00 | 0.00 | 81 | 1012.7 |
| 20260506170822 | 20 | 360 | 8.0 | 14.5 | 0.00 | 0.00 | 0.00 | 82 | 1012.6 |
| 20260506170743 | 20 | 360 | 8.0 | 14.5 | 0.00 | 0.00 | 0.00 | 82 | 1012.7 |
| 20260506170621 | 20 | 360 | 8.0 | 14.5 | 0.00 | 0.00 | 0.00 | 82 | 1012.7 |
| 20260506170542 | 20 | 360 | 8.0 | 14.5 | 0.00 | 0.00 | 0.00 | 82 | 1012.7 |
| 20260506170416 | 20 | 360 | 6.4 | 16.1 | 0.00 | 0.00 | 0.00 | 83 | 1012.8 |
| 20260506170317 | 20 | 360 | 6.4 | 16.1 | 0.00 | 0.00 | 0.00 | 83 | 1012.8 |
| 20260506170216 | 19 | 360 | 8.0 | 16.1 | 0.00 | 0.00 | 0.00 | 83 | 1012.8 |
| 20260506170121 | 19 | 69 | 8.0 | 16.1 | 0.00 | 0.00 | 0.00 | 82 | 1012.8 |
| 20260506170042 | 19 | 57 | 8.0 | 16.1 | 0.00 | 0.00 | 0.00 | 82 | 1012.9 |
| 20260506165921 | 20 | 360 | 6.4 | 16.1 | 0.00 | 0.00 | 0.00 | 82 | 1012.9 |
| 20260506165843 | 20 | 360 | 6.4 | 16.1 | 0.00 | 0.00 | 0.00 | 82 | 1012.9 |
| 20260506165716 | 20 | 360 | 8.0 | 16.1 | 0.00 | 0.00 | 0.00 | 83 | 1012.9 |
| 20260506165616 | 19 | 360 | 9.7 | 16.1 | 0.00 | 0.00 | 0.00 | 83 | 1012.9 |
| 20260506165517 | 19 | 360 | 9.7 | 17.7 | 0.00 | 0.00 | 0.00 | 82 | 1012.9 |
| 20260506165421 | 19 | 360 | 11.3 | 17.7 | 0.00 | 0.00 | 0.00 | 82 | 1012.9 |
| 20260506165322 | 19 | 360 | 9.7 | 17.7 | 0.00 | 0.00 | 0.00 | 82 | 1013.0 |
| 20260506165222 | 19 | 360 | 9.7 | 17.7 | 0.00 | 0.00 | 0.00 | 83 | 1012.9 |
| 20260506165123 | 19 | 360 | 8.0 | 19.3 | 0.00 | 0.00 | 0.00 | 83 | 1012.9 |
| 20260506165023 | 19 | 360 | 8.0 | 19.3 | 0.00 | 0.00 | 0.00 | 83 | 1013.0 |
| 20260506164924 | 19 | 360 | 6.4 | 22.5 | 0.00 | 0.00 | 0.00 | 83 | 1013.0 |
| 20260506164829 | 19 | 360 | 8.0 | 22.5 | 0.00 | 0.00 | 0.00 | 83 | 1013.0 |
| 20260506164730 | 19 | 360 | 9.7 | 22.5 | 0.00 | 0.00 | 0.00 | 82 | 1013.1 |
| 20260506164632 | 19 | 360 | 9.7 | 22.5 | 0.00 | 0.00 | 0.00 | 83 | 1013.0 |
| 20260506164532 | 19 | 360 | 11.3 | 22.5 | 0.00 | 0.00 | 0.00 | 83 | 1013.2 |
| 20260506164433 | 19 | 360 | 11.3 | 22.5 | 0.00 | 0.00 | 0.00 | 83 | 1013.2 |
| 20260506164334 | 19 | 360 | 12.9 | 22.5 | 0.00 | 0.00 | 0.00 | 83 | 1013.1 |
| 20260506164219 | 19 | 360 | 12.9 | 22.5 | 0.00 | 0.00 | 0.00 | 84 | 1013.1 |
| 20260506164119 | 19 | 360 | 12.9 | 22.5 | 0.00 | 0.00 | 0.00 | 84 | 1013.0 |
| 20260506164019 | 19 | 360 | 11.3 | 19.3 | 0.00 | 0.00 | 0.00 | 84 | 1013.0 |
| 20260506163919 | 19 | 360 | 11.3 | 19.3 | 0.00 | 0.00 | 0.00 | 84 | 1013.1 |
| 20260506163840 | 19 | 360 | 11.3 | 19.3 | 0.00 | 0.00 | 0.00 | 84 | 1013.1 |
| 20260506163719 | 19 | 360 | 12.9 | 19.3 | 0.00 | 0.00 | 0.00 | 84 | 1013.1 |
| 20260506163619 | 18 | 360 | 11.3 | 19.3 | 0.00 | 0.00 | 0.00 | 85 | 1013.1 |
| 20260506163521 | 18 | 360 | 11.3 | 19.3 | 0.00 | 0.00 | 0.00 | 85 | 1013.2 |
| 20260506163424 | 18 | 360 | 11.3 | 22.5 | 0.00 | 0.00 | 0.00 | 85 | 1013.2 |
| 20260506163325 | 18 | 360 | 9.7 | 33.8 | 0.00 | 0.00 | 0.00 | 85 | 1013.3 |
| 20260506163225 | 18 | 360 | 9.7 | 33.8 | 0.00 | 0.00 | 0.00 | 85 | 1013.2 |
| 20260506163126 | 18 | 360 | 9.7 | 33.8 | 0.00 | 0.00 | 0.00 | 85 | 1013.2 |
| 20260506163027 | 18 | 360 | 9.7 | 33.8 | 0.00 | 0.00 | 0.00 | 85 | 1013.3 |
| 20260506162927 | 18 | 360 | 9.7 | 33.8 | 0.00 | 0.00 | 0.00 | 85 | 1013.4 |
| 20260506162826 | 18 | 360 | 11.3 | 33.8 | 0.00 | 0.00 | 0.00 | 85 | 1013.4 |
| 20260506162731 | 18 | 360 | 12.9 | 33.8 | 0.00 | 0.00 | 0.00 | 85 | 1013.4 |
| 20260506162629 | 18 | 360 | 16.1 | 33.8 | 0.00 | 0.00 | 0.00 | 85 | 1013.5 |
| 20260506162530 | 18 | 360 | 17.7 | 33.8 | 0.00 | 0.00 | 0.00 | 85 | 1013.7 |
| 20260506162431 | 18 | 360 | 19.3 | 33.8 | 0.00 | 0.00 | 0.00 | 85 | 1013.7 |
| 20260506162331 | 18 | 360 | 19.3 | 33.8 | 0.00 | 0.00 | 0.00 | 85 | 1013.8 |
| 20260506162232 | 18 | 360 | 17.7 | 33.8 | 0.00 | 0.00 | 0.00 | 84 | 1013.9 |
| 20260506162133 | 18 | 360 | 17.7 | 38.6 | 0.00 | 0.00 | 0.00 | 84 | 1014.0 |
| 20260506162016 | 18 | 360 | 16.1 | 38.6 | 0.00 | 0.00 | 0.00 | 85 | 1014.0 |
| 20260506161917 | 18 | 360 | 16.1 | 38.6 | 0.00 | 0.00 | 0.00 | 85 | 1014.1 |
| 20260506161818 | 18 | 360 | 17.7 | 41.8 | 0.00 | 0.00 | 0.00 | 85 | 1014.1 |
| 20260506161738 | 18 | 360 | 17.7 | 41.8 | 0.00 | 0.00 | 0.00 | 85 | 1014.1 |
| 20260506161617 | 18 | 360 | 17.7 | 41.8 | 0.00 | 0.00 | 0.00 | 85 | 1014.2 |
| 20260506161517 | 18 | 360 | 19.3 | 41.8 | 0.00 | 0.00 | 0.00 | 85 | 1014.2 |
| 20260506161418 | 18 | 360 | 20.9 | 41.8 | 0.00 | 0.00 | 0.00 | 84 | 1014.2 |
| 20260506161322 | 19 | 360 | 22.5 | 41.8 | 0.00 | 0.00 | 0.00 | 84 | 1014.2 |
| 20260506161222 | 19 | 360 | 22.5 | 41.8 | 0.00 | 0.00 | 0.00 | 84 | 1014.3 |
| 20260506161123 | 19 | 360 | 22.5 | 41.8 | 0.00 | 0.00 | 0.00 | 84 | 1014.4 |
| 20260506161022 | 19 | 360 | 22.5 | 41.8 | 0.00 | 0.00 | 0.00 | 84 | 1014.4 |
| 20260506160922 | 19 | 360 | 20.9 | 41.8 | 0.00 | 0.00 | 0.00 | 84 | 1014.4 |
| 20260506160821 | 19 | 360 | 20.9 | 41.8 | 0.00 | 0.00 | 0.00 | 84 | 1014.4 |
| 20260506160722 | 20 | 360 | 19.3 | 29.0 | 0.00 | 0.00 | 0.00 | 84 | 1014.4 |
| 20260506160623 | 20 | 360 | 19.3 | 29.0 | 0.00 | 0.00 | 0.00 | 84 | 1014.3 |
| 20260506160527 | 20 | 360 | 17.7 | 29.0 | 0.00 | 0.00 | 0.00 | 84 | 1014.3 |
| 20260506160427 | 20 | 360 | 16.1 | 30.6 | 0.00 | 0.00 | 0.00 | 84 | 1014.2 |
| 20260506160327 | 20 | 360 | 16.1 | 30.6 | 0.00 | 0.00 | 0.00 | 84 | 1014.1 |
| 20260506160225 | 20 | 360 | 16.1 | 30.6 | 0.00 | 0.00 | 0.00 | 84 | 1013.8 |
| 20260506160126 | 20 | 360 | 16.1 | 30.6 | 0.00 | 0.00 | 0.00 | 84 | 1013.8 |
| 20260506160046 | 20 | 360 | 19.3 | 35.4 | 0.00 | 0.00 | 0.00 | 84 | 1013.4 |
| 20260506155926 | 20 | 360 | 19.3 | 35.4 | 0.00 | 0.00 | 0.00 | 84 | 1013.4 |
| 20260506155830 | 20 | 360 | 20.9 | 35.4 | 0.00 | 0.00 | 0.00 | 83 | 1013.3 |
| 20260506155751 | 20 | 360 | 20.9 | 35.4 | 0.00 | 0.00 | 0.00 | 83 | 1013.3 |
| 20260506155631 | 20 | 360 | 19.3 | 35.4 | 0.00 | 0.00 | 0.00 | 83 | 1013.3 |
| 20260506155530 | 20 | 360 | 20.9 | 35.4 | 0.00 | 0.00 | 0.00 | 83 | 1013.3 |
| 20260506155430 | 20 | 360 | 19.3 | 35.4 | 0.00 | 0.00 | 0.00 | 83 | 1013.4 |
| 20260506155331 | 20 | 360 | 19.3 | 35.4 | 0.00 | 0.00 | 0.00 | 83 | 1013.5 |
| 20260506155231 | 21 | 360 | 19.3 | 35.4 | 0.00 | 0.00 | 0.00 | 82 | 1013.5 |
| 20260506155135 | 21 | 360 | 17.7 | 29.0 | 0.00 | 0.00 | 0.00 | 82 | 1013.4 |
| 20260506155035 | 21 | 360 | 16.1 | 25.7 | 0.00 | 0.00 | 0.00 | 82 | 1013.5 |
| 20260506154936 | 21 | 360 | 12.9 | 22.5 | 0.00 | 0.00 | 0.00 | 82 | 1013.4 |
| 20260506154856 | 21 | 360 | 12.9 | 22.5 | 0.00 | 0.00 | 0.00 | 82 | 1013.4 |
| 20260506154733 | 21 | 360 | 12.9 | 22.5 | 0.00 | 0.00 | 0.00 | 82 | 1013.4 |
| 20260506154634 | 22 | 360 | 14.5 | 22.5 | 0.00 | 0.00 | 0.00 | 82 | 1013.3 |
| 20260506154518 | 22 | 360 | 14.5 | 22.5 | 0.00 | 0.00 | 0.00 | 81 | 1013.0 |
| 20260506154419 | 22 | 360 | 16.1 | 22.5 | 0.00 | 0.00 | 0.00 | 81 | 1013.0 |
| 20260506154319 | 22 | 360 | 16.1 | 22.5 | 0.00 | 0.00 | 0.00 | 80 | 1012.9 |
| 20260506154239 | 22 | 360 | 14.5 | 20.9 | 0.00 | 0.00 | 0.00 | 80 | 1012.8 |
| 20260506154118 | 23 | 360 | 14.5 | 20.9 | 0.00 | 0.00 | 0.00 | 80 | 1012.7 |
| 20260506154019 | 23 | 360 | 14.5 | 20.9 | 0.00 | 0.00 | 0.00 | 80 | 1012.8 |
| 20260506153919 | 23 | 360 | 12.9 | 20.9 | 0.00 | 0.00 | 0.00 | 80 | 1012.7 |
| 20260506153823 | 24 | 360 | 11.3 | 20.9 | 0.00 | 0.00 | 0.00 | 82 | 1012.8 |
| 20260506153722 | 25 | 360 | 9.7 | 20.9 | 0.00 | 0.00 | 0.00 | 84 | 1012.8 |
| 20260506153642 | 25 | 360 | 6.4 | 16.1 | 0.00 | 0.00 | 0.00 | 84 | 1012.7 |
| 20260506153522 | 25 | 360 | 4.8 | 12.9 | 0.00 | 0.00 | 0.00 | 85 | 1012.7 |
| 20260506153442 | 25 | 360 | 3.2 | 6.4 | 0.00 | 0.00 | 0.00 | 85 | 1012.7 |
| 20260506153322 | 25 | 360 | 1.6 | 6.4 | 0.00 | 0.00 | 0.00 | 85 | 1012.7 |
| 20260506153223 | 25 | 360 | 1.6 | 6.4 | 0.00 | 0.00 | 0.00 | 85 | 1012.7 |
| 20260506153123 | 25 | 149 | 1.6 | 6.4 | 0.00 | 0.00 | 0.00 | 85 | 1012.7 |
| 20260506153027 | 25 | 360 | 0.0 | 4.8 | 0.00 | 0.00 | 0.00 | 85 | 1012.7 |
| 20260506152927 | 25 | 360 | 0.0 | 4.8 | 0.00 | 0.00 | 0.00 | 85 | 1012.6 |
| 20260506152849 | 25 | 360 | 1.6 | 4.8 | 0.00 | 0.00 | 0.00 | 85 | 1012.6 |
| 20260506152725 | 25 | 360 | 1.6 | 4.8 | 0.00 | 0.00 | 0.00 | 85 | 1012.6 |
| 20260506152626 | 25 | 360 | 1.6 | 4.8 | 0.00 | 0.00 | 0.00 | 85 | 1012.6 |
| 20260506152525 | 25 | 360 | 3.2 | 4.8 | 0.00 | 0.00 | 0.00 | 85 | 1012.5 |
| 20260506152426 | 25 | 360 | 3.2 | 4.8 | 0.00 | 0.00 | 0.00 | 85 | 1012.5 |
| 20260506152325 | 25 | 360 | 3.2 | 4.8 | 0.00 | 0.00 | 0.00 | 85 | 1012.3 |
| 20260506152230 | 25 | 360 | 1.6 | 4.8 | 0.00 | 0.00 | 0.00 | 85 | 1012.3 |
| 20260506152131 | 25 | 360 | 1.6 | 4.8 | 0.00 | 0.00 | 0.00 | 85 | 1012.3 |
| 20260506152031 | 25 | 360 | 1.6 | 4.8 | 0.00 | 0.00 | 0.00 | 85 | 1012.1 |
| 20260506151931 | 25 | 360 | 1.6 | 4.8 | 0.00 | 0.00 | 0.00 | 85 | 1012.1 |
| 20260506151831 | 25 | 360 | 1.6 | 4.8 | 0.00 | 0.00 | 0.00 | 85 | 1012.0 |
| 20260506151732 | 25 | 360 | 1.6 | 6.4 | 0.00 | 0.00 | 0.00 | 85 | 1012.0 |
| 20260506151633 | 25 | 360 | 3.2 | 6.4 | 0.00 | 0.00 | 0.00 | 85 | 1012.0 |
| 20260506151558 | 25 | 360 | 3.2 | 6.4 | 0.00 | 0.00 | 0.00 | 85 | 1012.0 |
| 20260506151457 | 25 | 360 | 3.2 | 6.4 | 0.00 | 0.00 | 0.00 | 85 | 1012.1 |
| 20260506151316 | 25 | 360 | 3.2 | 6.4 | 0.00 | 0.00 | 0.00 | 85 | 1012.2 |
| 20260506151217 | 25 | 360 | 3.2 | 6.4 | 0.00 | 0.00 | 0.00 | 85 | 1012.2 |
| 20260506151118 | 25 | 360 | 3.2 | 6.4 | 0.00 | 0.00 | 0.00 | 85 | 1012.2 |
| 20260506151018 | 25 | 360 | 4.8 | 6.4 | 0.00 | 0.00 | 0.00 | 85 | 1012.1 |
| 20260506150918 | 25 | 360 | 4.8 | 6.4 | 0.00 | 0.00 | 0.00 | 85 | 1012.1 |
| 20260506150843 | 25 | 360 | 3.2 | 6.4 | 0.00 | 0.00 | 0.00 | 85 | 1012.0 |
| 20260506150722 | 25 | 360 | 1.6 | 6.4 | 0.00 | 0.00 | 0.00 | 85 | 1012.0 |
| 20260506150622 | 25 | 360 | 1.6 | 8.0 | 0.00 | 0.00 | 0.00 | 85 | 1011.9 |
| 20260506150521 | 25 | 360 | 0.0 | 8.0 | 0.00 | 0.00 | 0.00 | 85 | 1012.0 |
| 20260506150442 | 25 | 360 | 1.6 | 8.0 | 0.00 | 0.00 | 0.00 | 85 | 1012.0 |
| 20260506150321 | 25 | 360 | 1.6 | 8.0 | 0.00 | 0.00 | 0.00 | 85 | 1011.9 |
| 20260506150221 | 25 | 360 | 3.2 | 8.0 | 0.00 | 0.00 | 0.00 | 85 | 1011.9 |
| 20260506150123 | 25 | 360 | 3.2 | 12.9 | 0.00 | 0.00 | 0.00 | 85 | 1011.9 |
| 20260506150027 | 25 | 360 | 4.8 | 12.9 | 0.00 | 0.00 | 0.00 | 85 | 1011.9 |
| 20260506145928 | 25 | 360 | 4.8 | 12.9 | 0.00 | 0.00 | 0.00 | 85 | 1011.9 |
| 20260506145829 | 24 | 360 | 4.8 | 12.9 | 0.00 | 0.00 | 0.00 | 85 | 1011.9 |
| 20260506145731 | 24 | 360 | 4.8 | 12.9 | 0.00 | 0.00 | 0.00 | 85 | 1011.9 |
| 20260506145630 | 24 | 360 | 4.8 | 12.9 | 0.00 | 0.00 | 0.00 | 85 | 1011.8 |
| 20260506145528 | 25 | 360 | 6.4 | 12.9 | 0.00 | 0.00 | 0.00 | 85 | 1011.8 |
| 20260506145429 | 25 | 360 | 8.0 | 12.9 | 0.00 | 0.00 | 0.00 | 85 | 1011.7 |
| 20260506145334 | 25 | 360 | 8.0 | 12.9 | 0.00 | 0.00 | 0.00 | 85 | 1011.7 |
| 20260506145233 | 25 | 360 | 8.0 | 12.9 | 0.00 | 0.00 | 0.00 | 85 | 1011.7 |
| 20260506145133 | 25 | 360 | 8.0 | 12.9 | 0.00 | 0.00 | 0.00 | 85 | 1011.6 |
| 20260506145034 | 25 | 360 | 6.4 | 12.9 | 0.00 | 0.00 | 0.00 | 85 | 1011.6 |
| 20260506144934 | 25 | 360 | 8.0 | 12.9 | 0.00 | 0.00 | 0.00 | 85 | 1011.6 |
| 20260506144835 | 25 | 360 | 6.4 | 12.9 | 0.00 | 0.00 | 0.00 | 85 | 1011.6 |
| 20260506144719 | 25 | 360 | 6.4 | 12.9 | 0.00 | 0.00 | 0.00 | 85 | 1011.4 |
| 20260506144619 | 25 | 360 | 6.4 | 12.9 | 0.00 | 0.00 | 0.00 | 85 | 1011.4 |
| 20260506144518 | 25 | 360 | 6.4 | 12.9 | 0.00 | 0.00 | 0.00 | 85 | 1011.4 |
| 20260506144418 | 25 | 360 | 8.0 | 12.9 | 0.00 | 0.00 | 0.00 | 85 | 1011.4 |
| 20260506144319 | 25 | 360 | 8.0 | 12.9 | 0.00 | 0.00 | 0.00 | 85 | 1011.5 |
| 20260506144218 | 25 | 360 | 8.0 | 12.9 | 0.00 | 0.00 | 0.00 | 85 | 1011.4 |
| 20260506144119 | 25 | 360 | 8.0 | 12.9 | 0.00 | 0.00 | 0.00 | 85 | 1011.5 |
| 20260506144039 | 24 | 360 | 8.0 | 12.9 | 0.00 | 0.00 | 0.00 | 85 | 1011.5 |
| 20260506143923 | 24 | 360 | 6.4 | 12.9 | 0.00 | 0.00 | 0.00 | 85 | 1011.4 |
| 20260506143823 | 24 | 360 | 6.4 | 12.9 | 0.00 | 0.00 | 0.00 | 85 | 1011.3 |
| 20260506143744 | 24 | 360 | 4.8 | 9.7 | 0.00 | 0.00 | 0.00 | 85 | 1011.3 |
| 20260506143623 | 25 | 360 | 3.2 | 9.7 | 0.00 | 0.00 | 0.00 | 85 | 1011.4 |
| 20260506143523 | 25 | 360 | 1.6 | 9.7 | 0.00 | 0.00 | 0.00 | 85 | 1011.5 |
| 20260506143444 | 25 | 360 | 1.6 | 8.0 | 0.00 | 0.00 | 0.00 | 86 | 1011.5 |
| 20260506143324 | 25 | 360 | 3.2 | 8.0 | 0.00 | 0.00 | 0.00 | 86 | 1011.4 |
| 20260506143228 | 25 | 360 | 3.2 | 8.0 | 0.00 | 0.00 | 0.00 | 86 | 1011.4 |
| 20260506143130 | 25 | 360 | 3.2 | 8.0 | 0.00 | 0.00 | 0.00 | 86 | 1011.4 |
| 20260506143030 | 25 | 360 | 1.6 | 8.0 | 0.00 | 0.00 | 0.00 | 86 | 1011.3 |
| 20260506142931 | 25 | 360 | 1.6 | 8.0 | 0.00 | 0.00 | 0.00 | 86 | 1011.2 |
| 20260506142852 | 24 | 360 | 1.6 | 8.0 | 0.00 | 0.00 | 0.00 | 86 | 1011.3 |
| 20260506142734 | 24 | 360 | 3.2 | 8.0 | 0.00 | 0.00 | 0.00 | 86 | 1011.2 |
| 20260506142632 | 24 | 360 | 3.2 | 8.0 | 0.00 | 0.00 | 0.00 | 86 | 1011.2 |
| 20260506142552 | 24 | 360 | 4.8 | 14.5 | 0.00 | 0.00 | 0.00 | 86 | 1011.2 |
| 20260506142435 | 24 | 360 | 4.8 | 14.5 | 0.00 | 0.00 | 0.00 | 87 | 1011.1 |
| 20260506142334 | 24 | 360 | 4.8 | 14.5 | 0.00 | 0.00 | 0.00 | 87 | 1011.1 |
| 20260506142235 | 24 | 360 | 4.8 | 14.5 | 0.00 | 0.00 | 0.00 | 87 | 1011.0 |
| 20260506142134 | 24 | 360 | 6.4 | 14.5 | 0.00 | 0.00 | 0.00 | 86 | 1010.9 |
| 20260506142035 | 24 | 360 | 6.4 | 14.5 | 0.00 | 0.00 | 0.00 | 86 | 1010.9 |
| 20260506141955 | 24 | 360 | 8.0 | 14.5 | 0.00 | 0.00 | 0.00 | 86 | 1010.9 |
| 20260506141834 | 24 | 360 | 8.0 | 14.5 | 0.00 | 0.00 | 0.00 | 86 | 1010.8 |
| 20260506141718 | 24 | 360 | 8.0 | 14.5 | 0.00 | 0.00 | 0.00 | 86 | 1010.8 |
| 20260506141619 | 24 | 360 | 9.7 | 14.5 | 0.00 | 0.00 | 0.00 | 86 | 1010.9 |
| 20260506141519 | 24 | 360 | 9.7 | 12.9 | 0.00 | 0.00 | 0.00 | 86 | 1010.9 |
| 20260506141420 | 24 | 360 | 9.7 | 12.9 | 0.00 | 0.00 | 0.00 | 86 | 1011.0 |
| 20260506141321 | 24 | 360 | 9.7 | 12.9 | 0.00 | 0.00 | 0.00 | 86 | 1011.0 |
| 20260506141223 | 24 | 360 | 8.0 | 12.9 | 0.00 | 0.00 | 0.00 | 86 | 1011.1 |
| 20260506141124 | 24 | 360 | 8.0 | 12.9 | 0.00 | 0.00 | 0.00 | 86 | 1011.2 |
| 20260506141027 | 24 | 360 | 6.4 | 9.7 | 0.00 | 0.00 | 0.00 | 86 | 1011.2 |
| 20260506140928 | 24 | 360 | 4.8 | 8.0 | 0.00 | 0.00 | 0.00 | 87 | 1011.3 |
| 20260506140827 | 24 | 360 | 4.8 | 8.0 | 0.00 | 0.00 | 0.00 | 87 | 1011.2 |
| 20260506140726 | 24 | 360 | 4.8 | 8.0 | 0.00 | 0.00 | 0.00 | 87 | 1011.3 |
| 20260506140626 | 24 | 360 | 4.8 | 8.0 | 0.00 | 0.00 | 0.00 | 87 | 1011.3 |
| 20260506140527 | 24 | 360 | 4.8 | 8.0 | 0.00 | 0.00 | 0.00 | 87 | 1011.3 |
| 20260506140427 | 24 | 360 | 4.8 | 8.0 | 0.00 | 0.00 | 0.00 | 87 | 1011.4 |
| 20260506140347 | 24 | 360 | 4.8 | 8.0 | 0.00 | 0.00 | 0.00 | 87 | 1011.4 |
| 20260506140251 | 24 | 360 | 4.8 | 8.0 | 0.00 | 0.00 | 0.00 | 87 | 1011.5 |
| 20260506140130 | 24 | 360 | 3.2 | 8.0 | 0.00 | 0.00 | 0.00 | 87 | 1011.5 |
| 20260506140030 | 24 | 360 | 3.2 | 8.0 | 0.00 | 0.00 | 0.00 | 87 | 1011.5 |
| 20260506135931 | 24 | 360 | 3.2 | 12.9 | 0.00 | 0.00 | 0.00 | 87 | 1011.4 |
| 20260506135832 | 24 | 360 | 3.2 | 12.9 | 0.00 | 0.00 | 0.00 | 87 | 1011.4 |
| 20260506135733 | 24 | 360 | 3.2 | 12.9 | 0.00 | 0.00 | 0.00 | 87 | 1011.5 |
| 20260506135618 | 24 | 360 | 3.2 | 12.9 | 0.00 | 0.00 | 0.00 | 87 | 1011.4 |
| 20260506135518 | 24 | 360 | 3.2 | 14.5 | 0.00 | 0.00 | 0.00 | 87 | 1011.4 |
| 20260506135418 | 24 | 360 | 3.2 | 14.5 | 0.00 | 0.00 | 0.00 | 87 | 1011.2 |
| 20260506135319 | 24 | 360 | 4.8 | 17.7 | 0.00 | 0.00 | 0.00 | 87 | 1011.2 |
| 20260506135218 | 24 | 360 | 6.4 | 17.7 | 0.00 | 0.00 | 0.00 | 87 | 1011.2 |
| 20260506135139 | 24 | 360 | 8.0 | 17.7 | 0.00 | 0.00 | 0.00 | 87 | 1011.1 |
| 20260506135017 | 24 | 360 | 8.0 | 17.7 | 0.00 | 0.00 | 0.00 | 87 | 1011.0 |
| 20260506134917 | 24 | 360 | 8.0 | 17.7 | 0.00 | 0.00 | 0.00 | 87 | 1010.9 |
| 20260506134822 | 24 | 360 | 9.7 | 17.7 | 0.00 | 0.00 | 0.00 | 87 | 1010.8 |
| 20260506134721 | 24 | 360 | 11.3 | 17.7 | 0.00 | 0.00 | 0.00 | 87 | 1010.7 |
| 20260506134623 | 23 | 360 | 11.3 | 17.7 | 0.00 | 0.00 | 0.00 | 87 | 1010.6 |
| 20260506134523 | 23 | 360 | 12.9 | 17.7 | 0.00 | 0.00 | 0.00 | 87 | 1010.6 |
| 20260506134444 | 23 | 360 | 12.9 | 17.7 | 0.00 | 0.00 | 0.00 | 87 | 1010.6 |
| 20260506134323 | 23 | 360 | 11.3 | 17.7 | 0.00 | 0.00 | 0.00 | 87 | 1010.6 |
| 20260506134244 | 23 | 360 | 9.7 | 17.7 | 0.00 | 0.00 | 0.00 | 87 | 1010.6 |
| 20260506134127 | 23 | 360 | 8.0 | 17.7 | 0.00 | 0.00 | 0.00 | 87 | 1010.6 |
| 20260506134027 | 23 | 360 | 6.4 | 14.5 | 0.00 | 0.00 | 0.00 | 88 | 1010.7 |
| 20260506133948 | 23 | 360 | 6.4 | 12.9 | 0.00 | 0.00 | 0.00 | 88 | 1010.7 |
| 20260506133829 | 23 | 360 | 6.4 | 14.5 | 0.00 | 0.00 | 0.00 | 88 | 1010.7 |
| 20260506133730 | 23 | 360 | 8.0 | 14.5 | 0.00 | 0.00 | 0.00 | 88 | 1010.7 |
| 20260506133630 | 23 | 360 | 8.0 | 14.5 | 0.00 | 0.00 | 0.00 | 88 | 1010.6 |
| 20260506133527 | 23 | 360 | 8.0 | 14.5 | 0.00 | 0.00 | 0.00 | 88 | 1010.7 |
| 20260506133448 | 23 | 360 | 6.4 | 14.5 | 0.00 | 0.00 | 0.00 | 88 | 1010.6 |
| 20260506133331 | 23 | 360 | 6.4 | 14.5 | 0.00 | 0.00 | 0.00 | 88 | 1010.6 |
| 20260506133232 | 23 | 360 | 6.4 | 14.5 | 0.00 | 0.00 | 0.00 | 88 | 1010.6 |
| 20260506133133 | 23 | 360 | 8.0 | 14.5 | 0.00 | 0.00 | 0.00 | 88 | 1010.6 |
| 20260506133032 | 23 | 360 | 8.0 | 14.5 | 0.00 | 0.00 | 0.00 | 88 | 1010.7 |
| 20260506132933 | 23 | 360 | 8.0 | 14.5 | 0.00 | 0.00 | 0.00 | 88 | 1010.6 |
| 20260506132835 | 23 | 360 | 8.0 | 14.5 | 0.00 | 0.00 | 0.00 | 88 | 1010.6 |
| 20260506132719 | 23 | 360 | 9.7 | 14.5 | 0.00 | 0.00 | 0.00 | 88 | 1010.6 |
| 20260506132619 | 23 | 360 | 8.0 | 14.5 | 0.00 | 0.00 | 0.00 | 88 | 1010.6 |
| 20260506132520 | 23 | 360 | 8.0 | 14.5 | 0.00 | 0.00 | 0.00 | 88 | 1010.6 |
| 20260506132421 | 23 | 360 | 8.0 | 14.5 | 0.00 | 0.00 | 0.00 | 88 | 1010.5 |
| 20260506132342 | 23 | 360 | 8.0 | 14.5 | 0.00 | 0.00 | 0.00 | 88 | 1010.5 |
| 20260506132221 | 23 | 360 | 8.0 | 14.5 | 0.00 | 0.00 | 0.00 | 88 | 1010.5 |
| 20260506132122 | 23 | 360 | 8.0 | 14.5 | 0.00 | 0.00 | 0.00 | 88 | 1010.5 |
| 20260506132027 | 23 | 360 | 8.0 | 14.5 | 0.00 | 0.00 | 0.00 | 89 | 1010.5 |
| 20260506131927 | 23 | 360 | 6.4 | 8.0 | 0.00 | 0.00 | 0.00 | 89 | 1010.5 |
| 20260506131827 | 23 | 360 | 6.4 | 14.5 | 0.00 | 0.00 | 0.00 | 89 | 1010.4 |
| 20260506131727 | 23 | 360 | 4.8 | 20.9 | 0.00 | 0.00 | 0.00 | 89 | 1010.5 |
| 20260506131648 | 23 | 360 | 4.8 | 20.9 | 0.00 | 0.00 | 0.00 | 89 | 1010.5 |
| 20260506131528 | 23 | 360 | 4.8 | 20.9 | 0.00 | 0.00 | 0.00 | 89 | 1010.5 |
| 20260506131428 | 23 | 360 | 4.8 | 20.9 | 0.00 | 0.00 | 0.00 | 89 | 1010.6 |
| 20260506131332 | 23 | 360 | 6.4 | 20.9 | 0.00 | 0.00 | 0.00 | 89 | 1010.5 |
| 20260506131253 | 23 | 360 | 9.7 | 20.9 | 0.00 | 0.00 | 0.00 | 89 | 1010.6 |
| 20260506131152 | 23 | 360 | 11.3 | 20.9 | 0.00 | 0.00 | 0.00 | 89 | 1010.5 |
| 20260506131031 | 23 | 360 | 12.9 | 20.9 | 0.00 | 0.00 | 0.00 | 89 | 1010.4 |
| 20260506130932 | 23 | 360 | 12.9 | 19.3 | 0.00 | 0.00 | 0.00 | 89 | 1010.5 |
| 20260506130833 | 23 | 360 | 9.7 | 17.7 | 0.00 | 0.00 | 0.00 | 89 | 1010.4 |
| 20260506130734 | 23 | 360 | 8.0 | 16.1 | 0.00 | 0.00 | 0.00 | 89 | 1010.4 |
| 20260506130619 | 23 | 360 | 6.4 | 12.9 | 0.00 | 0.00 | 0.00 | 89 | 1010.4 |
| 20260506130519 | 23 | 360 | 4.8 | 12.9 | 0.00 | 0.00 | 0.00 | 89 | 1010.5 |
| 20260506130419 | 23 | 360 | 6.4 | 14.5 | 0.00 | 0.00 | 0.00 | 89 | 1010.4 |
| 20260506130320 | 23 | 360 | 4.8 | 14.5 | 0.00 | 0.00 | 0.00 | 89 | 1010.5 |
| 20260506130220 | 23 | 360 | 6.4 | 14.5 | 0.00 | 0.00 | 0.00 | 89 | 1010.4 |
| 20260506130121 | 23 | 360 | 6.4 | 14.5 | 0.00 | 0.00 | 0.00 | 89 | 1010.4 |
| 20260506130021 | 23 | 360 | 6.4 | 14.5 | 0.00 | 0.00 | 0.00 | 89 | 1010.4 |
| 20260506125925 | 23 | 360 | 6.4 | 14.5 | 0.00 | 0.00 | 0.00 | 89 | 1010.4 |
| 20260506125826 | 23 | 360 | 6.4 | 14.5 | 0.00 | 0.00 | 0.00 | 89 | 1010.4 |
| 20260506125728 | 23 | 360 | 6.4 | 14.5 | 0.00 | 0.00 | 0.00 | 90 | 1010.4 |
| 20260506125628 | 23 | 360 | 6.4 | 14.5 | 0.00 | 0.00 | 0.00 | 90 | 1010.3 |
| 20260506125527 | 23 | 360 | 6.4 | 12.9 | 0.00 | 0.00 | 0.00 | 90 | 1010.3 |
| 20260506125427 | 23 | 360 | 4.8 | 12.9 | 0.00 | 0.00 | 0.00 | 90 | 1010.3 |
| 20260506125332 | 23 | 360 | 4.8 | 12.9 | 0.00 | 0.00 | 0.00 | 90 | 1010.1 |
| 20260506125232 | 23 | 360 | 6.4 | 12.9 | 0.00 | 0.00 | 0.00 | 90 | 1010.2 |
| 20260506125133 | 23 | 360 | 6.4 | 12.9 | 0.00 | 0.00 | 0.00 | 90 | 1010.2 |
| 20260506125053 | 23 | 360 | 6.4 | 12.9 | 0.00 | 0.00 | 0.00 | 90 | 1010.2 |
| 20260506124932 | 23 | 360 | 6.4 | 12.9 | 0.00 | 0.00 | 0.00 | 90 | 1010.2 |
| 20260506124832 | 23 | 360 | 6.4 | 12.9 | 0.00 | 0.00 | 0.00 | 90 | 1010.2 |
| 20260506124733 | 23 | 360 | 6.4 | 12.9 | 0.00 | 0.00 | 0.00 | 90 | 1010.2 |
| 20260506124617 | 23 | 360 | 4.8 | 9.7 | 0.00 | 0.00 | 0.00 | 90 | 1010.2 |
| 20260506124517 | 23 | 360 | 4.8 | 9.7 | 0.00 | 0.00 | 0.00 | 90 | 1010.2 |
| 20260506124437 | 23 | 360 | 3.2 | 6.4 | 0.00 | 0.00 | 0.00 | 90 | 1010.2 |
| 20260506124317 | 23 | 360 | 3.2 | 6.4 | 0.00 | 0.00 | 0.00 | 90 | 1010.1 |
| 20260506124238 | 23 | 360 | 3.2 | 6.4 | 0.00 | 0.00 | 0.00 | 90 | 1010.1 |
| 20260506124117 | 23 | 360 | 3.2 | 6.4 | 0.00 | 0.00 | 0.00 | 90 | 1010.2 |
| 20260506124017 | 23 | 360 | 3.2 | 6.4 | 0.00 | 0.00 | 0.00 | 90 | 1010.1 |
| 20260506123938 | 23 | 360 | 3.2 | 6.4 | 0.00 | 0.00 | 0.00 | 90 | 1010.1 |
| 20260506123822 | 23 | 360 | 3.2 | 6.4 | 0.00 | 0.00 | 0.00 | 90 | 1010.2 |
| 20260506123722 | 23 | 360 | 3.2 | 6.4 | 0.00 | 0.00 | 0.00 | 90 | 1010.3 |
| 20260506123643 | 23 | 360 | 3.2 | 6.4 | 0.00 | 0.00 | 0.00 | 90 | 1010.3 |
| 20260506123521 | 23 | 360 | 4.8 | 6.4 | 0.00 | 0.00 | 0.00 | 89 | 1010.3 |
| 20260506123442 | 23 | 360 | 3.2 | 6.4 | 0.00 | 0.00 | 0.00 | 89 | 1010.3 |
| 20260506123322 | 23 | 360 | 4.8 | 6.4 | 0.00 | 0.00 | 0.00 | 89 | 1010.4 |
| 20260506123242 | 23 | 360 | 4.8 | 6.4 | 0.00 | 0.00 | 0.00 | 89 | 1010.4 |
| 20260506123116 | 23 | 360 | 4.8 | 6.4 | 0.00 | 0.00 | 0.00 | 89 | 1010.3 |
| 20260506123041 | 23 | 360 | 4.8 | 6.4 | 0.00 | 0.00 | 0.00 | 89 | 1010.3 |
| 20260506122919 | 23 | 360 | 3.2 | 6.4 | 0.00 | 0.00 | 0.00 | 89 | 1010.2 |
| 20260506122821 | 23 | 360 | 3.2 | 6.4 | 0.00 | 0.00 | 0.00 | 89 | 1010.2 |
| 20260506122722 | 23 | 360 | 3.2 | 6.4 | 0.00 | 0.00 | 0.00 | 89 | 1010.2 |
| 20260506122642 | 23 | 360 | 3.2 | 6.4 | 0.00 | 0.00 | 0.00 | 89 | 1010.2 |
| 20260506122516 | 23 | 360 | 1.6 | 4.8 | 0.00 | 0.00 | 0.00 | 89 | 1010.2 |
| 20260506122417 | 23 | 360 | 1.6 | 4.8 | 0.00 | 0.00 | 0.00 | 89 | 1010.2 |
| 20260506122322 | 23 | 360 | 1.6 | 4.8 | 0.00 | 0.00 | 0.00 | 89 | 1010.2 |
| 20260506122222 | 23 | 360 | 1.6 | 4.8 | 0.00 | 0.00 | 0.00 | 89 | 1010.3 |
| 20260506122122 | 23 | 360 | 1.6 | 4.8 | 0.00 | 0.00 | 0.00 | 89 | 1010.3 |
| 20260506122042 | 23 | 360 | 1.6 | 4.8 | 0.00 | 0.00 | 0.00 | 89 | 1010.3 |
| 20260506121922 | 23 | 360 | 1.6 | 4.8 | 0.00 | 0.00 | 0.00 | 89 | 1010.2 |
| 20260506121844 | 23 | 360 | 1.6 | 4.8 | 0.00 | 0.00 | 0.00 | 89 | 1010.2 |
| 20260506121724 | 23 | 360 | 1.6 | 4.8 | 0.00 | 0.00 | 0.00 | 89 | 1010.2 |
| 20260506121624 | 23 | 360 | 3.2 | 4.8 | 0.00 | 0.00 | 0.00 | 89 | 1010.3 |
| 20260506121549 | 23 | 360 | 3.2 | 4.8 | 0.00 | 0.00 | 0.00 | 89 | 1010.3 |
| 20260506121428 | 23 | 360 | 3.2 | 4.8 | 0.00 | 0.00 | 0.00 | 89 | 1010.3 |
| 20260506121328 | 23 | 360 | 3.2 | 4.8 | 0.00 | 0.00 | 0.00 | 89 | 1010.3 |
| 20260506121229 | 23 | 360 | 3.2 | 4.8 | 0.00 | 0.00 | 0.00 | 89 | 1010.3 |
| 20260506121129 | 23 | 360 | 3.2 | 4.8 | 0.00 | 0.00 | 0.00 | 89 | 1010.3 |
| 20260506121049 | 23 | 360 | 1.6 | 4.8 | 0.00 | 0.00 | 0.00 | 89 | 1010.3 |
| 20260506120928 | 23 | 360 | 1.6 | 4.8 | 0.00 | 0.00 | 0.00 | 89 | 1010.3 |
| 20260506120849 | 23 | 360 | 1.6 | 3.2 | 0.00 | 0.00 | 0.00 | 89 | 1010.3 |
| 20260506120753 | 23 | 360 | 1.6 | 3.2 | 0.00 | 0.00 | 0.00 | 89 | 1010.3 |
| 20260506120652 | 23 | 360 | 0.0 | 3.2 | 0.00 | 0.00 | 0.00 | 89 | 1010.2 |
| 20260506120532 | 23 | 360 | 0.0 | 3.2 | 0.00 | 0.00 | 0.00 | 89 | 1010.3 |
| 20260506120432 | 23 | 360 | 0.0 | 3.2 | 0.00 | 0.00 | 0.00 | 89 | 1010.2 |
| 20260506120333 | 23 | 360 | 0.0 | 3.2 | 0.00 | 0.00 | 0.00 | 88 | 1010.3 |
| 20260506120234 | 23 | 360 | 0.0 | 6.4 | 0.00 | 0.00 | 0.00 | 88 | 1010.3 |
| 20260506120155 | 23 | 360 | 0.0 | 6.4 | 0.00 | 0.00 | 0.00 | 88 | 1010.2 |
| 20260506120055 | 23 | 360 | 0.0 | 6.4 | 0.00 | 0.00 | 0.00 | 88 | 1010.2 |
| 20260506115918 | 23 | 360 | 1.6 | 6.4 | 0.00 | 0.00 | 0.00 | 88 | 1010.2 |
| 20260506115819 | 23 | 360 | 1.6 | 6.4 | 0.00 | 0.00 | 0.00 | 88 | 1010.1 |
| 20260506115718 | 23 | 360 | 1.6 | 6.4 | 0.00 | 0.00 | 0.00 | 88 | 1010.1 |
| 20260506115619 | 23 | 360 | 3.2 | 6.4 | 0.00 | 0.00 | 0.00 | 88 | 1010.1 |
| 20260506115520 | 23 | 360 | 3.2 | 6.4 | 0.00 | 0.00 | 0.00 | 88 | 1010.1 |
| 20260506115420 | 23 | 360 | 3.2 | 6.4 | 0.00 | 0.00 | 0.00 | 88 | 1010.1 |
| 20260506115320 | 23 | 360 | 3.2 | 6.4 | 0.00 | 0.00 | 0.00 | 88 | 1010.1 |
| 20260506115225 | 23 | 360 | 4.8 | 6.4 | 0.00 | 0.00 | 0.00 | 88 | 1010.1 |
| 20260506115125 | 23 | 360 | 4.8 | 6.4 | 0.00 | 0.00 | 0.00 | 88 | 1010.1 |
| 20260506115025 | 23 | 360 | 4.8 | 6.4 | 0.00 | 0.00 | 0.00 | 88 | 1010.1 |
| 20260506114927 | 23 | 360 | 4.8 | 6.4 | 0.00 | 0.00 | 0.00 | 88 | 1010.1 |
| 20260506114848 | 23 | 360 | 3.2 | 6.4 | 0.00 | 0.00 | 0.00 | 88 | 1010.1 |
| 20260506114748 | 23 | 360 | 3.2 | 6.4 | 0.00 | 0.00 | 0.00 | 88 | 1010.1 |
| 20260506114626 | 23 | 360 | 1.6 | 6.4 | 0.00 | 0.00 | 0.00 | 88 | 1010.1 |
| 20260506114531 | 23 | 360 | 1.6 | 6.4 | 0.00 | 0.00 | 0.00 | 88 | 1010.1 |
| 20260506114432 | 23 | 360 | 0.0 | 4.8 | 0.00 | 0.00 | 0.00 | 88 | 1010.0 |
| 20260506114331 | 23 | 360 | 0.0 | 0.0 | 0.00 | 0.00 | 0.00 | 88 | 1010.1 |
| 20260506114233 | 23 | 360 | 0.0 | 0.0 | 0.00 | 0.00 | 0.00 | 88 | 1010.2 |
| 20260506114153 | 23 | 360 | 0.0 | 0.0 | 0.00 | 0.00 | 0.00 | 88 | 1010.1 |
| 20260506114053 | 23 | 360 | 0.0 | 0.0 | 0.00 | 0.00 | 0.00 | 88 | 1010.1 |
| 20260506113953 | 23 | 360 | 0.0 | 4.8 | 0.00 | 0.00 | 0.00 | 88 | 1010.1 |
| 20260506113832 | 23 | 360 | 0.0 | 4.8 | 0.00 | 0.00 | 0.00 | 88 | 1010.1 |
| 20260506113717 | 23 | 360 | 0.0 | 4.8 | 0.00 | 0.00 | 0.00 | 88 | 1010.1 |
| 20260506113618 | 23 | 360 | 0.0 | 4.8 | 0.00 | 0.00 | 0.00 | 88 | 1010.1 |
| 20260506113519 | 23 | 360 | 0.0 | 4.8 | 0.00 | 0.00 | 0.00 | 88 | 1010.1 |
| 20260506113420 | 23 | 360 | 0.0 | 4.8 | 0.00 | 0.00 | 0.00 | 88 | 1010.3 |
| 20260506113319 | 23 | 360 | 0.0 | 4.8 | 0.00 | 0.00 | 0.00 | 88 | 1010.3 |
| 20260506113219 | 23 | 360 | 0.0 | 4.8 | 0.00 | 0.00 | 0.00 | 88 | 1010.2 |
| 20260506113140 | 23 | 360 | 0.0 | 4.8 | 0.00 | 0.00 | 0.00 | 88 | 1010.1 |
| 20260506113024 | 23 | 360 | 0.0 | 4.8 | 0.00 | 0.00 | 0.00 | 88 | 1010.2 |
| 20260506112924 | 23 | 360 | 0.0 | 4.8 | 0.00 | 0.00 | 0.00 | 88 | 1010.2 |
| 20260506112826 | 23 | 360 | 0.0 | 4.8 | 0.00 | 0.00 | 0.00 | 88 | 1010.2 |
| 20260506112725 | 23 | 360 | 1.6 | 4.8 | 0.00 | 0.00 | 0.00 | 88 | 1010.1 |
| 20260506112646 | 23 | 360 | 1.6 | 4.8 | 0.00 | 0.00 | 0.00 | 88 | 1010.2 |
| 20260506112527 | 23 | 360 | 1.6 | 4.8 | 0.00 | 0.00 | 0.00 | 88 | 1010.1 |
| 20260506112428 | 23 | 360 | 1.6 | 4.8 | 0.00 | 0.00 | 0.00 | 88 | 1010.2 |
| 20260506112332 | 23 | 360 | 1.6 | 4.8 | 0.00 | 0.00 | 0.00 | 88 | 1010.1 |
| 20260506112233 | 23 | 360 | 3.2 | 4.8 | 0.00 | 0.00 | 0.00 | 88 | 1010.2 |
| 20260506112133 | 23 | 360 | 3.2 | 6.4 | 0.00 | 0.00 | 0.00 | 88 | 1010.2 |
| 20260506112034 | 23 | 360 | 3.2 | 6.4 | 0.00 | 0.00 | 0.00 | 88 | 1010.2 |
| 20260506111935 | 23 | 360 | 3.2 | 6.4 | 0.00 | 0.00 | 0.00 | 88 | 1010.1 |
| 20260506111835 | 23 | 360 | 3.2 | 4.8 | 0.00 | 0.00 | 0.00 | 88 | 1010.1 |
| 20260506111720 | 23 | 360 | 1.6 | 4.8 | 0.00 | 0.00 | 0.00 | 88 | 1010.2 |
| 20260506111621 | 23 | 360 | 1.6 | 4.8 | 0.00 | 0.00 | 0.00 | 88 | 1010.2 |
| 20260506111522 | 23 | 360 | 1.6 | 4.8 | 0.00 | 0.00 | 0.00 | 88 | 1010.2 |
| 20260506111423 | 23 | 360 | 1.6 | 4.8 | 0.00 | 0.00 | 0.00 | 88 | 1010.2 |
| 20260506111319 | 23 | 360 | 1.6 | 4.8 | 0.00 | 0.00 | 0.00 | 88 | 1010.3 |
| 20260506111219 | 23 | 360 | 1.6 | 4.8 | 0.00 | 0.00 | 0.00 | 88 | 1010.2 |
| 20260506111120 | 23 | 360 | 1.6 | 4.8 | 0.00 | 0.00 | 0.00 | 88 | 1010.2 |
| 20260506111025 | 23 | 360 | 1.6 | 4.8 | 0.00 | 0.00 | 0.00 | 88 | 1010.2 |
| 20260506110925 | 23 | 360 | 1.6 | 4.8 | 0.00 | 0.00 | 0.00 | 88 | 1010.1 |
| 20260506110825 | 23 | 360 | 3.2 | 4.8 | 0.00 | 0.00 | 0.00 | 88 | 1010.1 |
| 20260506110727 | 23 | 360 | 3.2 | 4.8 | 0.00 | 0.00 | 0.00 | 88 | 1010.0 |
| 20260506110627 | 23 | 360 | 3.2 | 4.8 | 0.00 | 0.00 | 0.00 | 88 | 1010.1 |
| 20260506110528 | 23 | 360 | 3.2 | 6.4 | 0.00 | 0.00 | 0.00 | 88 | 1010.0 |
| 20260506110448 | 23 | 360 | 3.2 | 8.0 | 0.00 | 0.00 | 0.00 | 88 | 1010.0 |
| 20260506110331 | 23 | 360 | 3.2 | 8.0 | 0.00 | 0.00 | 0.00 | 88 | 1010.1 |
| 20260506110232 | 23 | 360 | 3.2 | 8.0 | 0.00 | 0.00 | 0.00 | 88 | 1010.1 |
| 20260506110133 | 23 | 360 | 3.2 | 8.0 | 0.00 | 0.00 | 0.00 | 88 | 1010.0 |
| 20260506110034 | 23 | 360 | 3.2 | 8.0 | 0.00 | 0.00 | 0.00 | 88 | 1010.1 |
| 20260506105955 | 23 | 360 | 3.2 | 8.0 | 0.00 | 0.00 | 0.00 | 88 | 1010.0 |